[[{"header":{"parameterUnit":"m.s-1","parameterCategory":1,"la1":30.6,"la2":29.2853,"lo1":-89.7004,"lo2":-87.6739,"dy":0.0162,"dx":0.0183,"nx":112,"ny":82,"refTime":"2024-02-12T06:00:00:Z","depth":0,"parameterNumber":2,"parameterNumberName":"U-component_of_WINDS"},"data":[0.0,0.0,0.0,0.0,0.0,0.0,0.0,0.0,0.0,0.0,0.0,0.0,0.0,0.0,0.0,0.0,0.0,0.0,0.0,0.0,0.0,0.0,0.0,0.0,0.0,0.0,0.0,0.0,0.0,0.0,0.0,0.0,0.0,0.0,0.0,0.0,0.0,0.0,0.0,0.0,0.0,0.0,0.0,0.0,0.0,0.0,0.0,0.0,0.0,0.0,0.0,0.0,0.0,0.0,0.0,0.0,0.0,0.0,0.0,0.0,0.0,0.0,0.0,0.0,0.0,0.0,0.0,0.0,0.0,0.0,0.0,0.0,0.0,0.0,0.0,0.0,0.0,0.0,0.0,0.0,0.0,0.0,0.0,0.0,0.0,0.0,0.0,0.0,0.0,0.0,0.0,2.2377,2.431,2.5909,2.6904,2.4915,2.3054,2.1778,0.0,0.0,0.0,0.0,0.0,0.0,0.0,0.0,0.0,0.0,0.0,0.0,0.0,0.0,0.0,0.0,0.0,0.0,0.0,0.0,0.0,0.0,0.0,0.0,0.0,0.0,0.0,0.0,0.0,0.0,0.0,0.0,0.0,0.0,0.0,0.0,0.0,0.0,0.0,0.0,0.0,0.0,0.0,0.0,0.0,0.0,0.0,0.0,0.0,0.0,0.0,0.0,0.0,0.0,0.0,0.0,0.0,0.0,0.0,0.0,0.0,0.0,0.0,0.0,0.0,0.0,0.0,0.0,0.0,0.0,0.0,0.0,0.0,0.0,0.0,0.0,0.0,0.0,0.0,0.0,0.0,0.0,0.0,0.0,0.0,0.0,0.0,0.0,0.0,0.0,0.0,0.0,0.0,0.0,0.0,0.0,0.0,0.0,0.0,0.0,0.0,0.0,0.0,0.0,2.2707,2.5776,2.5751,2.6122,2.7679,2.4171,2.2064,2.2487,0.0,0.0,0.0,0.0,0.0,0.0,0.0,0.0,0.0,0.0,0.0,0.0,0.0,0.0,0.0,0.0,0.0,0.0,0.0,0.0,0.0,0.0,0.0,0.0,0.0,0.0,0.0,0.0,0.0,0.0,0.0,0.0,0.0,0.0,0.0,0.0,0.0,0.0,0.0,0.0,0.0,0.0,0.0,0.0,0.0,0.0,0.0,0.0,0.0,0.0,0.0,0.0,0.0,0.0,0.0,0.0,0.0,0.0,0.0,0.0,0.0,0.0,0.0,0.0,0.0,0.0,0.0,0.0,0.0,0.0,0.0,0.0,0.0,0.0,0.0,0.0,0.0,0.0,0.0,0.0,0.0,0.0,0.0,0.0,0.0,0.0,0.0,0.0,0.0,0.0,0.0,0.0,0.0,0.0,0.0,0.0,0.0,0.0,0.0,0.0,0.0,0.0,0.0,2.1755,2.3026,2.6475,2.6018,2.5923,2.7093,2.3668,2.179,2.2585,2.0908,0.0,0.0,0.0,0.0,0.0,0.0,0.0,0.0,0.0,0.0,0.0,0.0,0.0,0.0,0.0,0.0,0.0,0.0,0.0,0.0,0.0,0.0,0.0,0.0,0.0,0.0,0.0,0.0,0.0,0.0,0.0,0.0,0.0,0.0,0.0,0.0,0.0,0.0,0.0,0.0,0.0,0.0,0.0,0.0,0.0,0.0,0.0,0.0,0.0,0.0,0.0,0.0,0.0,0.0,0.0,0.0,0.0,0.0,0.0,0.0,0.0,0.0,0.0,0.0,0.0,0.0,0.0,0.0,0.0,0.0,0.0,0.0,0.0,0.0,0.0,0.0,0.0,0.0,0.0,0.0,0.0,0.0,0.0,0.0,0.0,0.0,0.0,0.0,0.0,0.0,0.0,0.0,0.0,0.0,0.0,0.0,0.0,0.0,0.0,0.0,0.0,0.0,2.2416,2.3229,2.6459,2.5951,2.561,2.6158,2.3064,2.1445,2.2276,1.9858,0.0,0.0,0.0,0.0,0.0,0.0,0.0,0.0,0.0,0.0,0.0,0.0,0.0,0.0,0.0,0.0,0.0,0.0,0.0,0.0,0.0,0.0,0.0,0.0,0.0,0.0,0.0,0.0,0.0,0.0,0.0,0.0,0.0,0.0,0.0,0.0,0.0,0.0,0.0,0.0,0.0,0.0,0.0,0.0,0.0,0.0,0.0,0.0,0.0,0.0,0.0,0.0,0.0,0.0,0.0,0.0,0.0,0.0,0.0,0.0,0.0,0.0,0.0,0.0,0.0,0.0,0.0,0.0,0.0,0.0,0.0,0.0,0.0,0.0,0.0,0.0,0.0,0.0,0.0,0.0,0.0,0.0,0.0,0.0,0.0,0.0,0.0,0.0,0.0,0.0,0.0,0.0,0.0,0.0,0.0,0.0,0.0,0.0,0.0,0.0,0.0,0.0,2.294,2.3914,2.6517,2.5951,2.5398,2.5389,2.2202,2.0556,2.1426,1.904,0.0,0.0,0.0,0.0,0.0,0.0,0.0,0.0,0.0,0.0,0.0,0.0,0.0,0.0,0.0,0.0,0.0,0.0,0.0,0.0,0.0,0.0,0.0,0.0,0.0,0.0,0.0,0.0,0.0,0.0,0.0,0.0,0.0,0.0,0.0,0.0,0.0,0.0,0.0,0.0,0.0,0.0,0.0,0.0,0.0,0.0,0.0,0.0,0.0,0.0,0.0,0.0,0.0,0.0,0.0,0.0,0.0,0.0,0.0,0.0,0.0,0.0,0.0,0.0,0.0,0.0,0.0,0.0,0.0,0.0,0.0,0.0,0.0,0.0,0.0,0.0,0.0,0.0,0.0,0.0,0.0,0.0,0.0,0.0,0.0,0.0,0.0,0.0,0.0,0.0,0.0,0.0,0.0,0.0,0.0,0.0,0.0,0.0,0.0,0.0,0.0,0.0,2.2951,2.3708,0.0,2.5581,2.5091,2.4481,2.178,2.0442,2.1299,0.0,0.0,0.0,0.0,0.0,0.0,0.0,0.0,0.0,0.0,0.0,0.0,0.0,0.0,0.0,0.0,0.0,0.0,0.0,0.0,0.0,0.0,0.0,0.0,0.0,0.0,0.0,0.0,0.0,0.0,0.0,0.0,0.0,0.0,0.0,0.0,0.0,0.0,0.0,0.0,0.0,0.0,0.0,0.0,0.0,0.0,0.0,0.0,0.0,0.0,0.0,0.0,0.0,0.0,0.0,0.0,0.0,0.0,0.0,0.0,0.0,0.0,0.0,0.0,0.0,0.0,0.0,0.0,0.0,0.0,0.0,0.0,0.0,0.0,0.0,0.0,0.0,0.0,0.0,0.0,0.0,0.0,0.0,0.0,0.0,0.0,0.0,0.0,0.0,0.0,0.0,0.0,0.0,0.0,0.0,0.0,0.0,0.0,0.0,0.0,0.0,0.0,2.3154,2.3108,2.3538,0.0,2.5082,2.4377,2.3223,2.1014,1.9917,2.0477,0.0,0.0,0.0,0.0,0.0,0.0,0.0,0.0,0.0,0.0,0.0,0.0,0.0,0.0,0.0,0.0,0.0,0.0,0.0,0.0,0.0,0.0,0.0,0.0,0.0,0.0,0.0,0.0,0.0,0.0,0.0,0.0,0.0,0.0,0.0,0.0,0.0,0.0,0.0,0.0,0.0,0.0,0.0,0.0,0.0,0.0,0.0,0.0,0.0,0.0,0.0,0.0,0.0,0.0,0.0,0.0,0.0,0.0,0.0,0.0,0.0,0.0,0.0,0.0,0.0,0.0,0.0,0.0,0.0,0.0,0.0,0.0,0.0,0.0,0.0,0.0,0.0,0.0,0.0,0.0,0.0,0.0,0.0,0.0,0.0,0.0,0.0,0.0,0.0,0.0,0.0,0.0,0.0,0.0,0.0,0.0,0.0,0.0,0.0,0.0,0.0,0.0,2.3964,2.3476,2.3531,2.5222,2.4495,2.3216,2.1541,1.9802,1.8812,0.0,0.0,0.0,0.0,0.0,0.0,0.0,0.0,0.0,0.0,0.0,0.0,0.0,0.0,0.0,0.0,0.0,0.0,0.0,0.0,0.0,0.0,0.0,0.0,0.0,0.0,0.0,0.0,0.0,0.0,0.0,0.0,0.0,0.0,0.0,0.0,0.0,0.0,0.0,0.0,0.0,0.0,0.0,0.0,0.0,0.0,0.0,0.0,0.0,0.0,0.0,0.0,0.0,0.0,0.0,0.0,0.0,0.0,0.0,0.0,0.0,0.0,0.0,0.0,0.0,0.0,0.0,0.0,0.0,0.0,0.0,0.0,0.0,0.0,0.0,0.0,0.0,0.0,0.0,0.0,0.0,0.0,0.0,0.0,0.0,0.0,0.0,0.0,0.0,0.0,0.0,0.0,0.0,0.0,0.0,0.0,0.0,0.0,0.0,0.0,0.0,0.0,0.0,2.3212,2.3056,2.3485,2.5222,2.4495,2.3223,2.1541,1.9793,1.8802,1.8812,0.0,0.0,0.0,0.0,0.0,0.0,0.0,0.0,0.0,0.0,0.0,0.0,0.0,0.0,0.0,0.0,0.0,0.0,0.0,0.0,0.0,0.0,0.0,0.0,0.0,0.0,0.0,0.0,0.0,0.0,0.0,0.0,0.0,0.0,0.0,0.0,0.0,0.0,0.0,0.0,0.0,0.0,0.0,0.0,0.0,0.0,0.0,0.0,0.0,0.0,0.0,0.0,0.0,0.0,0.0,0.0,0.0,0.0,0.0,0.0,0.0,0.0,0.0,0.0,0.0,0.0,0.0,0.0,0.0,0.0,0.0,0.0,0.0,0.0,0.0,0.0,0.0,0.0,0.0,0.0,0.0,0.0,0.0,0.0,0.0,0.0,0.0,0.0,0.0,0.0,0.0,0.0,0.0,0.0,0.0,0.0,0.0,0.0,0.0,0.0,0.0,0.0,2.3834,2.3334,2.3485,2.5186,2.4464,2.3171,2.1469,1.9724,1.8715,1.8724,0.0,0.0,0.0,0.0,0.0,0.0,0.0,0.0,0.0,0.0,0.0,0.0,0.0,0.0,0.0,0.0,0.0,0.0,0.0,0.0,0.0,0.0,0.0,0.0,0.0,0.0,0.0,0.0,0.0,0.0,0.0,0.0,0.0,0.0,0.0,0.0,0.0,0.0,0.0,0.0,0.0,0.0,0.0,0.0,0.0,0.0,0.0,0.0,0.0,0.0,0.0,0.0,0.0,0.0,0.0,0.0,0.0,0.0,0.0,0.0,0.0,0.0,0.0,0.0,0.0,0.0,0.0,0.0,0.0,0.0,0.0,0.0,0.0,0.0,0.0,0.0,0.0,0.0,0.0,0.0,0.0,0.0,0.0,0.0,0.0,0.0,0.0,0.0,0.0,0.0,0.0,0.0,0.0,0.0,0.0,0.0,0.0,0.0,0.0,0.0,0.0,0.0,2.5154,2.3961,2.3516,2.513,2.4337,2.3012,2.135,1.9605,1.8598,1.8598,0.0,0.0,0.0,0.0,0.0,0.0,0.0,0.0,0.0,0.0,0.0,0.0,0.0,0.0,0.0,0.0,0.0,0.0,0.0,0.0,0.0,0.0,0.0,0.0,0.0,0.0,0.0,0.0,0.0,0.0,0.0,0.0,0.0,0.0,0.0,0.0,0.0,0.0,0.0,0.0,0.0,0.0,0.0,0.0,0.0,0.0,0.0,0.0,0.0,0.0,0.0,0.0,0.0,0.0,0.0,0.0,0.0,0.0,0.0,0.0,2.2991,0.0,0.0,0.0,0.0,0.0,0.0,0.0,0.0,0.0,0.0,0.0,0.0,0.0,0.0,0.0,0.0,0.0,0.0,0.0,0.0,0.0,0.0,0.0,0.0,0.0,0.0,0.0,0.0,0.0,0.0,0.0,0.0,0.0,0.0,0.0,0.0,0.0,0.0,0.0,0.0,0.0,2.4411,2.3599,2.352,2.512,2.3821,2.2416,2.1294,1.9598,1.8631,1.8674,0.0,0.0,0.0,0.0,0.0,0.0,0.0,0.0,0.0,0.0,0.0,0.0,0.0,0.0,0.0,0.0,0.0,0.0,0.0,0.0,0.0,0.0,0.0,0.0,0.0,0.0,0.0,0.0,0.0,0.0,0.0,0.0,0.0,0.0,0.0,0.0,0.0,0.0,0.0,0.0,0.0,0.0,0.0,0.0,0.0,0.0,0.0,0.0,0.0,0.0,0.0,0.0,0.0,0.0,0.0,0.0,0.0,0.0,0.0,0.0,0.0,2.2999,0.0,0.0,0.0,0.0,0.0,0.0,0.0,0.0,0.0,0.0,0.0,0.0,0.0,0.0,0.0,0.0,0.0,0.0,0.0,0.0,0.0,0.0,0.0,0.0,0.0,0.0,0.0,0.0,0.0,0.0,0.0,0.0,0.0,0.0,0.0,0.0,0.0,0.0,0.0,0.0,2.4799,2.4109,2.3964,2.5129,2.4345,2.321,2.184,2.0521,1.9604,1.9251,1.8377,0.0,0.0,0.0,0.0,0.0,0.0,0.0,0.0,0.0,0.0,0.0,0.0,0.0,0.0,0.0,0.0,0.0,0.0,0.0,0.0,0.0,0.0,0.0,0.0,0.0,0.0,0.0,0.0,0.0,0.0,0.0,0.0,0.0,0.0,0.0,0.0,0.0,0.0,0.0,0.0,0.0,0.0,0.0,0.0,0.0,0.0,0.0,0.0,0.0,0.0,0.0,0.0,0.0,2.4941,2.498,2.5621,2.5815,2.5873,2.5737,2.4144,2.3312,2.314,0.0,0.0,0.0,0.0,0.0,0.0,0.0,0.0,0.0,0.0,0.0,0.0,0.0,0.0,0.0,0.0,0.0,0.0,0.0,0.0,0.0,0.0,0.0,0.0,0.0,2.4061,2.3892,0.0,0.0,0.0,0.0,0.0,0.0,0.0,0.0,0.0,0.0,0.0,0.0,2.5215,2.4638,2.4411,2.5075,2.4927,2.4107,2.2431,2.1647,2.0821,1.9864,1.9131,1.9056,0.0,0.0,0.0,0.0,0.0,0.0,0.0,0.0,0.0,0.0,0.0,0.0,0.0,0.0,0.0,0.0,0.0,0.0,0.0,0.0,0.0,0.0,0.0,0.0,0.0,0.0,0.0,0.0,0.0,0.0,0.0,0.0,1.2035,2.4175,0.0,0.0,0.0,0.0,0.0,0.0,0.0,0.0,0.0,0.0,0.0,0.0,0.0,0.0,2.4918,2.8327,2.8534,2.5621,2.6922,2.6864,2.564,2.6631,2.6941,2.6669,2.5698,0.0,2.3809,2.4158,0.0,0.0,0.0,0.0,0.0,0.0,0.0,0.0,0.0,0.0,0.0,0.0,0.0,0.0,0.0,0.0,0.0,0.0,0.0,0.0,0.0,0.0,2.41,2.3348,2.3173,2.3134,0.0,2.4183,2.5251,2.5251,2.4741,0.0,0.0,0.0,0.0,0.0,0.0,0.0,2.4138,2.407,2.4265,2.4873,2.4309,2.3442,2.2393,2.2192,2.1459,1.9901,1.9695,1.9695,1.9807,2.0352,0.0,0.0,0.0,0.0,0.0,0.0,0.0,0.0,0.0,0.0,0.0,0.0,0.0,0.0,0.0,0.0,0.0,0.0,0.0,0.0,0.0,0.0,0.0,0.0,0.0,0.0,0.0,0.0,0.0,1.3749,1.5893,2.2017,2.2721,2.3484,0.0,0.0,0.0,0.0,0.0,0.0,0.0,0.0,0.0,2.5562,2.4144,2.4086,2.5582,2.8981,2.9952,2.8456,2.8223,2.7226,2.5621,2.6126,2.733,2.8903,2.6592,2.5854,2.6145,2.4688,2.4366,2.4872,0.0,0.0,0.0,0.0,2.5601,2.5601,2.5601,2.529,0.0,0.0,0.0,0.0,0.0,0.0,0.0,0.0,0.0,0.0,0.0,0.0,0.0,2.5387,2.5543,2.5873,2.5873,2.6475,2.6586,0.0,2.4566,2.4585,2.5447,0.0,0.0,0.0,0.0,0.0,2.4706,2.461,2.4645,2.4873,2.4553,2.3941,2.3051,2.2567,2.1985,2.1253,2.0333,2.022,2.1178,2.1534,2.2116,0.0,0.0,0.0,0.0,0.0,0.0,0.0,0.0,0.0,0.0,0.0,0.0,0.0,0.0,0.0,0.0,0.0,0.0,0.0,0.0,0.0,0.0,0.0,0.0,0.0,0.0,0.0,0.0,1.7626,2.2779,2.1905,2.1808,2.2799,0.0,0.0,0.0,0.0,0.0,0.0,2.6262,2.5154,2.4863,2.5582,2.5601,2.6028,2.6903,2.9428,3.069,3.0671,2.9389,2.8107,2.6903,2.6903,2.8282,3.0554,2.801,2.7116,2.7304,2.5193,2.4418,2.4665,2.5647,2.5854,2.5659,2.6087,2.6106,2.5931,2.5931,2.5504,2.5038,2.5465,0.0,2.4741,2.5407,0.0,0.0,0.0,0.0,2.6805,2.6359,2.7168,2.7945,2.7349,2.766,2.81,2.81,2.81,2.7479,0.0,2.478,2.4826,2.5427,0.0,0.0,0.0,0.0,2.5097,2.4868,2.4931,2.4943,2.485,2.4804,2.4429,2.3577,2.313,2.2736,2.2323,2.1328,2.1215,2.2267,2.2492,2.2792,2.3201,0.0,0.0,0.0,0.0,0.0,0.0,0.0,0.0,0.0,0.0,0.0,0.0,0.0,0.0,0.0,0.0,0.0,0.0,0.0,0.0,0.0,0.0,0.0,0.0,0.0,0.0,0.0,0.0,0.0,2.5737,2.5349,0.0,0.0,0.0,0.0,2.5601,2.8612,2.9719,2.8061,2.8437,2.7738,2.5679,2.5601,2.7155,3.0399,3.0613,3.069,3.069,3.0613,3.0535,3.0438,3.0438,3.0535,3.069,3.0515,2.8651,2.5718,2.5562,2.5523,2.5634,2.676,2.6553,2.5795,2.7382,2.7485,2.6825,2.6825,2.6805,2.6631,2.5854,2.5562,2.5543,2.5582,2.5601,0.0,0.0,2.6864,2.7077,2.779,2.8042,2.8081,2.8042,2.8061,2.81,2.81,2.81,2.7828,0.0,2.6055,2.5486,2.5337,0.0,2.4033,2.3814,2.4534,2.4743,2.3719,2.436,2.4861,2.4719,2.4707,2.4369,2.3577,2.4163,2.3938,2.2398,2.2943,2.2999,2.2323,2.3018,2.3093,2.2379,2.3149,0.0,0.0,0.0,0.0,0.0,0.0,0.0,0.0,0.0,0.0,0.0,0.0,0.0,0.0,0.0,0.0,0.0,0.0,0.0,0.0,0.0,0.0,0.0,0.0,0.0,0.0,0.0,0.0,2.902,2.6941,0.0,0.0,2.6592,2.7207,2.7207,2.834,2.8923,2.869,2.889,2.8456,2.7246,2.7207,2.7796,2.902,3.1254,3.2905,3.3973,3.2885,3.1797,3.069,3.069,3.1757,3.3487,3.1306,2.9815,2.8884,2.8884,2.7582,2.564,2.6048,2.6844,2.7815,2.8029,2.7926,2.768,2.768,2.733,2.6767,2.5873,2.597,2.6436,2.6436,2.6805,2.7265,2.7582,2.8087,2.8709,2.9544,2.9777,2.9913,3.0477,3.0605,3.0457,2.9894,3.0178,3.011,2.8576,2.6757,2.56,2.5996,2.5267,2.4622,2.4605,2.5226,2.5371,2.4511,2.462,2.4749,2.4707,2.4707,2.4576,2.4294,2.405,2.39,2.3844,2.313,2.3055,2.3806,2.3618,2.36,2.3844,2.4125,2.4238,0.0,0.0,0.0,0.0,0.0,0.0,0.0,0.0,0.0,0.0,0.0,0.0,0.0,0.0,0.0,0.0,0.0,0.0,0.0,0.0,0.0,0.0,0.0,0.0,0.0,0.0,2.9972,2.9602,2.7971,2.6767,2.6475,2.7641,2.8554,2.8961,2.9525,3.003,3.0418,2.9901,2.9564,2.9544,2.9758,2.9945,3.012,3.2807,3.4711,3.5799,3.4672,3.3211,3.1454,3.081,3.163,3.341,3.1271,3.0492,3.069,3.069,2.935,2.731,2.731,2.8243,2.9531,2.9117,2.8787,2.8528,2.8528,2.801,2.7213,2.6631,2.6825,2.7291,2.7291,2.7874,2.8528,2.8528,2.9175,2.9972,3.0554,3.0923,3.1273,3.1856,3.2225,3.2283,3.17,3.2004,3.1906,3.0327,2.8193,2.6689,2.6787,2.6218,2.5763,2.5791,2.5918,2.5825,2.5328,2.4938,2.4707,2.4707,2.4707,2.4707,2.4707,2.4482,2.4445,2.4689,2.3975,2.3881,2.467,2.4182,2.4031,2.4294,2.4256,2.428,2.4417,0.0,0.0,0.0,0.0,0.0,0.0,0.0,0.0,0.0,0.0,0.0,0.0,0.0,0.0,0.0,0.0,0.0,0.0,0.0,0.0,0.0,0.0,0.0,2.5651,2.7627,2.8631,2.7505,2.8631,2.9156,2.8295,2.8728,2.9551,3.0729,3.2322,3.3274,3.3332,3.1681,3.1273,3.238,3.2994,3.3557,3.4082,3.5227,3.5791,3.5791,3.5791,3.4846,3.301,3.118,3.0357,3.0366,3.0646,3.0741,3.069,3.069,3.069,3.069,3.069,3.069,3.069,3.069,3.0166,2.9447,2.9408,2.8864,2.8178,2.8139,2.8178,2.8217,2.8217,2.8806,2.9486,2.9505,3.0108,3.0749,3.0807,3.1428,3.2043,3.2069,3.273,3.3332,3.3293,3.3313,3.3009,3.199,3.0365,2.8799,2.7652,2.7441,2.7358,2.7201,2.651,0.0,2.5963,2.5214,2.4707,2.4745,2.4745,2.4745,2.4745,2.5496,2.5643,2.4764,2.5477,2.5587,2.4726,2.4707,2.4332,2.3558,2.3411,2.3545,2.3968,0.0,0.0,0.0,0.0,0.0,0.0,0.0,0.0,0.0,0.0,0.0,0.0,0.0,0.0,0.0,0.0,0.0,0.0,0.0,0.0,0.0,0.0,2.6607,2.6809,2.8804,2.9874,2.8942,3.0282,3.1195,3.0955,3.0515,3.1118,3.3293,3.2769,3.2885,3.4109,3.2749,3.2283,3.3021,3.3074,3.3353,3.3945,3.4994,3.5531,3.5577,3.5639,3.5356,3.4788,3.4131,3.3834,3.3757,3.2631,3.159,3.069,3.061,3.0618,3.069,3.069,3.069,3.069,3.069,3.0554,3.0243,2.9622,2.9661,2.9874,2.9253,2.9894,3.0936,3.0936,3.1098,3.1428,3.205,3.1953,3.1914,3.3138,3.3196,3.3099,3.3662,3.3992,3.4012,3.3347,3.3606,3.3465,3.1821,3.0978,3.0102,2.8665,2.825,2.7706,2.6507,2.6641,0.0,2.5214,2.4858,2.4933,2.5587,2.5643,2.5643,2.5643,2.5869,2.5643,2.4764,2.4914,2.4951,2.4707,2.4707,2.4595,2.4369,2.4335,2.4719,0.0,0.0,0.0,0.0,0.0,0.0,0.0,0.0,0.0,0.0,0.0,0.0,0.0,0.0,0.0,0.0,0.0,0.0,0.0,0.0,0.0,0.0,2.7145,2.7995,2.9581,3.0639,3.1312,3.1506,3.2749,3.3577,3.3577,3.3468,3.3992,3.5488,3.4789,3.4517,3.5022,3.4248,3.3932,3.4244,3.4154,3.4426,3.5118,3.529,3.5592,3.5958,3.5669,3.547,3.5359,3.5311,3.5254,0.0,3.3417,3.2121,3.1149,3.0604,3.0665,0.0,0.0,0.0,0.0,0.0,3.1564,3.1176,3.0671,3.0826,3.1098,3.0224,3.1118,3.2477,3.2108,3.2497,3.3079,3.3254,3.3177,3.3196,3.3837,3.3895,3.3915,3.4381,3.4781,3.4908,3.4406,3.4534,3.4313,3.2865,3.2371,0.0,3.0045,2.9315,2.8631,2.7674,2.7636,2.7355,2.6381,2.5665,2.544,2.5944,2.5681,2.5458,2.5458,2.5794,0.0,0.0,0.0,2.5083,2.4726,2.4707,0.0,0.0,0.0,2.5763,2.6698,0.0,0.0,0.0,2.6556,2.6404,0.0,0.0,0.0,0.0,0.0,0.0,0.0,0.0,0.0,0.0,0.0,0.0,0.0,0.0,0.0,0.0,2.8502,2.976,3.2989,3.2863,3.2982,3.4478,3.5507,3.609,3.609,3.6692,3.7217,3.7508,3.7392,3.6945,3.6121,0.0,0.0,0.0,0.0,3.6048,3.6735,3.5916,3.5811,3.6426,3.5696,3.5307,3.5184,3.5307,3.5296,3.5098,3.3497,3.2516,3.1996,3.091,3.1053,3.2025,3.2372,3.2497,3.2555,3.3099,3.2807,3.2147,3.2147,0.0,0.0,3.137,3.2244,3.3448,3.2672,3.341,3.4361,3.3759,3.4031,3.4361,3.374,3.4109,3.4672,3.4769,3.5374,3.5939,3.5921,3.5762,3.5323,3.4327,3.3872,3.3143,3.15,3.0451,2.9777,2.957,2.8913,2.8369,2.8276,2.7017,2.6151,2.6151,0.0,0.0,2.4858,2.5568,2.5643,2.4764,2.5421,2.5496,2.4726,2.4707,2.5102,2.5981,2.6069,2.6578,2.754,2.7784,2.7915,2.7939,2.8053,2.7697,0.0,0.0,0.0,0.0,0.0,0.0,0.0,0.0,0.0,0.0,0.0,0.0,0.0,0.0,0.0,2.9081,3.0378,3.1982,3.4061,3.4768,3.5197,3.5507,3.6945,3.7897,3.7897,3.7411,3.7955,4.0014,3.7665,3.6627,3.7753,3.6425,0.0,3.6479,3.6495,3.6457,3.6411,3.6157,3.5816,3.5389,0.0,0.0,3.5108,3.5143,3.5107,3.498,3.3938,3.3396,3.3134,3.2371,3.2708,3.3669,3.3227,3.3056,3.3075,3.3247,3.3196,3.306,3.306,3.3468,3.3992,3.3818,3.4478,3.5294,3.5119,3.4808,0.0,3.5158,3.4925,3.4633,3.5177,3.543,3.5741,3.642,3.6731,3.6813,3.664,3.6446,3.5795,3.4058,3.3582,3.3144,3.2089,3.1223,3.0227,2.8838,2.8501,2.8163,2.7524,2.7167,2.696,2.696,2.681,2.6453,2.5812,2.5906,2.5643,2.4764,2.4858,2.4876,2.4707,2.4707,2.5102,2.5981,2.6013,2.6827,2.8461,2.856,2.8651,2.8763,2.8307,2.8008,0.0,0.0,0.0,0.0,0.0,0.0,0.0,0.0,0.0,0.0,0.0,2.6747,2.8026,0.0,3.0189,3.2313,3.3366,3.4666,3.6856,3.7089,3.7072,3.71,3.783,3.8529,3.9004,3.8228,3.8578,4.0752,3.8511,3.7375,3.8098,3.688,3.6074,3.5887,3.5885,3.5988,3.6254,3.5741,3.5512,3.5552,3.5135,3.4946,3.4946,3.4983,3.4982,3.4907,3.4055,3.3617,3.3479,3.3277,3.3595,3.4248,3.4865,3.4854,3.452,3.4528,3.4284,3.3895,3.3895,3.4167,3.442,3.4031,3.4769,3.5799,3.5799,3.5799,3.5974,3.6867,3.6789,3.6556,3.6984,3.71,3.7217,3.7644,3.7647,3.7514,3.7418,3.7133,3.6595,3.5628,3.5013,3.4376,3.3494,3.2687,3.1729,3.0452,3.0265,2.9964,2.9157,2.8706,2.8275,2.7862,2.7448,2.6866,2.6075,2.5606,2.5158,2.4726,2.4707,2.4707,2.4707,2.4707,2.5308,2.6566,2.6585,2.7462,2.9185,2.9298,2.9372,2.9446,2.9308,2.9013,0.0,0.0,0.0,0.0,0.0,0.0,0.0,0.0,2.6216,2.6214,2.6882,2.8043,2.9921,3.0951,3.2533,3.5566,3.6184,3.7031,3.914,3.8636,3.8083,3.8121,3.8239,3.8666,3.9587,3.8996,3.912,4.0497,3.9138,3.8083,3.7726,3.6862,3.6025,3.5318,3.5228,3.5496,3.6137,3.5394,3.5258,3.5771,3.5109,3.4788,3.4788,3.4869,3.487,3.4812,3.4188,3.3828,3.3751,3.4227,3.4491,3.4808,3.6563,3.6852,3.6287,3.6287,3.5724,3.5014,3.5169,3.5041,3.4692,3.4381,3.51,3.609,3.6246,3.6809,3.7508,3.8188,3.8402,3.8402,3.8402,3.8402,3.8441,3.8596,3.8438,3.824,3.8199,3.7863,3.7503,3.731,3.6651,3.5859,3.4996,3.432,3.3475,3.2274,3.2105,3.1879,3.1222,3.0565,2.9777,2.8745,2.8068,2.7279,2.632,2.559,2.5196,2.5196,2.5196,2.5196,2.5196,2.5196,2.589,2.7411,2.743,2.8181,2.9701,2.9806,2.9888,2.9937,3.0182,2.9956,2.5549,2.5499,2.5252,2.4695,2.5553,2.6218,0.0,0.0,2.801,2.801,2.8668,3.0,3.2499,3.364,3.4773,3.6651,3.7603,3.8188,3.8433,3.7744,3.7211,3.7172,3.7821,3.8646,3.9518,3.9518,3.9456,3.9483,3.8575,3.7627,3.6715,3.5725,3.5454,3.5969,3.5927,3.5899,3.5942,3.5825,3.5475,3.492,3.4826,3.4788,3.4788,3.4809,3.4768,3.4626,3.4655,3.4597,3.4572,3.5783,3.6247,3.6289,3.7626,3.8093,3.8025,3.8025,3.7473,3.6832,3.7608,3.6908,3.5896,3.7353,3.743,3.71,3.7877,3.8169,3.8266,3.8363,3.8402,3.8402,3.8402,3.8402,3.8576,3.9306,3.9309,3.9122,3.8933,3.8708,3.8264,3.7325,3.7028,3.6704,3.5897,3.5691,3.4827,3.2461,3.2105,3.2067,3.1973,3.1898,3.1241,2.972,2.9476,2.8781,2.7204,2.6979,2.6923,2.6923,2.6923,2.6923,2.6923,2.6923,2.7336,2.8238,2.8257,2.8744,2.9701,2.9773,2.9872,2.9977,2.9984,3.0051,2.3644,2.4154,0.0,0.0,2.5336,2.6314,2.6592,2.7915,2.9062,2.9064,3.0497,3.2401,3.4463,3.5962,3.7405,0.0,3.9624,3.9674,3.9122,3.7938,3.69,3.6309,3.6124,3.6561,3.7938,3.7533,3.7546,3.8485,3.7627,3.6856,3.6347,3.5931,3.5552,3.5239,3.5195,3.5171,3.5146,3.5146,3.498,3.4687,3.4687,3.4687,3.4687,3.4687,3.4927,3.5353,3.5415,3.5771,3.6388,3.6948,3.7279,3.7552,3.8586,3.8999,3.8941,3.8461,3.8064,3.7822,3.8228,3.7907,3.743,3.8149,3.8149,3.8013,3.8887,3.9159,3.9353,4.0344,4.0597,4.0597,4.0597,4.0597,4.0577,4.0393,4.0126,3.9884,3.9723,3.949,3.9139,3.8649,3.815,3.7699,3.7361,3.6911,3.6235,3.5165,3.417,3.3381,3.2931,3.2856,3.2405,3.1222,3.0265,2.942,2.8706,2.7768,2.7204,2.7204,2.7204,2.7204,2.7204,2.7204,2.758,2.8369,2.8388,2.9045,3.0396,2.9964,3.0263,3.1221,3.08,3.1001,2.3203,0.0,0.0,2.5111,2.5945,2.7116,2.8372,2.9498,3.037,3.0606,3.2129,3.3996,3.5914,3.7084,3.8385,4.0265,4.0548,4.0325,3.9704,3.8142,3.6726,3.5824,3.4942,3.4903,3.6154,3.6163,3.6507,3.7469,3.6996,3.6406,3.5777,3.5758,3.5394,3.4623,3.4602,3.4714,3.4958,3.4714,3.4714,3.4958,3.4958,3.4958,3.4958,3.5184,3.566,3.6308,3.6308,3.6822,3.7653,3.7934,3.8208,3.8575,3.9502,3.9874,3.9816,3.9478,3.9034,3.8675,3.8967,3.8763,3.8442,3.8937,3.8937,3.8878,3.9781,4.0208,4.0597,4.1568,4.2189,4.2442,4.1976,4.2189,4.2287,4.115,4.1023,4.0966,4.0336,4.0136,4.0,3.9664,3.9089,3.8582,3.8338,3.7812,3.7361,3.7117,3.6066,3.5071,3.4508,3.402,3.34,3.2555,3.1203,3.0359,3.0359,2.9044,2.8218,2.8218,2.8012,2.788,2.788,2.788,2.8162,2.8745,2.8745,2.9458,3.0884,3.0321,3.0753,3.2165,3.1637,3.18,0.0,0.0,2.6914,2.6914,2.8218,2.95,2.9542,3.0847,3.2265,3.3107,3.3341,3.4161,3.6699,3.6513,3.6807,3.9334,3.9675,3.9616,3.9596,3.8102,3.6676,3.5811,3.493,3.4418,0.0,3.6498,3.7433,3.652,3.7015,3.6572,3.4736,3.4661,3.4642,3.4602,3.4602,3.4996,3.5859,3.5015,3.5015,3.5859,3.5859,3.5859,3.5897,3.6667,3.7122,3.7354,3.7354,3.749,3.7764,3.875,3.9157,3.9283,4.0346,4.0752,4.0861,4.1679,4.0916,3.958,4.0432,3.9661,3.8588,4.0276,4.0247,3.9733,4.0607,4.1451,4.1956,4.116,4.217,4.3063,4.1374,4.2189,4.3034,4.1315,4.1976,4.2491,4.0609,4.0652,4.0776,3.9801,3.9583,3.9276,3.845,3.8281,3.8,3.7211,3.7042,3.7005,3.6986,3.5559,3.4245,3.3456,3.2555,3.2029,3.2029,3.1278,3.079,3.079,3.0058,2.9608,2.9608,2.9608,2.9626,2.9664,2.9664,3.0077,3.0884,3.0865,3.1393,3.239,3.2184,3.2203,2.5694,0.0,2.7148,2.7715,2.875,2.9745,3.0331,3.1301,3.217,3.2471,3.3,3.366,3.4513,3.4901,3.5725,3.7661,3.7949,3.8119,3.8664,3.7723,3.6454,3.5018,3.5087,0.0,0.0,0.0,0.0,3.5758,3.5755,3.5476,3.483,3.4668,3.4864,3.5446,3.5465,3.5597,3.5897,3.5615,3.5315,3.5033,3.5615,3.6249,3.6911,3.7194,3.7715,3.8403,3.8403,3.8837,3.958,3.9915,4.014,4.0295,4.0662,4.079,4.0887,4.1732,4.1654,4.1299,4.2206,4.1815,4.0974,4.1567,4.1965,4.2141,4.1859,4.2364,4.3122,4.3354,4.3829,4.4159,4.3576,4.3848,4.3868,4.2168,4.2516,4.2835,4.1318,4.1531,4.1718,4.061,4.0403,4.0121,3.9295,3.9145,3.907,3.8788,3.7793,3.6892,3.6366,3.5803,3.5146,3.4282,3.3456,3.2968,3.2968,3.218,3.171,3.171,3.1447,3.1053,3.0527,3.0509,3.0246,2.9701,3.0227,3.0903,3.171,3.171,3.2445,3.386,3.3233,3.3372,2.6071,2.6797,2.7676,2.8555,2.9414,3.0215,3.0762,3.1541,3.2043,3.1731,3.2125,3.2595,3.2884,3.2881,3.3574,3.5841,3.593,3.619,3.7626,3.7093,3.623,3.5386,3.5803,0.0,0.0,0.0,0.0,3.5886,3.5859,3.5704,3.5382,3.5225,3.5383,3.5878,3.6179,3.646,3.6761,3.6197,3.5791,3.5616,3.6462,3.7402,3.8403,3.8403,3.8803,3.9461,3.9461,3.9903,4.0617,4.0617,4.0673,4.0829,4.1119,4.1235,4.1371,4.2512,4.2725,4.255,4.3163,4.3044,4.2621,4.2632,4.3003,4.3364,4.2801,4.3237,4.3975,4.4187,4.4672,4.5021,4.443,4.4722,4.4741,4.3022,4.3463,4.3813,4.2302,4.2584,4.2714,4.1291,4.0962,4.0645,3.9835,3.965,3.9602,3.9602,3.87,3.7681,3.6855,3.6761,3.6329,3.5184,3.4602,3.417,3.3869,3.3043,3.2555,3.2555,3.2274,3.1879,3.1354,3.1335,3.1091,3.0565,3.1072,3.1748,3.2555,3.2555,3.3269,3.4583,3.4118,3.4259,2.6875,2.7773,2.8633,2.9512,3.0351,3.0957,3.0918,3.1465,3.1777,3.0985,3.0739,3.0879,0.0,0.0,3.0486,3.39,3.3711,3.4052,3.6618,3.6325,3.6091,0.0,0.0,0.0,0.0,0.0,0.0,3.6843,0.0,3.7163,3.6274,3.614,3.6075,3.601,3.6761,3.753,3.83,3.6704,3.6387,3.7335,3.8112,3.9069,4.0138,4.0138,4.0283,4.0523,4.0523,4.0612,4.079,4.079,4.079,4.0868,4.168,4.2009,4.2202,4.3962,4.4078,4.3363,4.3421,4.3447,4.3465,4.347,4.3485,4.3527,4.3477,4.4059,4.4594,4.3749,4.473,4.5634,4.4044,4.4812,4.5578,4.3876,4.4707,4.5383,4.3481,4.375,4.3801,4.1896,4.1298,4.0843,4.0081,3.9746,3.9602,3.9602,3.9602,3.9276,3.8413,3.83,3.7699,3.6122,3.5953,3.5634,3.4789,3.3982,3.3531,3.3531,3.2705,3.2217,3.2161,3.2161,3.2142,3.2105,3.2142,3.2574,3.34,3.3438,3.3851,3.4583,3.4764,3.4864,2.8359,2.957,3.0449,3.1328,3.1699,3.1699,3.1055,3.0078,2.9414,2.9843,2.8375,2.7299,0.0,0.0,0.0,3.2124,3.2469,0.0,3.6491,3.729,0.0,0.0,0.0,3.8334,3.7038,3.7696,0.0,0.0,3.7266,3.6773,3.6363,3.6198,3.6585,3.7643,3.7887,3.8094,3.83,3.6804,3.6193,3.6443,3.6787,3.7844,3.9448,3.9448,3.9923,4.072,4.072,4.0746,4.079,4.079,4.079,4.0868,4.168,4.2009,4.2202,4.3962,4.4465,4.4349,4.4949,4.4782,4.4305,4.4342,4.4773,4.5142,4.456,4.4948,4.5549,4.5336,4.5568,4.5832,4.5406,4.56,4.5658,4.4543,4.5124,4.5537,4.4171,4.4583,4.482,4.3503,4.2098,4.0988,4.0645,4.0021,3.9602,3.9602,3.9602,3.9276,3.8413,3.83,3.7906,3.6892,3.6779,3.6686,3.6479,3.5728,3.5259,3.5259,3.4433,3.3682,3.31,3.3081,3.2762,3.2105,3.2743,3.3193,3.34,3.4001,3.4395,3.462,3.5281,3.569,2.8535,2.9941,3.1016,3.1504,3.1621,3.1406,3.0527,2.9277,2.832,2.8437,2.7283,0.0,0.0,0.0,0.0,0.0,0.0,0.0,3.5424,3.6884,3.7735,0.0,3.8895,0.0,3.8141,3.8141,3.8044,0.0,3.7064,3.6776,3.6965,3.6407,3.6604,3.7737,3.8131,3.8329,3.8426,3.7991,3.7661,3.7484,3.7953,3.8808,3.9899,3.9899,4.0229,4.079,0.0,4.079,4.079,4.079,4.079,4.0906,4.2106,4.257,4.2783,4.4485,4.5123,4.52,4.5692,4.5518,4.5144,4.5189,4.5525,4.5828,4.5369,4.5544,4.5905,4.5905,4.5917,4.5929,4.5929,4.5929,4.5801,4.5286,4.5544,4.5711,4.504,4.5279,4.5291,4.4116,4.2751,4.1589,4.0929,4.0422,4.0009,3.9658,3.9602,3.9408,3.892,3.8863,3.8544,3.7718,3.7624,3.7474,3.7117,3.6686,3.6273,3.5916,3.5446,3.4789,3.3963,3.3926,3.37,3.3212,3.3682,3.3926,3.3926,3.4376,3.4789,3.5184,3.5697,3.6201,2.8203,2.9746,3.1035,3.0937,3.0801,3.0508,2.9629,2.8574,2.7637,2.7109,0.0,2.6699,2.6807,0.0,2.7382,2.9062,0.0,3.1293,3.3963,3.5723,3.7348,3.8953,3.9371,3.941,3.9166,3.847,3.7715,3.6961,3.6678,3.6829,3.7513,3.6862,3.6799,3.745,3.8051,3.8471,3.8626,3.9426,3.9547,3.9042,3.9826,4.0342,4.0616,4.0616,4.0694,4.079,0.0,0.0,4.079,4.079,4.0848,4.1119,4.2686,4.3363,4.3653,4.522,4.58,4.5814,4.586,4.5847,4.5814,4.5893,4.5899,4.5893,4.5887,4.5899,4.5905,4.5905,4.5949,4.5991,4.598,4.598,4.5968,4.5906,4.5893,4.586,4.5814,4.58,4.5461,4.4288,4.3425,4.2479,4.1331,4.1041,4.0722,4.0009,3.9915,3.9915,3.9915,3.9733,3.9295,3.8544,3.8469,3.8188,3.7474,3.7324,3.6948,3.6254,3.6122,3.5728,3.4958,3.4921,3.4921,3.4921,3.4921,3.4921,3.4921,3.4921,3.5315,3.6066,3.623,3.6691,2.8945,3.0644,3.1797,3.1074,3.0351,2.9609,2.8711,2.6738,0.0,0.0,0.0,2.5078,2.5781,2.5933,0.0,2.8144,0.0,0.0,0.0,0.0,3.6281,0.0,0.0,0.0,0.0,0.0,0.0,0.0,0.0,3.5974,3.6738,3.7823,3.8727,3.9394,3.901,3.8823,3.886,3.9174,3.8927,3.8137,3.844,3.8987,3.9739,3.9739,4.0113,4.079,4.079,0.0,4.079,4.079,4.1177,4.1893,4.2918,4.375,4.4485,4.5452,4.58,4.58,4.5814,4.5814,4.5814,4.5893,4.586,4.5827,4.5814,4.586,4.5906,4.5906,4.5912,4.5917,4.5919,4.5919,4.5906,4.5827,4.5814,4.5814,4.58,4.58,4.5634,4.5073,4.4285,4.3509,4.2968,4.228,4.1755,4.1605,4.1586,4.1586,4.1586,4.0422,3.9545,3.937,3.9352,3.9314,3.9188,3.8507,3.8037,3.7887,3.7249,3.6817,3.6667,3.6667,3.6667,3.6667,3.6667,3.6667,3.6667,3.6667,3.6723,3.6892,3.7591,3.8083,2.8574,3.0527,3.1875,3.0547,2.957,2.869,2.7787,0.0,0.0,0.0,0.0,2.5195,2.5585,0.0,0.0,0.0,0.0,0.0,0.0,0.0,0.0,0.0,0.0,0.0,0.0,0.0,0.0,0.0,0.0,3.6318,3.6642,3.7261,3.7754,3.8061,3.8613,3.8951,3.9054,3.9596,3.9726,3.9405,3.9509,3.9765,4.0172,4.0172,4.0404,4.079,4.079,0.0,4.0829,4.1255,4.1641,4.2125,4.346,4.4233,4.4697,4.549,4.58,4.58,4.58,4.58,4.5814,4.5847,4.5833,4.5814,4.5847,4.586,4.5906,4.5899,4.5893,4.5905,4.5906,4.5893,4.5893,4.5814,4.58,4.58,4.58,4.58,4.5723,4.5418,4.4919,4.4353,4.3604,4.3024,4.2524,4.2066,4.1991,4.1991,4.1991,4.1342,4.0685,4.0272,4.0215,4.0215,4.0215,3.9445,3.8976,3.8976,3.8188,3.753,3.7117,3.7099,3.7099,3.7099,3.7099,3.7099,3.7099,3.7099,3.7351,3.783,3.8206,3.8712,2.8044,2.9913,3.1259,2.9687,2.8359,2.7297,2.676,2.5329,0.0,0.0,2.5644,2.5689,2.5602,0.0,0.0,0.0,0.0,0.0,0.0,0.0,0.0,0.0,0.0,0.0,0.0,0.0,0.0,0.0,0.0,0.0,3.6944,3.6516,3.638,3.6712,3.7857,3.8646,3.8979,3.9841,4.0279,4.0249,4.0616,4.0694,4.052,4.0713,4.079,4.079,4.079,0.0,0.0,4.1738,4.2222,4.2686,4.4078,4.4717,4.4929,4.5568,4.58,4.58,4.58,4.58,4.58,4.58,4.58,4.5814,4.586,4.5893,4.5906,4.588,4.5893,4.5893,4.5874,4.5893,4.586,4.5814,4.58,4.58,4.58,4.58,4.5737,4.5543,4.5323,4.4908,4.3995,4.3686,4.3313,4.2656,4.2535,4.2535,4.2535,4.2535,4.2243,4.1417,4.1173,4.106,4.106,4.0478,4.0103,4.0103,3.9314,3.8638,3.8169,3.7981,3.7887,3.7887,3.7887,3.7793,3.7624,3.7652,3.8037,3.875,3.8961,3.9485,2.7982,2.8968,2.9528,2.8566,2.6484,2.4874,2.5641,0.0,0.0,2.5266,2.5655,2.5684,2.5611,0.0,0.0,0.0,0.0,2.812,0.0,0.0,0.0,0.0,0.0,0.0,0.0,0.0,0.0,0.0,0.0,0.0,3.7723,3.6498,3.6382,3.7728,3.7315,3.7467,3.8272,3.9154,3.9192,3.847,4.0036,4.0384,3.9661,4.0442,4.079,4.079,4.079,0.0,0.0,4.197,4.2937,4.4388,4.4543,4.5045,4.5703,4.5761,4.58,4.58,4.58,4.58,4.58,4.58,4.58,4.58,4.5814,4.5847,4.5893,4.5827,4.586,4.5893,4.5814,4.5814,4.5814,4.58,4.58,4.58,4.58,4.58,4.5737,4.5543,4.5323,4.5099,4.4754,4.4516,4.4364,4.4289,4.4289,4.4289,4.4289,4.4289,4.397,4.3163,4.2374,4.1905,4.1905,4.183,4.1766,4.1766,4.1022,4.0872,4.1529,4.0854,4.0459,4.0459,4.0459,4.0103,3.9376,3.9416,3.9505,3.9599,4.053,4.1038,2.6251,2.7608,2.8333,2.6973,2.5851,2.5036,2.4849,0.0,2.4088,2.5234,2.5533,2.5575,2.5537,2.5593,2.6103,0.0,0.0,0.0,0.0,0.0,0.0,0.0,0.0,0.0,0.0,0.0,0.0,0.0,0.0,0.0,3.653,3.6029,3.5971,3.6549,3.6791,3.7077,3.7406,3.8276,3.8547,3.8218,3.9437,3.9855,3.9526,4.0404,4.1061,4.1525,4.1525,0.0,0.0,4.3343,4.3982,4.4659,4.5123,4.551,4.58,4.58,4.58,4.58,4.58,4.58,4.58,4.58,4.58,4.5814,4.5847,4.5847,4.5847,4.586,4.5847,4.5827,4.5814,4.58,4.58,4.58,4.58,4.58,4.58,4.58,4.5786,4.5708,4.5418,4.518,4.5052,4.4732,4.4515,4.4515,4.4515,4.4515,4.4515,4.4515,4.4383,4.4064,4.3275,4.2787,4.2787,4.2318,4.2224,4.275,4.1999,4.168,4.1972,4.1698,4.1529,4.1529,4.1529,4.1386,4.1167,4.1178,4.1297,4.1453,4.1857,4.2096,2.476,2.6022,2.6666,2.5481,2.4992,2.4704,0.0,0.0,2.4427,2.5235,2.5456,2.55,2.5473,2.5539,2.6101,2.7632,2.6869,2.7316,0.0,0.0,0.0,0.0,0.0,0.0,0.0,0.0,0.0,0.0,0.0,0.0,0.0,3.5704,3.5704,3.5704,3.6245,3.6555,3.6555,3.7386,3.7831,3.7831,3.8953,3.9507,3.9526,4.0404,4.11,4.1661,0.0,0.0,0.0,4.4253,4.4736,4.5007,4.5568,4.58,4.58,4.58,4.58,4.58,4.58,4.58,4.58,4.58,4.58,4.5814,4.586,4.5847,4.5814,4.586,4.5847,4.5858,4.6109,4.6167,4.6167,4.6167,4.638,4.6496,4.6245,4.638,4.6573,4.6573,4.6241,4.5851,4.5621,4.5168,4.4777,4.4552,4.4515,4.4515,4.4515,4.4515,4.4515,4.4515,4.3989,4.3651,4.3651,4.3106,4.3013,4.3613,4.2862,4.2506,4.275,4.2524,4.2393,4.2393,4.2419,4.234,4.2128,4.2227,4.2323,4.2481,4.2772,4.3126,2.3879,2.4191,2.424,2.421,2.357,2.3149,0.0,0.0,2.4427,2.5235,2.5456,2.5474,2.5398,2.5517,2.5886,2.6773,2.6969,0.0,0.0,0.0,0.0,0.0,0.0,0.0,0.0,0.0,0.0,0.0,0.0,0.0,0.0,3.5704,3.5704,3.5704,3.5704,3.5704,3.5704,3.6516,3.6903,3.6922,3.8663,3.9507,3.9526,4.0404,4.079,0.0,0.0,0.0,0.0,4.4253,4.5065,4.578,4.58,4.58,4.58,4.58,4.58,4.58,4.58,4.58,4.58,4.58,4.58,4.58,4.58,4.58,4.58,4.58,4.58,4.5993,4.6864,4.7096,4.7096,4.7096,4.7753,4.814,4.727,4.7753,4.8372,4.8372,4.7991,4.7417,4.6617,4.6045,4.5416,4.4627,4.4515,4.4515,4.4515,4.4515,4.4515,4.4515,4.4496,4.4496,4.4496,4.4496,4.4496,4.4496,4.3726,4.3651,4.4458,4.3707,4.3294,4.3294,4.3434,4.302,4.2018,4.2252,4.2342,4.2215,4.3156,4.4132,2.1991,2.2813,2.3105,2.2554,2.2634,2.2889,2.3064,0.0,2.4322,2.5039,2.4841,2.4724,2.5282,2.4996,2.5337,2.7459,2.6808,2.7072,0.0,0.0,0.0,0.0,0.0,0.0,0.0,0.0,0.0,0.0,0.0,0.0,0.0,3.5704,3.5704,3.5704,3.5704,3.5704,3.5704,3.5955,3.6361,3.6903,3.8063,3.8914,3.9526,4.0404,0.0,0.0,0.0,0.0,0.0,4.5084,4.5568,4.58,4.58,4.58,4.58,4.58,4.58,4.58,4.58,4.58,4.58,4.58,4.58,4.58,4.58,4.58,4.58,4.58,4.6225,4.6748,4.7018,4.754,4.7985,4.7985,4.8198,4.8314,4.8043,4.8217,4.8392,4.8392,4.8176,4.7817,4.7403,4.7067,4.6701,4.6271,4.6223,4.6223,4.6223,4.5697,4.5322,4.5322,4.4834,4.4515,4.4515,4.4515,4.4515,4.4515,4.4271,4.4233,4.4496,4.4271,4.412,4.412,4.4148,4.4052,4.3841,4.3945,4.3995,4.4045,4.434,4.4721,0.0,2.0962,2.1317,2.1143,2.1696,0.0,0.0,0.0,2.3609,2.4075,2.3821,2.3726,2.4306,2.4289,2.4745,2.6446,2.6379,0.0,0.0,0.0,0.0,0.0,0.0,0.0,0.0,0.0,0.0,0.0,0.0,0.0,0.0,3.5994,3.6013,3.5704,3.5704,3.5839,3.6149,3.5839,3.6091,3.6903,3.7793,3.8663,3.9526,4.0404,0.0,0.0,0.0,0.0,0.0,4.5471,4.58,4.58,4.58,4.58,4.58,4.58,4.58,4.58,4.58,4.58,4.58,4.58,4.58,4.5858,4.6187,4.6051,4.5858,4.6187,4.667,4.725,4.7908,4.8488,4.8894,4.8894,4.9126,4.9262,4.8952,4.9126,4.9339,4.9339,4.9102,4.8736,4.8283,4.7916,4.7542,4.7078,4.7012,4.7012,4.7012,4.6523,4.6186,4.6186,4.5453,4.4946,4.4946,4.4684,4.4515,4.4515,4.4515,4.4515,4.4515,4.4515,4.4515,4.4515,4.4551,4.4578,4.4632,4.4632,4.4659,4.4764,4.4796,4.4895,0.0,1.8816,1.9119,1.9977,2.0697,2.1244,0.0,0.0,0.0,0.0,2.2534,2.2613,2.291,2.3593,2.4196,2.4514,2.5887,0.0,0.0,0.0,0.0,0.0,0.0,0.0,0.0,0.0,0.0,0.0,0.0,0.0,0.0,3.6477,3.6555,3.5994,3.5839,3.611,3.6806,3.6071,3.6091,3.6903,3.7793,3.8663,3.9526,4.0404,0.0,0.0,0.0,0.0,0.0,4.5471,4.58,4.58,4.58,4.58,4.58,4.58,4.58,4.58,4.58,4.58,4.58,4.58,4.58,4.5955,4.6844,4.6535,4.6071,4.6941,4.7231,4.7657,4.9281,4.9745,4.9784,4.9784,5.0364,5.0712,4.9958,5.0384,5.0906,5.0906,5.0548,5.0,4.9217,4.8659,4.8055,4.7293,4.7181,4.7181,4.7181,4.7124,4.7087,4.7087,4.6317,4.5772,4.5716,4.4965,4.4515,4.4515,4.4515,4.4515,4.4515,4.4515,4.4515,4.4515,4.4632,4.4651,4.459,4.459,4.4627,4.4684,4.4772,4.4865,1.6636,0.0,1.8121,1.8948,1.924,1.9646,0.0,0.0,0.0,0.0,0.0,2.2296,2.426,2.3804,2.4025,2.6757,2.7,0.0,0.0,0.0,0.0,0.0,0.0,0.0,0.0,0.0,0.0,0.0,0.0,0.0,0.0,3.6574,3.6787,3.8547,3.7309,3.6419,3.5994,3.5781,3.6091,3.6903,3.7793,3.8663,3.9526,4.0404,0.0,0.0,0.0,0.0,4.4659,4.5471,4.58,4.58,4.58,4.58,4.58,4.58,4.58,4.58,4.58,4.58,4.58,4.58,4.58,4.5955,4.6844,4.696,4.698,4.785,4.8566,4.9184,4.9591,5.0171,5.0616,5.0616,5.077,5.0848,5.0674,5.077,5.0906,5.0906,5.0681,5.0389,4.9981,4.9632,4.9315,4.8957,4.8908,4.8908,4.8908,4.8326,4.7913,4.7913,4.7181,4.643,4.5754,4.4965,4.4515,4.4515,4.4515,4.4515,4.4515,4.4515,4.4515,4.4515,4.4542,4.4824,4.5416,4.5574,4.5968,4.6571,4.6081,4.5924,1.5544,1.6368,1.7377,1.8597,1.8801,1.9025,2.0212,0.0,0.0,0.0,0.0,0.0,2.3127,0.0,0.0,2.6404,2.6882,0.0,0.0,0.0,0.0,0.0,0.0,0.0,0.0,0.0,0.0,0.0,0.0,0.0,0.0,3.6922,3.7135,3.7735,3.7193,3.6884,3.6845,3.6458,3.6477,3.6903,3.7793,3.8663,3.9526,4.0404,4.1235,0.0,0.0,0.0,4.4639,4.5065,4.5471,4.58,4.58,4.58,4.58,4.58,4.58,4.58,4.58,4.58,4.5858,4.6264,4.6399,4.6631,4.7908,4.8295,4.8392,4.8856,4.9339,4.9784,5.0152,5.0577,5.0906,5.0906,5.0906,5.0906,5.0906,5.0906,5.0906,5.0906,5.0644,5.0383,5.023,4.9903,4.9644,4.9521,4.9509,4.9509,4.9509,4.9096,4.8795,4.8795,4.8044,4.7368,4.688,4.611,4.5491,4.5078,4.5059,4.5059,4.5059,4.5059,4.5247,4.5641,4.566,4.5866,4.6298,4.6468,4.6776,4.7211,4.6967,4.6882,1.4912,1.5596,1.6657,1.816,1.842,1.8522,0.0,0.0,0.0,0.0,0.0,0.0,0.0,0.0,0.0,0.0,0.0,0.0,0.0,0.0,0.0,0.0,0.0,0.0,0.0,0.0,0.0,0.0,0.0,0.0,0.0,3.7058,3.7096,3.5916,3.6439,3.7077,3.7812,3.7212,3.6903,3.6903,3.7793,3.8663,3.9526,4.0404,4.1235,0.0,0.0,0.0,4.462,4.4736,4.5181,4.58,4.58,4.58,4.58,4.58,4.58,4.58,4.58,4.58,4.5935,4.6825,4.7096,4.7424,4.9165,4.9707,4.9726,4.9861,4.9881,5.0035,5.0732,5.0906,5.0906,5.0906,5.0906,5.0906,5.0906,5.0906,5.0906,5.0906,5.0509,5.0245,5.0359,4.9995,4.9678,4.9678,4.9678,4.964,4.9527,4.9509,4.9509,4.9509,4.8833,4.8326,4.8194,4.7706,4.7012,4.6129,4.596,4.5904,4.5904,4.5904,4.6261,4.6993,4.7012,4.7068,4.721,4.7363,4.7483,4.7643,4.777,4.7834,1.5023,1.5188,1.5498,1.6262,1.6441,1.6824,0.0,0.0,0.0,0.0,0.0,0.0,0.0,0.0,0.0,0.0,0.0,0.0,0.0,0.0,0.0,0.0,0.0,0.0,0.0,0.0,0.0,0.0,0.0,0.0,0.0,3.6013,3.551,3.669,3.6168,3.5955,3.6071,3.6632,3.6903,3.6903,3.7793,3.8663,3.9526,4.0404,4.1235,0.0,0.0,4.3672,4.4659,4.5336,4.5684,4.58,4.58,4.58,4.58,4.58,4.58,4.58,4.58,4.58,4.5935,4.6825,4.7096,4.7424,4.9165,4.9707,4.9842,5.0519,5.0732,5.0751,5.0867,5.0906,5.0906,5.0906,5.0906,5.0906,5.0906,5.0906,5.0906,5.0906,5.0509,5.0436,5.108,5.0828,5.0504,5.0504,5.0504,5.026,4.9584,4.9509,4.9509,4.9509,4.9377,4.9002,4.8251,4.8758,4.8739,4.7856,4.7181,4.6805,4.6805,4.6805,4.6861,4.7012,4.7012,4.739,4.8211,4.8313,4.8806,4.9657,4.9101,4.8865,1.4944,1.4979,1.5119,1.5875,1.6111,0.0,0.0,0.0,0.0,0.0,0.0,0.0,0.0,0.0,0.0,0.0,0.0,0.0,0.0,0.0,0.0,0.0,0.0,0.0,0.0,0.0,0.0,0.0,0.0,0.0,0.0,0.0,3.4969,3.6207,3.5897,3.5916,3.6342,3.7174,3.7367,3.6922,3.8257,3.9108,3.9526,4.0404,4.1003,4.1371,0.0,4.2686,4.3924,4.4291,4.4968,4.58,4.58,4.58,4.58,4.58,4.58,4.58,4.58,4.58,4.5935,4.6825,4.7424,4.8043,4.932,4.9997,5.0442,5.0809,5.0906,5.0906,5.0906,5.0906,5.0906,5.0906,5.0906,5.0906,5.0906,5.0906,5.1041,5.1505,5.1182,5.1123,5.1964,5.168,5.1198,5.0767,5.0691,5.041,4.9602,4.9509,4.9509,4.9509,4.9884,4.9809,4.8964,4.9659,4.9584,4.8269,4.7838,4.765,4.765,4.765,4.7886,4.8445,4.8445,4.8701,4.9201,4.9364,4.9632,5.0089,4.9849,4.9748,1.4859,1.4876,1.5048,0.0,0.0,0.0,0.0,0.0,0.0,0.0,0.0,0.0,0.0,0.0,0.0,0.0,0.0,0.0,0.0,0.0,0.0,0.0,0.0,0.0,0.0,0.0,0.0,0.0,0.0,0.0,0.0,0.0,3.4601,3.5085,3.5085,3.5394,3.5994,3.7077,3.758,3.7522,3.8856,3.9623,3.9835,4.05,4.079,4.081,4.1003,4.1932,4.3324,4.3518,4.4465,4.58,4.5814,4.5814,4.5814,4.5814,4.5916,4.6071,4.5858,4.5916,4.6206,4.6883,4.7695,4.8566,4.9436,5.0268,5.0906,5.0906,5.0906,5.0906,5.0906,5.0906,5.0906,5.0906,5.0906,5.0906,5.0906,5.0906,5.1157,5.2028,5.1778,5.173,5.2805,5.255,5.1931,5.1086,5.0973,5.0691,4.9884,4.9621,4.9565,4.9753,5.0316,5.0447,4.9828,5.0335,5.0147,4.887,4.8776,4.8776,4.8776,4.8964,4.9356,4.9975,4.9975,4.9967,4.9952,5.0057,5.0108,5.0158,5.0255,5.0302,1.4904,1.4942,1.5152,1.5847,0.0,0.0,0.0,0.0,0.0,0.0,0.0,0.0,0.0,0.0,0.0,0.0,0.0,0.0,0.0,0.0,0.0,0.0,0.0,0.0,0.0,0.0,0.0,0.0,0.0,0.0,0.0,0.0,0.0,3.3314,3.3295,3.3314,3.3372,3.5046,3.7038,3.9313,3.9449,3.9932,4.0713,4.0771,4.079,4.0829,4.1583,4.2434,4.3363,4.4175,4.5026,4.5814,4.586,4.5893,4.5893,4.5814,4.6303,4.6883,4.6071,4.6322,4.7018,4.7076,4.7695,4.8566,4.9436,5.0268,5.0906,5.0906,5.0906,5.0906,5.0906,5.0906,5.0906,5.0906,5.0906,5.0906,5.0906,5.0906,5.1157,5.2028,5.1778,5.1902,5.3525,5.3421,5.2794,5.1949,5.1818,5.1518,5.071,4.9959,4.979,5.0522,5.0654,5.0673,5.0616,5.0654,5.0635,5.0522,5.0504,5.0504,5.0504,5.1236,5.1375,5.0813,5.0824,5.0572,5.0082,5.0108,5.0158,5.0278,5.0302,5.0302,1.4944,1.4973,1.5186,0.0,0.0,0.0,0.0,0.0,0.0,0.0,0.0,0.0,0.0,0.0,0.0,0.0,0.0,0.0,0.0,0.0,0.0,0.0,0.0,0.0,0.0,0.0,0.0,0.0,0.0,0.0,0.0,0.0,0.0,3.3082,3.3102,3.3634,3.4717,3.5375,3.6709,3.8702,3.9243,3.9681,4.001,4.0544,4.0796,4.081,4.1125,4.2054,4.3402,4.3718,4.466,4.586,4.5893,4.586,4.5847,4.586,4.604,4.6245,4.5896,4.6361,4.7096,4.7096,4.8063,4.9262,4.961,5.0268,5.0906,5.0906,5.0906,5.0906,5.0906,5.0906,5.0906,5.0906,5.0906,5.1061,5.1583,5.1718,5.2124,5.3536,5.3353,5.3334,5.4524,5.4273,5.347,5.2118,5.2362,5.2212,5.086,5.0429,5.0541,5.1367,5.1442,5.1668,5.2193,5.1762,5.1442,5.1442,5.0973,5.0917,5.1424,5.1255,5.1362,5.184,5.0818,5.0521,5.1032,5.0498,5.0255,5.0302,5.0302,5.0302,1.4984,1.5221,1.5575,0.0,0.0,0.0,0.0,0.0,0.0,0.0,0.0,0.0,0.0,0.0,0.0,0.0,0.0,0.0,0.0,0.0,0.0,0.0,0.0,0.0,0.0,0.0,0.0,0.0,0.0,0.0,0.0,0.0,0.0,0.0,3.2812,3.3673,3.4872,3.5143,3.6129,3.7812,3.8392,3.8972,3.9526,4.013,4.0537,4.0796,4.08,4.178,4.3388,4.3388,4.4408,4.5932,4.5919,4.5867,4.5841,4.5887,4.6048,4.6215,4.5944,4.6582,4.7458,4.7192,4.8275,4.9707,4.9707,5.0268,5.0906,5.0906,5.0906,5.0906,5.0906,5.0906,5.0983,5.1254,5.1312,5.1544,5.2414,5.2608,5.3033,5.4523,5.4397,5.4293,5.5084,5.4836,5.4016,5.2545,5.2813,5.2775,5.163,5.1236,5.1386,5.2212,5.2306,5.255,5.3132,5.2644,5.2306,5.2306,5.178,5.1724,5.2287,5.2024,5.2134,5.271,5.1632,5.1201,5.149,5.0966,5.0569,5.0302,5.0588,5.0703,1.5027,1.5692,0.0,0.0,0.0,0.0,0.0,0.0,0.0,0.0,0.0,0.0,0.0,0.0,0.0,0.0,0.0,0.0,0.0,0.0,0.0,0.0,0.0,0.0,0.0,0.0,0.0,0.0,0.0,0.0,0.0,0.0,0.0,0.0,3.2222,3.3082,3.3082,3.3944,3.522,3.6884,3.6884,3.7812,3.9507,3.9491,3.9987,4.08,4.0796,4.1795,4.3404,4.3424,4.4436,4.5991,4.5917,4.5886,4.5905,4.5886,4.6455,4.7055,4.6203,4.6997,4.8241,4.7381,4.8295,4.9707,4.9707,5.0268,5.0906,5.0906,5.0906,5.0906,5.0906,5.0906,5.1119,5.197,5.2182,5.2434,5.3304,5.3498,5.3768,5.4639,5.4593,5.4578,5.5109,5.4971,5.442,5.3367,5.3188,5.3188,5.3188,5.2456,5.225,5.3095,5.3188,5.3188,5.3188,5.3188,5.3188,5.3188,5.3188,5.3188,5.3188,5.3958,5.4063,5.3415,5.3543,5.2836,5.1345,5.1509,5.1181,5.034,5.1219,5.162,1.5075,1.5721,0.0,0.0,0.0,0.0,0.0,0.0,0.0,0.0,0.0,0.0,0.0,0.0,0.0,0.0,0.0,0.0,0.0,0.0,0.0,0.0,0.0,0.0,0.0,0.0,0.0,0.0,0.0,0.0,0.0,0.0,0.0,0.0,3.1081,3.1603,3.2184,3.3093,3.409,3.5155,3.5756,3.7276,3.9507,3.9553,4.0029,4.08,4.0856,4.1828,4.3497,4.4719,4.5526,4.5991,4.5991,4.5949,4.5917,4.5949,4.6092,4.6261,4.5984,4.6629,4.7616,4.7903,4.8778,4.9803,5.0384,5.0712,5.0906,5.0906,5.0906,5.0906,5.0906,5.0906,5.0983,5.1215,5.1757,5.2434,5.3304,5.3981,5.4658,5.549,5.5282,5.5006,5.518,5.4817,5.4223,5.3334,5.3677,5.3827,5.3264,5.347,5.3545,5.3207,5.3695,5.4033,5.4033,5.4033,5.4033,5.4033,5.4033,5.4033,5.4033,5.3714,5.3828,5.4432,5.3337,5.2929,5.329,5.2704,5.2308,5.2059,5.2327,5.2442,1.4111,0.0,0.0,0.0,0.0,0.0,0.0,0.0,0.0,0.0,0.0,0.0,0.0,0.0,0.0,0.0,0.0,0.0,0.0,0.0,0.0,0.0,0.0,0.0,0.0,0.0,0.0,0.0,0.0,0.0,0.0,0.0,0.0,0.0,3.0559,3.1313,3.1797,3.2697,3.3577,3.441,3.4962,3.6386,3.8523,3.8907,3.9538,4.035,4.1101,4.2189,4.3548,4.4946,4.5703,4.5994,4.5994,4.5972,4.5929,4.5983,4.5972,4.5949,4.5912,4.6481,4.7281,4.7729,4.8701,4.9784,5.0287,5.0654,5.0906,5.0906,5.0906,5.0906,5.0906,5.0906,5.1003,5.1331,5.1815,5.2531,5.3749,5.4426,5.5045,5.5838,5.5649,5.5317,5.5218,5.4847,5.4369,5.3766,5.409,5.4221,5.3733,5.409,5.4202,5.3714,5.4108,5.4409,5.4409,5.4409,5.4409,5.4409,5.4409,5.4409,5.4409,5.3921,5.4016,5.4773,5.3867,5.3594,5.4027,5.3544,5.3129,5.2805,5.3148,5.332,0.0,0.0,0.0,0.0,0.0,0.0,0.0,0.0,0.0,0.0,0.0,0.0,0.0,0.0,0.0,0.0,0.0,0.0,0.0,0.0,0.0,0.0,0.0,0.0,0.0,0.0,0.0,0.0,0.0,0.0,0.0,0.0,0.0,2.8053,3.0327,3.1565,3.1565,3.2513,3.3384,0.0,3.44,3.5301,3.6794,3.7754,3.8704,3.9714,4.1442,4.2694,4.3569,4.4443,4.5258,4.5997,4.5997,4.6005,4.6003,4.5986,4.6005,4.5991,4.5929,4.6441,4.7088,4.7119,4.8232,4.9591,4.9668,5.0268,5.0906,5.0906,5.0906,5.0906,5.0906,5.0906,5.1099,5.1892,5.2144,5.2647,5.431,5.4735,5.5045,5.5821,5.575,5.5477,5.5218,5.4943,5.4673,5.4424,5.4409,5.4409,5.4409,5.4409,5.4409,5.4409,5.4409,5.4409,5.4409,5.4409,5.4409,5.4409,5.4409,5.4409,5.4409,5.4409,5.4472,5.4629,5.4822,5.4629,5.4028,5.4167,5.3817,5.3053,5.3855,5.4218,0.0,0.0,0.0,0.0,0.0,0.0,0.0,0.0,0.0,0.0,0.0,0.0,0.0,0.0,0.0,0.0,0.0,0.0,0.0,0.0,0.0,0.0,0.0,0.0,0.0,0.0,0.0,0.0,0.0,0.0,0.0,0.0,0.0,2.8014,2.9212,2.9851,2.9843,3.1379,3.2249,0.0,3.3843,3.4695,3.5083,3.6647,3.82,3.9772,4.1471,4.2694,4.3569,4.4443,4.5258,4.5997,4.5997,4.5997,4.5997,4.5997,4.5997,4.6005,4.5972,4.6096,4.6368,4.6978,4.7862,4.8803,4.95,5.0264,5.0906,5.0906,5.0906,5.0906,5.0906,5.0906,5.0964,5.1138,5.1699,5.2492,5.3556,5.431,5.4974,5.5576,5.5477,5.5193,5.4933,5.4642,5.4491,5.439,5.4409,5.4409,5.4409,5.4409,5.4409,5.4409,5.4409,5.4409,5.4409,5.4409,5.4409,5.4409,5.4409,5.4409,5.4409,5.4409,5.4557,5.4822,5.4871,5.4971,5.5084,5.511,5.5021,5.4849,5.504,5.5116,0.0,0.0,0.0,0.0,0.0,0.0,0.0,0.0,0.0,0.0,0.0,0.0,0.0,0.0,0.0,0.0,0.0,0.0,0.0,0.0,0.0,0.0,0.0,0.0,0.0,0.0,0.0,0.0,0.0,0.0,0.0,2.8189,2.8294,2.7442,2.864,2.9317,2.9356,3.0261,3.1111,3.1906,3.285,3.372,3.4575,3.6742,3.8451,3.9781,4.1024,4.2306,4.3549,4.3996,4.4889,4.5997,4.5997,4.5997,4.5997,4.5997,4.5997,4.5997,4.6003,4.5991,4.6069,4.6441,4.714,4.7984,4.8817,4.9659,5.0422,5.079,5.0906,5.0906,5.0906,5.0906,5.0906,5.0906,5.1563,5.2318,5.2782,5.3884,5.4838,5.4995,5.5116,5.5115,5.4866,5.4584,5.4409,5.4409,5.4409,5.4409,5.4409,5.4409,5.4409,5.4409,5.4409,5.4409,5.4409,5.4409,5.4409,5.4409,5.4409,5.4409,5.4409,5.4409,5.4557,5.4901,5.4901,5.5047,5.5403,5.5403,5.5403,5.5403,5.5403,5.5403,0.0,0.0,0.0,0.0,0.0,0.0,0.0,0.0,0.0,0.0,0.0,0.0,0.0,0.0,0.0,0.0,0.0,0.0,0.0,0.0,0.0,0.0,0.0,0.0,0.0,0.0,0.0,0.0,0.0,0.0,2.6528,2.7995,2.8158,2.6626,2.8222,2.9043,2.8943,2.9094,2.9943,3.1476,3.1984,3.3021,3.4595,3.7197,3.879,3.9528,4.0499,4.1898,4.351,4.351,4.4481,4.5997,4.5997,4.5997,4.5997,4.5997,4.5997,4.5997,4.5994,4.6003,4.6003,4.5929,4.6494,4.732,4.7998,4.8905,4.9842,5.0519,5.079,5.0906,5.0906,5.0906,5.0906,5.0906,5.1563,5.2202,5.2202,5.344,5.4512,5.4336,5.4713,5.4998,5.4776,5.4552,5.4409,5.4409,5.4409,5.4409,5.4409,5.4409,5.4409,5.4409,5.4409,5.4409,5.4409,5.4409,5.4409,5.4409,5.4409,5.4409,5.4409,5.4409,5.4557,5.4901,5.4901,5.5066,5.5332,5.5377,5.5403,5.5403,5.5403,5.5403,0.0,0.0,0.0,0.0,0.0,0.0,0.0,0.0,0.0,0.0,0.0,0.0,0.0,0.0,0.0,0.0,0.0,0.0,0.0,0.0,0.0,0.0,0.0,0.0,0.0,0.0,0.0,0.0,0.0,0.0,2.5666,2.6606,2.6699,2.5689,2.7353,2.7891,2.7159,2.7898,2.8779,2.9761,3.2043,3.3604,3.4595,3.7197,3.846,3.8654,4.0228,4.1898,4.351,4.351,4.4481,4.5997,4.5997,4.5997,4.5997,4.5997,4.5997,4.5997,4.5997,4.5997,4.5997,4.5986,4.6535,4.7211,4.7327,4.8468,4.9726,4.9842,5.0364,5.0906,5.0906,5.0906,5.0906,5.0906,5.1563,5.2202,5.2202,5.2975,5.3723,5.392,5.4248,5.4505,5.4458,5.4424,5.4409,5.4409,5.4409,5.4409,5.4409,5.4409,5.4409,5.4409,5.4409,5.4409,5.4409,5.4409,5.4409,5.4409,5.4409,5.4409,5.4409,5.4409,5.4557,5.4901,5.4901,5.499,5.514,5.5332,5.5403,5.5403,5.5403,5.5403,0.0,0.0,0.0,0.0,0.0,0.0,0.0,0.0,0.0,0.0,0.0,0.0,0.0,0.0,0.0,0.0,0.0,0.0,0.0,0.0,0.0,0.0,0.0,0.0,0.0,0.0,0.0,0.0,0.0,2.5511,2.5511,2.6335,2.6408,2.5536,2.6727,2.7207,2.6864,2.7239,2.8094,2.9433,3.2043,3.3487,3.3934,3.7003,3.8402,3.8479,4.0169,4.1898,4.351,4.351,4.4481,4.5997,4.5997,4.5997,4.5997,4.5997,4.5997,4.5997,4.5997,4.5997,4.5997,4.5997,4.6216,4.6564,4.7049,4.8023,4.9068,4.9571,5.0287,5.0906,5.0906,5.0906,5.0906,5.0906,5.1563,5.2202,5.2202,5.2879,5.3569,5.3853,5.38,5.3864,5.4315,5.4409,5.4409,5.4409,5.4409,5.4409,5.4409,5.4409,5.4409,5.4409,5.4409,5.4409,5.4409,5.4409,5.4409,5.4409,5.4409,5.4409,5.4409,5.4409,5.4505,5.4711,5.4822,5.5019,5.526,5.5816,5.6071,5.6071,5.6071,5.6071,0.0,0.0,0.0,0.0,0.0,0.0,0.0,0.0,0.0,0.0,0.0,0.0,0.0,0.0,0.0,0.0,0.0,0.0,0.0,0.0,0.0,0.0,0.0,0.0,0.0,0.0,0.0,0.0,0.0,2.5511,2.5511,2.6115,2.6176,2.5511,2.6152,2.6521,2.6572,2.6786,2.7621,2.9097,3.172,3.3099,3.341,3.6615,3.8188,3.8479,4.0169,4.1762,4.3199,4.3413,4.4365,4.5725,4.5919,4.5997,4.5997,4.5997,4.5997,4.5997,4.5997,4.5997,4.5997,4.5997,4.5944,4.606,4.6933,4.7616,4.8295,4.9397,5.0132,5.0654,5.0848,5.0906,5.0906,5.0906,5.1409,5.1973,5.2365,5.3047,5.3647,5.3767,5.3626,5.3695,5.4296,5.4409,5.4409,5.4409,5.4409,5.4409,5.4409,5.4409,5.4409,5.4409,5.4409,5.4409,5.4409,5.4409,5.4409,5.4409,5.4409,5.4409,5.4409,5.4597,5.4758,5.4937,5.529,5.5378,5.5279,5.608,5.6461,5.648,5.669,5.6813,0.0,0.0,0.0,0.0,0.0,0.0,0.0,0.0,0.0,0.0,0.0,0.0,0.0,0.0,0.0,0.0,0.0,0.0,0.0,0.0,0.0,0.0,0.0,0.0,0.0,0.0,0.0,0.0,0.0,2.5511,2.5511,2.5529,2.555,2.5499,2.5602,2.5659,2.5679,2.6495,2.733,2.8197,3.0819,3.2497,3.339,3.5993,3.7625,3.8479,4.0169,4.1412,4.2325,4.3161,4.4035,4.4948,4.5705,4.5997,4.5997,4.5997,4.5997,4.5997,4.5997,4.5997,4.5997,4.5997,4.5944,4.606,4.6933,4.7171,4.7521,4.9223,4.9726,4.9939,5.0712,5.0906,5.0906,5.0906,5.0945,5.136,5.2762,5.3491,5.3798,5.3575,5.3962,5.4352,5.439,5.4409,5.4409,5.4409,5.4409,5.4409,5.4409,5.4409,5.4409,5.4409,5.4409,5.4409,5.4409,5.4409,5.4409,5.4409,5.4409,5.4409,5.4409,5.5141,5.5623,5.5842,5.6578,5.6298,5.4931,5.5746,5.6144,5.6144,5.691,5.7362,0.0,0.0,0.0,0.0,0.0,0.0,0.0,0.0,0.0,0.0,0.0,0.0,0.0,0.0,0.0,0.0,0.0,0.0,0.0,0.0,0.0,0.0,0.0,0.0,0.0,0.0,0.0,0.0,0.0,0.0,2.5511,2.549,2.5499,2.5499,2.5564,2.5601,2.5601,2.6456,2.7291,2.812,3.0185,3.1914,3.3371,3.5352,3.7042,3.846,3.9625,4.0927,4.2267,4.3141,4.3685,4.4093,4.5472,4.5686,4.5297,4.5802,4.5997,4.5997,4.5997,4.5997,4.5997,4.5997,4.5944,4.5963,4.6273,4.6706,4.7347,4.8527,4.9262,4.99,5.0693,5.0906,5.0906,5.0906,5.1194,5.1722,5.2644,5.2547,5.238,5.2656,5.3227,5.3789,5.4315,5.4409,5.4409,5.4409,5.4409,5.4409,5.4409,5.4409,5.4409,5.4409,5.4409,5.4409,5.4409,5.4409,5.4409,5.4409,5.4409,5.4634,5.516,5.546,5.5924,5.6673,5.6892,5.679,5.6424,5.7308,5.7706,5.7725,5.7996,5.8223,0.0,0.0,0.0,0.0,0.0,0.0,0.0,0.0,0.0,0.0,0.0,0.0,0.0,0.0,0.0,0.0,0.0,0.0,0.0,0.0,0.0,0.0,0.0,0.0,0.0,0.0,0.0,0.0,0.0,0.0,2.5499,2.5498,2.5499,2.5531,2.557,2.5601,2.5601,2.6164,2.7019,2.812,2.9564,3.1331,3.3351,3.473,3.6479,3.8421,3.9004,4.0208,4.182,4.2694,4.3063,4.3238,4.4928,4.5258,4.4889,4.5705,4.5997,4.5997,4.5997,4.5997,4.5997,4.5997,4.5964,4.5987,4.6247,4.6506,4.6994,4.843,4.9049,4.9513,5.0616,5.0906,5.089,5.0825,5.1105,5.1544,5.2062,5.2158,5.2308,5.2889,5.3333,5.377,5.4315,5.4409,5.4409,5.4409,5.4409,5.4409,5.4409,5.4409,5.4409,5.4409,5.4409,5.4409,5.4409,5.4409,5.4521,5.4803,5.4803,5.5047,5.5592,5.6155,5.6622,5.7024,5.7484,5.7783,5.7966,5.8287,5.8419,5.8438,5.8703,5.8968,0.0,0.0,0.0,0.0,0.0,0.0,0.0,0.0,0.0,0.0,0.0,0.0,0.0,0.0,0.0,0.0,0.0,0.0,0.0,0.0,0.0,0.0,0.0,0.0,0.0,0.0,0.0,0.0,0.0,2.5495,2.5495,2.5505,2.5531,2.5601,2.5601,2.5601,2.5601,2.5601,2.6436,2.81,2.8961,3.0749,3.3332,3.4109,3.5896,3.8402,3.8402,3.9353,4.0966,4.184,4.217,4.2345,4.4112,4.4773,4.4851,4.5686,4.5997,4.5997,4.5997,4.5997,4.5997,4.5997,4.6005,4.6147,4.6926,4.6558,4.6435,4.8948,4.9049,4.8798,5.0461,5.089,5.0839,5.0663,5.0587,5.0675,5.1049,5.2419,5.3713,5.4251,5.4371,5.4409,5.4409,5.4409,5.4409,5.4409,5.4409,5.4409,5.4409,5.4409,5.4409,5.4409,5.4409,5.4409,5.4409,5.4428,5.4766,5.5573,5.5629,5.5667,5.5685,5.7244,5.7751,5.6981,5.8502,5.929,5.929,5.852,5.8145,5.8164,5.8933,5.9526,1.6103,0.0,0.0,0.0,0.0,0.0,0.0,0.0,0.0,0.0,0.0,0.0,0.0,0.0,0.0,0.0,0.0,0.0,0.0,0.0,0.0,0.0,0.0,0.0,0.0,0.0,0.0,0.0,2.5505,2.5505,2.5505,2.5544,2.5583,2.5601,2.5601,2.5601,2.5601,2.5601,2.6436,2.81,2.8333,3.0166,3.3313,3.3526,3.5371,3.8402,3.8402,3.9353,4.0966,4.184,4.182,4.149,4.386,4.4404,4.4035,4.5472,4.5964,4.5937,4.5975,4.5983,4.5937,4.5975,4.6005,4.603,4.6208,4.6093,4.63,4.8232,4.8585,4.8798,5.0461,5.0789,5.0682,5.0606,5.0298,5.0368,5.1689,5.2186,5.2604,5.3391,5.3996,5.4409,5.4409,5.4409,5.4409,5.4409,5.4409,5.4409,5.4409,5.4409,5.4409,5.4409,5.4409,5.4409,5.4409,5.4934,5.5366,5.561,5.6192,5.6812,5.7394,5.7863,5.8276,5.8633,5.9065,5.929,5.929,5.9084,5.8971,5.8971,5.9484,5.9834,0.0,0.0,0.0,0.0,0.0,0.0,1.9218,1.8962,1.8667,0.0,0.0,0.0,0.0,0.0,0.0,0.0,0.0,0.0,0.0,0.0,0.0,0.0,0.0,0.0,0.0,0.0,0.0,2.5544,2.5544,2.5544,2.5544,2.5577,2.5589,2.5601,2.5601,2.5601,2.5601,2.5601,2.6436,2.81,2.81,2.9732,3.2769,3.3138,3.4769,3.7353,3.8071,3.9159,4.0461,4.1315,4.1354,4.1121,4.3374,4.3917,4.3621,4.532,4.5925,4.5906,4.5949,4.5949,4.5949,4.5986,4.6005,4.5983,4.5929,4.6145,4.672,4.8019,4.8848,4.9536,5.052,5.0587,5.0404,5.0298,5.0019,5.0136,5.1355,5.1757,5.2268,5.347,5.4071,5.4409,5.4409,5.4409,5.4409,5.4409,5.4409,5.4409,5.4409,5.4409,5.4409,5.4409,5.4409,5.4409,5.4409,5.5141,5.5779,5.6136,5.6943,5.7619,5.8089,5.8427,5.8671,5.8802,5.914,5.929,5.929,5.929,5.9327,5.9419,5.9685,5.9899,0.0,0.0,0.0,0.0,0.0,0.0,1.7633,1.7127,1.6484,0.0,0.0,0.0,0.0,0.0,0.0,0.0,0.0,0.0,0.0,0.0,0.0,0.0,0.0,0.0,0.0,2.5532,2.5595,2.5602,2.5602,2.5602,2.5596,2.5595,2.5601,2.5601,2.5601,2.5601,2.5601,2.5601,2.6436,2.81,2.81,2.9518,3.2166,3.2943,3.4264,3.6051,3.7683,3.8887,3.9761,4.0577,4.0907,4.1063,4.2801,4.3408,4.3518,4.5254,4.5893,4.588,4.5906,4.5949,4.5986,4.5986,4.5986,4.5975,4.5873,4.6448,4.7332,4.8207,4.9467,5.0547,5.0547,5.0361,5.0111,4.9857,4.9776,4.9939,5.0548,5.133,5.2381,5.3958,5.4334,5.4409,5.4409,5.4409,5.4409,5.4409,5.4409,5.4409,5.4409,5.4409,5.4409,5.4409,5.4409,5.4409,5.4409,5.5235,5.608,5.6849,5.7751,5.8239,5.8239,5.8915,5.8971,5.8258,5.8933,5.929,5.929,5.929,5.94,5.9631,5.9631,5.9834,0.0,0.0,0.0,0.0,0.0,0.0,1.9871,1.9756,1.9621,0.0,0.0,0.0,0.0,0.0,0.0,0.0,0.0,0.0,0.0,0.0,0.0,0.0,0.0,0.0,0.0,2.5199,2.5601,2.5595,2.5595,2.5589,2.5596,2.5595,2.5601,2.5601,2.5601,2.5601,2.5601,2.5601,2.6436,2.81,2.81,2.9836,3.306,3.3215,3.4595,3.6906,3.7955,3.8887,3.9761,4.0577,4.0907,4.1053,4.2707,4.3318,4.3518,4.5254,4.5819,4.5757,4.5929,4.596,4.5932,4.5932,4.5932,4.5874,4.5571,4.6103,4.7087,4.8409,4.9513,5.0275,5.0275,5.0068,4.9865,4.9811,4.9665,4.9789,5.0535,5.133,5.2193,5.3226,5.3958,5.4409,5.4409,5.4409,5.4409,5.4409,5.4409,5.4409,5.4409,5.4409,5.4409,5.4409,5.4409,5.4409,5.4409,5.5779,5.6718,5.6887,5.8258,5.9065,5.9065,5.9215,5.9234,5.9065,5.9215,5.929,5.929,5.929,5.9491,5.9853,5.9853,6.0013,0.0,0.0,0.0,1.9858,0.0,0.0,0.0,1.8548,1.8189,0.0,0.0,0.0,0.0,0.0,0.0,0.0,0.0,0.0,0.0,0.0,0.0,0.0,0.0,0.0,0.0,2.4436,2.5135,2.5562,2.5601,2.5595,2.5609,2.5595,2.5601,2.5601,2.5601,2.5601,2.5601,2.5601,2.6436,2.81,2.81,2.9693,3.2672,3.3099,3.4225,3.5896,3.7644,3.8654,3.9159,4.0383,4.116,4.1675,4.2838,4.3531,4.3998,4.5327,4.5761,4.5712,4.5827,4.5827,4.5791,4.5791,4.5791,4.5742,4.549,4.6244,4.7448,4.8624,4.9463,4.9993,4.9993,4.9822,4.9655,4.9655,4.9574,4.9602,5.0016,5.1048,5.2024,5.2475,5.3545,5.4409,5.4409,5.4409,5.4409,5.4409,5.4409,5.4409,5.4409,5.4409,5.4409,5.4409,5.4409,5.4409,5.4409,5.593,5.6887,5.6887,5.8408,5.929,5.929,5.929,5.929,5.929,5.929,5.929,5.929,5.929,5.9455,5.9753,5.9853,6.0045,0.0,0.0,0.0,0.0,0.0,1.9959,0.0,0.0,0.0,0.0,0.0,0.0,0.0,0.0,0.0,0.0,0.0,0.0,0.0,0.0,0.0,0.0,0.0,0.0,0.0,2.3698,2.4663,2.5523,2.5601,2.5601,2.5601,2.5601,2.5601,2.5601,2.5601,2.5679,2.5854,2.5854,2.6689,2.8353,2.8353,2.9712,3.2264,3.2982,3.3915,3.5119,3.7411,3.8499,3.8771,4.0286,4.15,4.247,4.3071,4.3775,4.4553,4.5387,4.57,4.57,4.57,4.57,4.57,4.5684,4.5616,4.5584,4.5534,4.6502,4.7762,4.8619,4.9283,4.974,4.974,4.9596,4.9509,4.9509,4.9509,4.9509,4.9509,5.0767,5.1912,5.1912,5.3245,5.4409,5.4409,5.4409,5.4409,5.4409,5.4409,5.4409,5.4409,5.4409,5.4409,5.4409,5.4409,5.4409,5.4409,5.593,5.6887,5.6887,5.8408,5.929,5.929,5.929,5.929,5.929,5.929,5.929,5.929,5.929,5.9419,5.9597,5.9753,5.9931,0.0,0.0,0.0,0.0,1.9929,0.0,0.0,0.0,0.0,0.0,0.0,0.0,0.0,0.0,0.0,0.0,0.0,0.0,0.0,0.0,0.0,0.0,0.0,0.0,0.0,0.0,2.4663,2.5523,2.5601,2.5601,2.5601,2.5601,2.5601,2.5601,2.5601,2.597,2.6747,2.6747,2.7582,2.9253,2.9253,3.0613,3.3157,3.3254,3.4575,3.6867,3.7935,3.8829,3.9625,4.0538,4.1789,4.3182,4.3266,4.3828,4.4672,4.5418,4.57,4.57,4.57,4.57,4.5684,4.5566,4.5361,4.5284,4.5851,4.6594,4.738,4.8097,4.8886,4.9532,4.9532,4.9521,4.9509,4.9509,4.9509,4.9509,4.9509,5.0767,5.1912,5.1912,5.3245,5.4409,5.4409,5.4409,5.4409,5.4409,5.4409,5.4409,5.4409,5.4409,5.4409,5.4409,5.4409,5.4409,5.4409,5.593,5.6887,5.6887,5.8408,5.929,5.929,5.929,5.929,5.929,5.929,5.929,5.929,5.929,5.9419,5.9616,5.9597,5.9801,0.0,0.0,0.0,0.0,0.0,0.0,0.0,0.0,2.1285,0.0,0.0,0.0,0.0,0.0,0.0,0.0,0.0,0.0,0.0,0.0,0.0,0.0,0.0,0.0,0.0,0.0,0.0,0.0,0.0,2.5601,2.5601,2.5601,2.5834,2.6339,2.6339,2.6747,2.7582,2.7602,2.8204,2.9408,2.9408,3.0768,3.3293,3.3293,3.4692,3.7159,3.8013,3.885,3.9654,4.0539,4.1556,4.2601,4.3092,4.4078,4.5293,4.5596,4.5651,4.5565,4.5565,4.5531,4.5438,4.532,4.5194,4.5137,4.5262,4.6172,4.7222,4.7435,4.8476,4.9509,4.9509,4.9509,4.9509,4.9509,4.9509,4.9509,4.9509,5.0391,5.133,5.1818,5.2869,5.3846,5.4315,5.4409,5.4409,5.4409,5.4409,5.4409,5.4409,5.4409,5.4409,5.4409,5.4409,5.4409,5.4409,5.5479,5.6361,5.6868,5.8408,5.929,5.929,5.929,5.929,5.929,5.929,5.929,5.929,5.929,5.9327,5.9419,5.9526,5.9666,2.0188,0.0,0.0,0.0,0.0,0.0,0.0,0.0,0.0,0.0,0.0,0.0,0.0,0.0,0.0,0.0,0.0,0.0,0.0,0.0,0.0,0.0,0.0,0.0,0.0,0.0,0.0,0.0,0.0,0.0,2.5582,2.5601,2.5892,2.6514,2.6786,2.7291,2.8081,2.8333,2.8884,2.9758,3.001,3.1234,3.3313,3.3779,3.5255,3.7508,3.8345,3.9131,3.9929,4.0828,4.164,4.2389,4.3305,4.4462,4.5651,4.5651,4.5565,4.5495,4.5457,4.538,4.5297,4.5192,4.5148,4.5084,4.484,4.5935,4.7221,4.7051,4.8213,4.9509,4.9509,4.9509,4.9509,4.9509,4.9509,4.9509,4.9509,5.0316,5.1198,5.1799,5.2775,5.3695,5.4296,5.4409,5.4409,5.4409,5.4409,5.4409,5.4409,5.4409,5.4409,5.4409,5.4409,5.4409,5.4409,5.5141,5.608,5.7169,5.852,5.929,5.929,5.929,5.929,5.929,5.929,5.929,5.929,5.929,5.929,5.929,5.9455,5.9526,0.0,0.0,0.0,2.0427,0.0,0.0,0.0,0.0,2.183,0.0,0.0,0.0,0.0,0.0,0.0,0.0,0.0,0.0,0.0,0.0,0.0,0.0,0.0,0.0,0.0,0.0,0.0,0.0,0.0,0.0,2.5543,2.5601,2.5621,2.564,2.6456,2.7291,2.8081,2.8942,2.9797,3.0671,3.1506,3.24,3.3351,3.4983,3.6692,3.8402,3.914,3.9968,4.082,4.1633,4.2396,4.3149,4.4169,4.4939,4.5513,4.5513,4.5513,4.5476,4.5339,4.5297,4.5297,4.5297,4.5297,4.5235,4.4967,4.6045,4.7337,4.708,4.8213,4.9509,4.9509,4.9509,4.9509,4.9509,4.9509,4.9509,4.9509,5.0748,5.1874,5.1893,5.3226,5.4371,5.4409,5.4409,5.4409,5.4409,5.4409,5.4409,5.4409,5.4409,5.4409,5.4409,5.4409,5.4409,5.4409,5.5141,5.6324,5.7976,5.884,5.929,5.929,5.929,5.929,5.929,5.929,5.929,5.929,5.929,5.929,5.929,5.9309,5.9419,0.0,0.0,2.2688,2.192,0.0,0.0,0.0,0.0,0.0,0.0,0.0,0.0,0.0,0.0,0.0,0.0,0.0,0.0,0.0,0.0,0.0,0.0,0.0,0.0,0.0,0.0,0.0,0.0,0.0,0.0,0.0,2.5601,2.5854,2.6436,2.7252,2.8107,2.8961,2.9816,3.069,3.1564,3.1856,3.2749,3.4128,3.5274,3.6705,3.8306,3.9146,4.028,4.155,4.1821,4.2391,4.3173,4.4013,4.4451,4.4708,4.5283,4.5438,4.536,4.5317,4.5297,4.5297,4.5192,4.5213,4.535,4.567,4.6544,4.7477,4.7834,4.8698,4.9509,4.9509,4.9509,4.9509,4.9509,4.9509,4.9659,5.0166,5.071,5.1424,5.2531,5.3207,5.377,5.4315,5.4409,5.4409,5.4409,5.4409,5.4409,5.4409,5.4409,5.4409,5.4409,5.4409,5.4409,5.4409,5.5667,5.6943,5.8032,5.8858,5.929,5.929,5.929,5.929,5.929,5.929,5.929,5.929,5.929,5.929,5.929,5.929,5.9346,2.2274,2.2978,0.0,2.2628,2.3076,0.0,2.3937,0.0,0.0,0.0,0.0,0.0,0.0,0.0,0.0,0.0,0.0,0.0,0.0,2.5317,0.0,0.0,0.0,0.0,0.0,0.0,0.0,0.0,0.0,0.0,0.0,0.0,2.5854,2.6417,2.7524,2.8372,2.8942,3.0108,3.1137,3.2004,3.2272,3.3117,3.4523,3.596,3.7179,3.8226,3.9329,4.0568,4.1859,4.2167,4.2752,4.3492,4.4323,4.4632,4.4653,4.5228,4.538,4.5297,4.5297,4.5297,4.5297,4.5192,4.5213,4.5407,4.5973,4.6752,4.7534,4.8155,4.8905,4.9509,4.9509,4.9509,4.9509,4.9509,4.9509,4.9715,5.0522,5.0917,5.1536,5.2926,5.3414,5.3789,5.4315,5.4409,5.4409,5.4409,5.4409,5.4409,5.4409,5.4409,5.4521,5.4803,5.4578,5.4409,5.4409,5.593,5.7112,5.7638,5.8708,5.929,5.929,5.929,5.944,5.976,5.9459,5.9459,5.976,5.9459,5.929,5.929,5.929,5.929]},{"header":{"parameterUnit":"m.s-1","parameterCategory":1,"la1":30.6,"la2":29.2853,"lo1":-89.7004,"lo2":-87.6739,"dy":0.0162,"dx":0.0183,"nx":112,"ny":82,"refTime":"2024-02-12T06:00:00:Z","depth":0,"parameterNumber":3,"parameterNumberName":"V-component_of_WINDS"},"data":[0.0,0.0,0.0,0.0,0.0,0.0,0.0,0.0,0.0,0.0,0.0,0.0,0.0,0.0,0.0,0.0,0.0,0.0,0.0,0.0,0.0,0.0,0.0,0.0,0.0,0.0,0.0,0.0,0.0,0.0,0.0,0.0,0.0,0.0,0.0,0.0,0.0,0.0,0.0,0.0,0.0,0.0,0.0,0.0,0.0,0.0,0.0,0.0,0.0,0.0,0.0,0.0,0.0,0.0,0.0,0.0,0.0,0.0,0.0,0.0,0.0,0.0,0.0,0.0,0.0,0.0,0.0,0.0,0.0,0.0,0.0,0.0,0.0,0.0,0.0,0.0,0.0,0.0,0.0,0.0,0.0,0.0,0.0,0.0,0.0,0.0,0.0,0.0,0.0,0.0,0.0,0.2352,0.2985,0.3411,0.3482,0.4002,0.4221,0.4036,0.0,0.0,0.0,0.0,0.0,0.0,0.0,0.0,0.0,0.0,0.0,0.0,0.0,0.0,0.0,0.0,0.0,0.0,0.0,0.0,0.0,0.0,0.0,0.0,0.0,0.0,0.0,0.0,0.0,0.0,0.0,0.0,0.0,0.0,0.0,0.0,0.0,0.0,0.0,0.0,0.0,0.0,0.0,0.0,0.0,0.0,0.0,0.0,0.0,0.0,0.0,0.0,0.0,0.0,0.0,0.0,0.0,0.0,0.0,0.0,0.0,0.0,0.0,0.0,0.0,0.0,0.0,0.0,0.0,0.0,0.0,0.0,0.0,0.0,0.0,0.0,0.0,0.0,0.0,0.0,0.0,0.0,0.0,0.0,0.0,0.0,0.0,0.0,0.0,0.0,0.0,0.0,0.0,0.0,0.0,0.0,0.0,0.0,0.0,0.0,0.0,0.0,0.0,0.0,0.2387,0.2709,0.3105,0.3439,0.3583,0.3828,0.399,0.4066,0.0,0.0,0.0,0.0,0.0,0.0,0.0,0.0,0.0,0.0,0.0,0.0,0.0,0.0,0.0,0.0,0.0,0.0,0.0,0.0,0.0,0.0,0.0,0.0,0.0,0.0,0.0,0.0,0.0,0.0,0.0,0.0,0.0,0.0,0.0,0.0,0.0,0.0,0.0,0.0,0.0,0.0,0.0,0.0,0.0,0.0,0.0,0.0,0.0,0.0,0.0,0.0,0.0,0.0,0.0,0.0,0.0,0.0,0.0,0.0,0.0,0.0,0.0,0.0,0.0,0.0,0.0,0.0,0.0,0.0,0.0,0.0,0.0,0.0,0.0,0.0,0.0,0.0,0.0,0.0,0.0,0.0,0.0,0.0,0.0,0.0,0.0,0.0,0.0,0.0,0.0,0.0,0.0,0.0,0.0,0.0,0.0,0.0,0.0,0.0,0.0,0.0,0.0,0.2287,0.2522,0.3134,0.3483,0.3874,0.4231,0.4227,0.4285,0.4492,0.4683,0.0,0.0,0.0,0.0,0.0,0.0,0.0,0.0,0.0,0.0,0.0,0.0,0.0,0.0,0.0,0.0,0.0,0.0,0.0,0.0,0.0,0.0,0.0,0.0,0.0,0.0,0.0,0.0,0.0,0.0,0.0,0.0,0.0,0.0,0.0,0.0,0.0,0.0,0.0,0.0,0.0,0.0,0.0,0.0,0.0,0.0,0.0,0.0,0.0,0.0,0.0,0.0,0.0,0.0,0.0,0.0,0.0,0.0,0.0,0.0,0.0,0.0,0.0,0.0,0.0,0.0,0.0,0.0,0.0,0.0,0.0,0.0,0.0,0.0,0.0,0.0,0.0,0.0,0.0,0.0,0.0,0.0,0.0,0.0,0.0,0.0,0.0,0.0,0.0,0.0,0.0,0.0,0.0,0.0,0.0,0.0,0.0,0.0,0.0,0.0,0.0,0.0,0.2356,0.2647,0.3425,0.382,0.4228,0.473,0.4588,0.4509,0.4735,0.463,0.0,0.0,0.0,0.0,0.0,0.0,0.0,0.0,0.0,0.0,0.0,0.0,0.0,0.0,0.0,0.0,0.0,0.0,0.0,0.0,0.0,0.0,0.0,0.0,0.0,0.0,0.0,0.0,0.0,0.0,0.0,0.0,0.0,0.0,0.0,0.0,0.0,0.0,0.0,0.0,0.0,0.0,0.0,0.0,0.0,0.0,0.0,0.0,0.0,0.0,0.0,0.0,0.0,0.0,0.0,0.0,0.0,0.0,0.0,0.0,0.0,0.0,0.0,0.0,0.0,0.0,0.0,0.0,0.0,0.0,0.0,0.0,0.0,0.0,0.0,0.0,0.0,0.0,0.0,0.0,0.0,0.0,0.0,0.0,0.0,0.0,0.0,0.0,0.0,0.0,0.0,0.0,0.0,0.0,0.0,0.0,0.0,0.0,0.0,0.0,0.0,0.0,0.2411,0.2672,0.3432,0.382,0.4193,0.4591,0.4416,0.4369,0.4505,0.4265,0.0,0.0,0.0,0.0,0.0,0.0,0.0,0.0,0.0,0.0,0.0,0.0,0.0,0.0,0.0,0.0,0.0,0.0,0.0,0.0,0.0,0.0,0.0,0.0,0.0,0.0,0.0,0.0,0.0,0.0,0.0,0.0,0.0,0.0,0.0,0.0,0.0,0.0,0.0,0.0,0.0,0.0,0.0,0.0,0.0,0.0,0.0,0.0,0.0,0.0,0.0,0.0,0.0,0.0,0.0,0.0,0.0,0.0,0.0,0.0,0.0,0.0,0.0,0.0,0.0,0.0,0.0,0.0,0.0,0.0,0.0,0.0,0.0,0.0,0.0,0.0,0.0,0.0,0.0,0.0,0.0,0.0,0.0,0.0,0.0,0.0,0.0,0.0,0.0,0.0,0.0,0.0,0.0,0.0,0.0,0.0,0.0,0.0,0.0,0.0,0.0,0.0,0.2666,0.3069,0.0,0.4166,0.4594,0.487,0.453,0.4438,0.4722,0.0,0.0,0.0,0.0,0.0,0.0,0.0,0.0,0.0,0.0,0.0,0.0,0.0,0.0,0.0,0.0,0.0,0.0,0.0,0.0,0.0,0.0,0.0,0.0,0.0,0.0,0.0,0.0,0.0,0.0,0.0,0.0,0.0,0.0,0.0,0.0,0.0,0.0,0.0,0.0,0.0,0.0,0.0,0.0,0.0,0.0,0.0,0.0,0.0,0.0,0.0,0.0,0.0,0.0,0.0,0.0,0.0,0.0,0.0,0.0,0.0,0.0,0.0,0.0,0.0,0.0,0.0,0.0,0.0,0.0,0.0,0.0,0.0,0.0,0.0,0.0,0.0,0.0,0.0,0.0,0.0,0.0,0.0,0.0,0.0,0.0,0.0,0.0,0.0,0.0,0.0,0.0,0.0,0.0,0.0,0.0,0.0,0.0,0.0,0.0,0.0,0.0,0.2434,0.2837,0.3308,0.0,0.4423,0.4794,0.4883,0.4563,0.4461,0.4727,0.0,0.0,0.0,0.0,0.0,0.0,0.0,0.0,0.0,0.0,0.0,0.0,0.0,0.0,0.0,0.0,0.0,0.0,0.0,0.0,0.0,0.0,0.0,0.0,0.0,0.0,0.0,0.0,0.0,0.0,0.0,0.0,0.0,0.0,0.0,0.0,0.0,0.0,0.0,0.0,0.0,0.0,0.0,0.0,0.0,0.0,0.0,0.0,0.0,0.0,0.0,0.0,0.0,0.0,0.0,0.0,0.0,0.0,0.0,0.0,0.0,0.0,0.0,0.0,0.0,0.0,0.0,0.0,0.0,0.0,0.0,0.0,0.0,0.0,0.0,0.0,0.0,0.0,0.0,0.0,0.0,0.0,0.0,0.0,0.0,0.0,0.0,0.0,0.0,0.0,0.0,0.0,0.0,0.0,0.0,0.0,0.0,0.0,0.0,0.0,0.0,0.0,0.2572,0.2882,0.3359,0.3938,0.4485,0.4723,0.4529,0.4435,0.4386,0.0,0.0,0.0,0.0,0.0,0.0,0.0,0.0,0.0,0.0,0.0,0.0,0.0,0.0,0.0,0.0,0.0,0.0,0.0,0.0,0.0,0.0,0.0,0.0,0.0,0.0,0.0,0.0,0.0,0.0,0.0,0.0,0.0,0.0,0.0,0.0,0.0,0.0,0.0,0.0,0.0,0.0,0.0,0.0,0.0,0.0,0.0,0.0,0.0,0.0,0.0,0.0,0.0,0.0,0.0,0.0,0.0,0.0,0.0,0.0,0.0,0.0,0.0,0.0,0.0,0.0,0.0,0.0,0.0,0.0,0.0,0.0,0.0,0.0,0.0,0.0,0.0,0.0,0.0,0.0,0.0,0.0,0.0,0.0,0.0,0.0,0.0,0.0,0.0,0.0,0.0,0.0,0.0,0.0,0.0,0.0,0.0,0.0,0.0,0.0,0.0,0.0,0.0,0.244,0.3087,0.3667,0.3938,0.4595,0.4883,0.4529,0.4388,0.4341,0.4386,0.0,0.0,0.0,0.0,0.0,0.0,0.0,0.0,0.0,0.0,0.0,0.0,0.0,0.0,0.0,0.0,0.0,0.0,0.0,0.0,0.0,0.0,0.0,0.0,0.0,0.0,0.0,0.0,0.0,0.0,0.0,0.0,0.0,0.0,0.0,0.0,0.0,0.0,0.0,0.0,0.0,0.0,0.0,0.0,0.0,0.0,0.0,0.0,0.0,0.0,0.0,0.0,0.0,0.0,0.0,0.0,0.0,0.0,0.0,0.0,0.0,0.0,0.0,0.0,0.0,0.0,0.0,0.0,0.0,0.0,0.0,0.0,0.0,0.0,0.0,0.0,0.0,0.0,0.0,0.0,0.0,0.0,0.0,0.0,0.0,0.0,0.0,0.0,0.0,0.0,0.0,0.0,0.0,0.0,0.0,0.0,0.0,0.0,0.0,0.0,0.0,0.0,0.2505,0.3072,0.3667,0.4158,0.4755,0.5031,0.4858,0.469,0.4623,0.4668,0.0,0.0,0.0,0.0,0.0,0.0,0.0,0.0,0.0,0.0,0.0,0.0,0.0,0.0,0.0,0.0,0.0,0.0,0.0,0.0,0.0,0.0,0.0,0.0,0.0,0.0,0.0,0.0,0.0,0.0,0.0,0.0,0.0,0.0,0.0,0.0,0.0,0.0,0.0,0.0,0.0,0.0,0.0,0.0,0.0,0.0,0.0,0.0,0.0,0.0,0.0,0.0,0.0,0.0,0.0,0.0,0.0,0.0,0.0,0.0,0.0,0.0,0.0,0.0,0.0,0.0,0.0,0.0,0.0,0.0,0.0,0.0,0.0,0.0,0.0,0.0,0.0,0.0,0.0,0.0,0.0,0.0,0.0,0.0,0.0,0.0,0.0,0.0,0.0,0.0,0.0,0.0,0.0,0.0,0.0,0.0,0.0,0.0,0.0,0.0,0.0,0.0,0.2644,0.2942,0.3462,0.4375,0.4896,0.5207,0.5274,0.5162,0.5071,0.5071,0.0,0.0,0.0,0.0,0.0,0.0,0.0,0.0,0.0,0.0,0.0,0.0,0.0,0.0,0.0,0.0,0.0,0.0,0.0,0.0,0.0,0.0,0.0,0.0,0.0,0.0,0.0,0.0,0.0,0.0,0.0,0.0,0.0,0.0,0.0,0.0,0.0,0.0,0.0,0.0,0.0,0.0,0.0,0.0,0.0,0.0,0.0,0.0,0.0,0.0,0.0,0.0,0.0,0.0,0.0,0.0,0.0,0.0,0.0,0.0,0.186,0.0,0.0,0.0,0.0,0.0,0.0,0.0,0.0,0.0,0.0,0.0,0.0,0.0,0.0,0.0,0.0,0.0,0.0,0.0,0.0,0.0,0.0,0.0,0.0,0.0,0.0,0.0,0.0,0.0,0.0,0.0,0.0,0.0,0.0,0.0,0.0,0.0,0.0,0.0,0.0,0.0,0.262,0.3002,0.3568,0.4429,0.4684,0.4918,0.526,0.5114,0.4949,0.4786,0.0,0.0,0.0,0.0,0.0,0.0,0.0,0.0,0.0,0.0,0.0,0.0,0.0,0.0,0.0,0.0,0.0,0.0,0.0,0.0,0.0,0.0,0.0,0.0,0.0,0.0,0.0,0.0,0.0,0.0,0.0,0.0,0.0,0.0,0.0,0.0,0.0,0.0,0.0,0.0,0.0,0.0,0.0,0.0,0.0,0.0,0.0,0.0,0.0,0.0,0.0,0.0,0.0,0.0,0.0,0.0,0.0,0.0,0.0,0.0,0.0,0.2215,0.0,0.0,0.0,0.0,0.0,0.0,0.0,0.0,0.0,0.0,0.0,0.0,0.0,0.0,0.0,0.0,0.0,0.0,0.0,0.0,0.0,0.0,0.0,0.0,0.0,0.0,0.0,0.0,0.0,0.0,0.0,0.0,0.0,0.0,0.0,0.0,0.0,0.0,0.0,0.0,0.2661,0.3014,0.3635,0.4601,0.4953,0.5305,0.5801,0.5595,0.5391,0.5203,0.514,0.0,0.0,0.0,0.0,0.0,0.0,0.0,0.0,0.0,0.0,0.0,0.0,0.0,0.0,0.0,0.0,0.0,0.0,0.0,0.0,0.0,0.0,0.0,0.0,0.0,0.0,0.0,0.0,0.0,0.0,0.0,0.0,0.0,0.0,0.0,0.0,0.0,0.0,0.0,0.0,0.0,0.0,0.0,0.0,0.0,0.0,0.0,0.0,0.0,0.0,0.0,0.0,0.0,0.2621,0.2625,0.2693,0.2713,0.2719,0.2705,0.2538,0.2605,0.2893,0.0,0.0,0.0,0.0,0.0,0.0,0.0,0.0,0.0,0.0,0.0,0.0,0.0,0.0,0.0,0.0,0.0,0.0,0.0,0.0,0.0,0.0,0.0,0.0,0.0,0.2582,0.2511,0.0,0.0,0.0,0.0,0.0,0.0,0.0,0.0,0.0,0.0,0.0,0.0,0.2984,0.3189,0.3812,0.4988,0.5412,0.5843,0.6379,0.6207,0.597,0.5696,0.5486,0.5464,0.0,0.0,0.0,0.0,0.0,0.0,0.0,0.0,0.0,0.0,0.0,0.0,0.0,0.0,0.0,0.0,0.0,0.0,0.0,0.0,0.0,0.0,0.0,0.0,0.0,0.0,0.0,0.0,0.0,0.0,0.0,0.0,0.2041,0.2434,0.0,0.0,0.0,0.0,0.0,0.0,0.0,0.0,0.0,0.0,0.0,0.0,0.0,0.0,0.2454,0.2915,0.2999,0.2693,0.283,0.2823,0.2695,0.2799,0.2832,0.2803,0.2701,0.0,0.2555,0.2592,0.0,0.0,0.0,0.0,0.0,0.0,0.0,0.0,0.0,0.0,0.0,0.0,0.0,0.0,0.0,0.0,0.0,0.0,0.0,0.0,0.0,0.0,0.2586,0.2454,0.2436,0.2432,0.0,0.2542,0.2654,0.2654,0.2655,0.0,0.0,0.0,0.0,0.0,0.0,0.0,0.4148,0.4082,0.4442,0.5742,0.5836,0.6008,0.6368,0.6363,0.6153,0.5707,0.5647,0.5647,0.568,0.5836,0.0,0.0,0.0,0.0,0.0,0.0,0.0,0.0,0.0,0.0,0.0,0.0,0.0,0.0,0.0,0.0,0.0,0.0,0.0,0.0,0.0,0.0,0.0,0.0,0.0,0.0,0.0,0.0,0.0,0.2085,0.2128,0.2411,0.2438,0.2468,0.0,0.0,0.0,0.0,0.0,0.0,0.0,0.0,0.0,0.2687,0.2538,0.2532,0.2689,0.3046,0.3148,0.2991,0.2966,0.2922,0.2693,0.2746,0.2872,0.3038,0.2795,0.2717,0.2748,0.2595,0.2669,0.2889,0.0,0.0,0.0,0.0,0.2691,0.2691,0.2691,0.2658,0.0,0.0,0.0,0.0,0.0,0.0,0.0,0.0,0.0,0.0,0.0,0.0,0.0,0.2668,0.2685,0.2719,0.2719,0.2783,0.2853,0.0,0.2636,0.2638,0.2843,0.0,0.0,0.0,0.0,0.0,0.419,0.4617,0.5238,0.5914,0.6236,0.6415,0.6555,0.6471,0.6304,0.6094,0.583,0.5798,0.6073,0.6175,0.6342,0.0,0.0,0.0,0.0,0.0,0.0,0.0,0.0,0.0,0.0,0.0,0.0,0.0,0.0,0.0,0.0,0.0,0.0,0.0,0.0,0.0,0.0,0.0,0.0,0.0,0.0,0.0,0.0,0.2281,0.2444,0.2351,0.234,0.2447,0.0,0.0,0.0,0.0,0.0,0.0,0.276,0.2644,0.2613,0.2689,0.2691,0.2736,0.2828,0.3093,0.3226,0.3224,0.3089,0.2954,0.2828,0.2828,0.2973,0.3211,0.2944,0.285,0.293,0.2648,0.2728,0.2974,0.2809,0.2717,0.2697,0.2742,0.2744,0.2725,0.2725,0.2681,0.2632,0.2676,0.0,0.2655,0.267,0.0,0.0,0.0,0.0,0.2817,0.277,0.2915,0.2999,0.2875,0.2907,0.3015,0.3015,0.3015,0.2949,0.0,0.2659,0.2774,0.3178,0.0,0.0,0.0,0.0,0.4878,0.4721,0.5299,0.5873,0.6253,0.6588,0.6775,0.6705,0.6633,0.6519,0.6401,0.6116,0.6083,0.6385,0.6449,0.6536,0.6598,0.0,0.0,0.0,0.0,0.0,0.0,0.0,0.0,0.0,0.0,0.0,0.0,0.0,0.0,0.0,0.0,0.0,0.0,0.0,0.0,0.0,0.0,0.0,0.0,0.0,0.0,0.0,0.0,0.0,0.2705,0.2664,0.0,0.0,0.0,0.0,0.2691,0.3007,0.3124,0.3011,0.2989,0.2915,0.2699,0.2691,0.2854,0.3195,0.3218,0.3226,0.3226,0.3218,0.3209,0.3199,0.3199,0.3209,0.3226,0.3207,0.3011,0.2703,0.2687,0.2683,0.2751,0.2872,0.2791,0.2711,0.2938,0.2889,0.2819,0.2819,0.2817,0.2799,0.2717,0.2687,0.2685,0.2689,0.2691,0.0,0.0,0.2823,0.2846,0.2982,0.3009,0.3013,0.3009,0.3011,0.3015,0.3015,0.3015,0.2986,0.0,0.2853,0.3016,0.3956,0.0,0.4184,0.5553,0.5383,0.5429,0.6411,0.6357,0.6372,0.6972,0.7085,0.6988,0.6705,0.6929,0.6864,0.6423,0.6579,0.6595,0.6401,0.66,0.6622,0.6417,0.6638,0.0,0.0,0.0,0.0,0.0,0.0,0.0,0.0,0.0,0.0,0.0,0.0,0.0,0.0,0.0,0.0,0.0,0.0,0.0,0.0,0.0,0.0,0.0,0.0,0.0,0.0,0.0,0.0,0.305,0.2832,0.0,0.0,0.2795,0.292,0.292,0.2979,0.304,0.3015,0.2973,0.2991,0.2924,0.292,0.2921,0.305,0.3285,0.3458,0.3571,0.3456,0.3342,0.3226,0.3226,0.4181,0.5905,0.545,0.4389,0.3036,0.3036,0.2899,0.2695,0.2738,0.2821,0.2924,0.2946,0.2997,0.2909,0.2909,0.2872,0.2813,0.2719,0.273,0.2779,0.2779,0.2817,0.2926,0.2899,0.2952,0.3017,0.3105,0.313,0.3144,0.3203,0.3284,0.3201,0.3142,0.3238,0.3497,0.3952,0.3701,0.3655,0.4525,0.5026,0.5346,0.5511,0.6115,0.6502,0.6396,0.6597,0.6864,0.7085,0.7085,0.7047,0.6966,0.6896,0.6853,0.6837,0.6633,0.6611,0.6826,0.6772,0.6767,0.6837,0.6918,0.695,0.0,0.0,0.0,0.0,0.0,0.0,0.0,0.0,0.0,0.0,0.0,0.0,0.0,0.0,0.0,0.0,0.0,0.0,0.0,0.0,0.0,0.0,0.0,0.0,0.0,0.0,0.315,0.3111,0.294,0.2813,0.2783,0.2905,0.3001,0.3044,0.3103,0.3156,0.3197,0.3077,0.3107,0.3105,0.3128,0.3213,0.3232,0.3448,0.3648,0.3763,0.3644,0.3711,0.3932,0.4193,0.5293,0.7025,0.5866,0.4489,0.3226,0.3226,0.3085,0.287,0.287,0.2968,0.3039,0.306,0.3026,0.3061,0.3061,0.2944,0.286,0.2799,0.2819,0.2868,0.2868,0.293,0.3061,0.3061,0.3066,0.315,0.3211,0.325,0.3287,0.3348,0.3387,0.3393,0.3332,0.3434,0.3776,0.4397,0.4276,0.4406,0.5389,0.5993,0.6304,0.6192,0.6884,0.7223,0.6668,0.6916,0.7085,0.7085,0.7085,0.7085,0.7085,0.702,0.7009,0.7079,0.6875,0.6848,0.7074,0.6934,0.6891,0.6966,0.667,0.6506,0.6371,0.0,0.0,0.0,0.0,0.0,0.0,0.0,0.0,0.0,0.0,0.0,0.0,0.0,0.0,0.0,0.0,0.0,0.0,0.0,0.0,0.0,0.0,0.0,0.2583,0.2843,0.3009,0.2891,0.3009,0.3064,0.3036,0.3019,0.3041,0.323,0.3397,0.3497,0.3503,0.333,0.3287,0.3403,0.3541,0.3601,0.3657,0.378,0.3841,0.3841,0.3841,0.4356,0.545,0.6131,0.6453,0.6316,0.4239,0.3299,0.3226,0.3226,0.3226,0.3226,0.3226,0.3226,0.3226,0.3226,0.3171,0.3095,0.3091,0.3034,0.3024,0.302,0.3024,0.3028,0.3028,0.3028,0.3099,0.3101,0.3164,0.3232,0.3238,0.3303,0.3438,0.3371,0.344,0.3503,0.3499,0.3501,0.3761,0.4354,0.4674,0.5273,0.6639,0.6842,0.7012,0.7671,0.7602,0.0,0.7383,0.723,0.7085,0.7095,0.7095,0.7095,0.7095,0.7311,0.7293,0.7101,0.7305,0.7277,0.709,0.7085,0.6977,0.67,0.5891,0.5328,0.504,0.0,0.0,0.0,0.0,0.0,0.0,0.0,0.0,0.0,0.0,0.0,0.0,0.0,0.0,0.0,0.0,0.0,0.0,0.0,0.0,0.0,0.0,0.1336,0.1875,0.2647,0.314,0.3042,0.3183,0.3279,0.3322,0.3207,0.3271,0.3499,0.3444,0.3456,0.3585,0.3442,0.3393,0.3471,0.4354,0.4762,0.4469,0.5152,0.5389,0.5079,0.4771,0.4969,0.5588,0.6712,0.7192,0.7175,0.6343,0.4933,0.3226,0.3758,0.3692,0.3226,0.3226,0.3226,0.3226,0.3226,0.3211,0.3179,0.3113,0.3117,0.314,0.3075,0.3142,0.332,0.332,0.3269,0.3303,0.3369,0.3358,0.3354,0.3483,0.3489,0.3479,0.3538,0.3573,0.3575,0.3726,0.435,0.5076,0.5682,0.6443,0.6881,0.6684,0.7306,0.7749,0.7538,0.7639,0.0,0.723,0.7128,0.7149,0.7277,0.7293,0.7293,0.7293,0.7357,0.7293,0.7101,0.7144,0.7155,0.7085,0.7085,0.7052,0.6988,0.6749,0.645,0.0,0.0,0.0,0.0,0.0,0.0,0.0,0.0,0.0,0.0,0.0,0.0,0.0,0.0,0.0,0.0,0.0,0.0,0.0,0.0,0.0,0.0,0.0415,0.1345,0.2004,0.2748,0.3291,0.3311,0.3442,0.3603,0.3603,0.3518,0.3573,0.373,0.3656,0.3628,0.3681,0.3751,0.3941,0.4129,0.4952,0.5376,0.5248,0.5906,0.6116,0.5937,0.5649,0.5777,0.6314,0.6784,0.7173,0.0,0.7179,0.6098,0.4586,0.4916,0.4651,0.0,0.0,0.0,0.0,0.0,0.3318,0.3277,0.3224,0.324,0.3269,0.3177,0.3271,0.3413,0.3375,0.3416,0.3477,0.3495,0.3487,0.3489,0.3556,0.3563,0.3565,0.3614,0.3732,0.3823,0.392,0.4777,0.5588,0.5943,0.7028,0.0,0.7213,0.7787,0.821,0.7935,0.7925,0.7844,0.7627,0.7359,0.7295,0.7378,0.7303,0.73,0.73,0.7335,0.0,0.0,0.0,0.7192,0.709,0.7085,0.0,0.0,0.0,0.6783,0.6595,0.0,0.0,0.0,0.3437,0.3067,0.0,0.0,0.0,0.0,0.0,0.0,0.0,0.0,0.0,0.0,0.0,0.0,0.0,0.0,0.0,0.0,0.0871,0.1625,0.2524,0.3092,0.3467,0.3624,0.3732,0.3793,0.3793,0.3857,0.3912,0.3942,0.393,0.3883,0.3876,0.0,0.0,0.0,0.0,0.5871,0.6147,0.6414,0.6556,0.6669,0.6535,0.6703,0.7318,0.6703,0.6861,0.754,0.7273,0.6911,0.6437,0.6289,0.5755,0.4929,0.3831,0.3416,0.3422,0.3479,0.3448,0.3379,0.3379,0.0,0.0,0.3297,0.3389,0.3516,0.3434,0.3511,0.3612,0.3548,0.3577,0.3612,0.3546,0.3585,0.3644,0.3654,0.3874,0.4095,0.4252,0.5026,0.5832,0.5976,0.72,0.811,0.8,0.8302,0.8538,0.8479,0.8291,0.8202,0.8175,0.7747,0.7437,0.7437,0.0,0.0,0.7128,0.7271,0.7293,0.7101,0.7289,0.7311,0.709,0.7085,0.7198,0.7389,0.6924,0.675,0.693,0.5779,0.5111,0.4864,0.388,0.3278,0.0,0.0,0.0,0.0,0.0,0.0,0.0,0.0,0.0,0.0,0.0,0.0,0.0,0.0,0.0,0.019,0.1393,0.2377,0.2606,0.3271,0.3699,0.3732,0.3883,0.3983,0.3983,0.3932,0.3989,0.4206,0.4125,0.4092,0.4218,0.4634,0.0,0.5778,0.7342,0.7999,0.7656,0.8265,0.8269,0.7765,0.0,0.0,0.7944,0.7791,0.7863,0.8156,0.8148,0.7633,0.6817,0.7028,0.6358,0.5032,0.408,0.3693,0.3695,0.3568,0.3489,0.3475,0.3475,0.3518,0.3573,0.3554,0.3624,0.371,0.3691,0.3658,0.0,0.3695,0.3671,0.364,0.3697,0.3724,0.3756,0.3828,0.3861,0.4194,0.5231,0.6099,0.6958,0.7629,0.8607,0.9192,0.8974,0.8879,0.8667,0.8337,0.824,0.8142,0.7892,0.779,0.7731,0.7731,0.7688,0.7585,0.7341,0.7367,0.7293,0.7101,0.7128,0.7133,0.7085,0.7085,0.7198,0.7389,0.7275,0.7188,0.703,0.6528,0.6025,0.5461,0.4041,0.3315,0.0,0.0,0.0,0.0,0.0,0.0,0.0,0.0,0.0,0.0,0.0,-0.0759,-0.0306,0.0,0.0593,0.1411,0.2187,0.288,0.3387,0.3816,0.3978,0.3899,0.406,0.4135,0.4099,0.4187,0.4395,0.4463,0.4473,0.4589,0.51,0.5347,0.5956,0.6894,0.7873,0.8474,0.8537,0.8994,0.9101,0.8864,0.876,0.8713,0.8713,0.8479,0.8399,0.8461,0.8412,0.8226,0.7883,0.7454,0.6606,0.5501,0.4667,0.4125,0.3781,0.3705,0.3603,0.3563,0.3563,0.3591,0.3618,0.3577,0.3654,0.3763,0.3763,0.3763,0.3781,0.3875,0.3867,0.3842,0.3887,0.3899,0.3912,0.3957,0.4456,0.5189,0.5843,0.7134,0.8365,0.8801,0.9464,0.9857,0.9604,0.9373,0.9098,0.8732,0.8678,0.8592,0.8361,0.8231,0.8108,0.7989,0.7871,0.7704,0.7415,0.7282,0.7214,0.709,0.7085,0.7085,0.7085,0.7085,0.7257,0.7618,0.7623,0.768,0.782,0.7305,0.6916,0.6595,0.497,0.4207,0.0,0.0,0.0,0.0,0.0,0.0,0.0,0.0,-0.0858,-0.0915,-0.0821,-0.0489,0.0261,0.0608,0.1278,0.2643,0.3007,0.3403,0.4114,0.4231,0.4255,0.4091,0.4272,0.432,0.4336,0.4529,0.4803,0.4972,0.4979,0.5352,0.6144,0.6334,0.7003,0.7992,0.8295,0.8686,0.9262,0.9401,0.953,0.9501,0.9407,0.9322,0.9322,0.8937,0.8856,0.8922,0.8683,0.8827,0.9043,0.7588,0.6704,0.6059,0.522,0.4525,0.3974,0.3974,0.3912,0.3757,0.3774,0.3683,0.3646,0.3614,0.3689,0.3793,0.381,0.3869,0.3942,0.4014,0.4036,0.4036,0.4036,0.4036,0.404,0.4057,0.506,0.6142,0.6392,0.7962,0.9437,0.9562,0.9992,1.0283,1.0035,0.9841,0.9599,0.9254,0.9206,0.9141,0.8953,0.8764,0.8538,0.831,0.8048,0.7822,0.7485,0.7338,0.7225,0.7225,0.7225,0.7225,0.7225,0.7225,0.7424,0.786,0.7865,0.8081,0.8517,0.7917,0.7521,0.7326,0.6141,0.5349,0.3307,0.156,-0.0275,-0.0755,-0.0837,-0.0801,0.0,0.0,-0.0978,-0.0978,-0.0438,0.0131,0.0284,0.1469,0.2508,0.2804,0.3373,0.4014,0.4294,0.43,0.4322,0.4482,0.4644,0.466,0.4765,0.4765,0.5107,0.5901,0.6024,0.6381,0.7137,0.7594,0.8185,0.8968,0.9291,0.9703,1.0137,1.0188,0.9921,0.9357,0.9332,0.9322,0.9322,0.9246,0.9397,0.9765,0.9367,0.9432,0.9669,0.7606,0.6882,0.6972,0.5372,0.4677,0.4585,0.4585,0.4435,0.4196,0.4285,0.4042,0.3773,0.3926,0.3934,0.3899,0.3981,0.4012,0.4022,0.4032,0.4036,0.4036,0.4036,0.4036,0.4055,0.4392,0.5175,0.6196,0.7392,0.8493,0.9452,1.0264,1.053,1.0525,1.0293,1.0234,0.9986,0.9308,0.9206,0.9195,0.9168,0.9147,0.8958,0.8522,0.8452,0.8253,0.7801,0.7736,0.772,0.772,0.772,0.772,0.772,0.772,0.7838,0.8164,0.8169,0.8242,0.8517,0.8117,0.7587,0.699,0.7129,0.6388,0.3113,0.1477,0.0,0.0,-0.0885,-0.0861,-0.0696,-0.0914,-0.1078,-0.1015,-0.0799,-0.0283,0.0827,0.157,0.237,0.0,0.399,0.4257,0.4457,0.4322,0.4286,0.4619,0.4676,0.4651,0.4658,0.5191,0.5779,0.6095,0.6719,0.7331,0.8224,0.8461,0.8864,0.9525,0.976,0.9919,1.0078,1.0078,0.9948,0.962,0.962,0.962,0.962,0.962,0.985,1.0137,0.9988,0.9501,0.8736,0.7854,0.6993,0.6116,0.5423,0.5134,0.5127,0.4722,0.4421,0.4309,0.4187,0.4068,0.3934,0.401,0.401,0.3995,0.4087,0.4116,0.4136,0.424,0.4267,0.4267,0.4267,0.4267,0.4265,0.4335,0.555,0.6853,0.7631,0.8936,1.0213,1.09,1.0939,1.081,1.0713,1.0584,1.039,1.0083,0.9798,0.9572,0.9443,0.9421,0.9292,0.8953,0.8678,0.8436,0.8231,0.7962,0.7801,0.7801,0.7801,0.7801,0.7801,0.7801,0.7908,0.8202,0.8207,0.8397,0.8716,0.8451,0.8251,0.822,0.7822,0.7157,0.2336,0.0,0.0,-0.0548,-0.0793,-0.0828,-0.0619,-0.0901,-0.1127,-0.1069,-0.1122,-0.0742,0.0549,0.1376,0.2348,0.4054,0.4351,0.4416,0.4524,0.443,0.4428,0.4716,0.4678,0.4673,0.4599,0.5647,0.6437,0.6607,0.7527,0.8405,0.9169,0.9165,0.9401,0.9846,0.9922,0.9954,1.0024,0.9954,0.9954,1.0024,1.0024,1.0024,1.0024,1.0089,1.0057,0.9984,0.9984,0.9181,0.7918,0.7718,0.6909,0.5765,0.564,0.5515,0.5507,0.4935,0.4706,0.4578,0.444,0.4331,0.421,0.4178,0.4178,0.4172,0.4181,0.4226,0.4267,0.4369,0.4434,0.4461,0.4412,0.4434,0.4444,0.4416,0.5765,0.7131,0.7749,0.9266,1.0624,1.1186,1.1209,1.1063,1.0993,1.0842,1.0713,1.0643,1.0342,1.0056,0.9895,0.9755,0.9577,0.9335,0.8947,0.8705,0.8705,0.8328,0.8091,0.8091,0.8032,0.7995,0.7995,0.7995,0.8075,0.831,0.831,0.8516,0.8929,0.8694,0.8746,0.892,0.8403,0.7929,0.0,0.0,-0.0,-0.0,-0.0493,-0.0837,-0.0709,-0.0875,-0.1127,-0.1084,-0.1091,-0.1118,-0.1201,0.0876,0.3058,0.4134,0.4433,0.4601,0.4774,0.4763,0.4828,0.4953,0.4909,0.4761,0.0,0.6026,0.7022,0.7513,0.8545,0.9373,0.9878,0.9857,0.9852,0.9922,0.9922,1.0035,1.0283,1.004,1.004,1.0283,1.0283,1.0283,1.0293,1.0514,1.0121,0.9227,0.9227,0.8655,0.7769,0.7095,0.6816,0.6662,0.594,0.5727,0.5652,0.558,0.5387,0.5211,0.5323,0.5045,0.4653,0.4678,0.4586,0.4439,0.4358,0.4357,0.441,0.4326,0.4432,0.4526,0.4349,0.4434,0.4618,0.4707,0.5713,0.7015,0.7986,0.9199,1.0356,1.1131,1.1257,1.1262,1.1025,1.0977,1.0896,1.067,1.0622,1.0611,1.0606,1.0196,0.982,0.9593,0.9335,0.9184,0.9184,0.8969,0.8902,0.8902,0.8619,0.849,0.849,0.849,0.8495,0.8506,0.8506,0.8624,0.8929,0.8923,0.8632,0.8226,0.885,0.878,0.0673,0.0,0.0,0.0,-0.0125,-0.026,-0.0265,-0.0683,-0.1053,-0.0779,-0.072,-0.0881,-0.113,-0.0305,0.1092,0.3378,0.3654,0.3922,0.4833,0.4799,0.4718,0.4844,0.4775,0.0,0.0,0.0,0.0,0.6627,0.8008,0.8927,0.9089,0.9614,0.9997,1.0164,1.0169,1.0207,1.0293,1.0213,1.0126,1.0046,1.0213,1.0053,0.9546,0.9619,0.9229,0.8514,0.8514,0.8078,0.7336,0.7128,0.6627,0.6022,0.5805,0.5733,0.5746,0.5772,0.5761,0.5621,0.5463,0.5134,0.4759,0.4736,0.4689,0.4522,0.44,0.4453,0.4532,0.4748,0.4897,0.4934,0.4869,0.4899,0.4901,0.4804,0.5503,0.6593,0.8125,0.9207,1.0208,1.1357,1.1585,1.1505,1.1268,1.1225,1.1203,1.1122,1.0837,1.0579,1.0428,1.0266,1.0078,0.983,0.9593,0.9453,0.9453,0.9227,0.9093,0.9093,0.9017,0.8904,0.8754,0.8748,0.8673,0.8517,0.8667,0.8861,0.9093,0.9093,0.915,0.9311,0.9451,0.9098,0.0398,0.0,0.0,0.0,0.0,0.0,0.0,-0.0344,-0.0699,-0.0692,-0.0491,-0.0427,-0.0646,-0.0789,-0.0073,0.2349,0.3222,0.3963,0.4787,0.4801,0.477,0.4894,0.4873,0.0,0.0,0.0,0.0,0.6247,0.7622,0.8572,0.874,0.9274,0.9813,1.0288,1.0374,1.0455,1.0541,1.0379,1.0094,0.9627,0.9941,0.9673,0.8954,0.8954,0.8514,0.7849,0.7849,0.7306,0.6615,0.6615,0.626,0.5738,0.5779,0.5795,0.5814,0.5975,0.6005,0.598,0.5682,0.538,0.5139,0.5046,0.49,0.4653,0.4593,0.4735,0.4816,0.5034,0.509,0.513,0.4964,0.4997,0.4999,0.4902,0.5337,0.6255,0.7649,0.8567,0.9372,1.0391,1.088,1.1081,1.086,1.1089,1.1262,1.1262,1.1006,1.0805,1.0568,1.0541,1.0417,1.0089,0.9922,0.9798,0.9712,0.9475,0.9335,0.9335,0.9254,0.9141,0.899,0.8985,0.8915,0.8764,0.891,0.9104,0.9335,0.9335,0.954,0.9916,0.9622,0.926,0.0,0.0,0.0,0.0,0.0,0.0,0.0,0.0,-0.0208,-0.0811,-0.0469,-0.0067,0.0,0.0,-0.0399,0.1332,0.3246,0.4559,0.4821,0.4944,0.5072,0.0,0.0,0.0,0.0,0.0,0.0,0.6331,0.0,0.8154,0.8792,0.9011,0.9498,1.0326,1.0541,1.0762,1.0982,1.0525,0.992,0.9222,0.9414,0.911,0.844,0.844,0.7921,0.7054,0.7054,0.6523,0.5733,0.5733,0.5733,0.5744,0.5858,0.5904,0.5931,0.6179,0.6195,0.6094,0.6102,0.5913,0.5626,0.5434,0.5147,0.4959,0.505,0.5117,0.5081,0.5081,0.5096,0.5099,0.4726,0.471,0.4891,0.4999,0.5291,0.5874,0.6887,0.7419,0.7921,0.8619,0.944,1.0089,0.9993,1.0743,1.1262,1.1262,1.1262,1.1262,1.1015,1.0982,1.081,1.0358,1.0309,1.0218,0.9976,0.9744,0.9615,0.9615,0.9378,0.9238,0.9222,0.9222,0.9217,0.9206,0.9217,0.934,0.9577,0.9588,0.9707,0.9916,0.9559,0.9342,0.0,0.0,0.0,0.0,0.0,0.0,0.0,0.0,-0.0064,-0.0195,-0.0495,-0.0536,0.0,0.0,0.0,0.1262,0.2413,0.0,0.4885,0.5241,0.0,0.0,0.0,0.5388,0.5205,0.5298,0.0,0.0,0.6404,0.7148,0.8062,0.869,0.9632,1.0794,1.0864,1.0923,1.0982,0.9948,0.9276,0.9086,0.8577,0.7958,0.74,0.74,0.686,0.6086,0.6086,0.5908,0.5733,0.5733,0.5733,0.5744,0.5858,0.5904,0.5931,0.6179,0.6249,0.6233,0.6317,0.6095,0.5833,0.5543,0.5398,0.5443,0.5373,0.5419,0.5492,0.5466,0.5494,0.5425,0.5374,0.5397,0.5404,0.5667,0.5741,0.6197,0.7392,0.7761,0.8105,0.895,0.9622,1.0314,1.1081,1.1287,1.1262,1.1262,1.1262,1.1262,1.1015,1.0982,1.0869,1.0579,1.0546,1.0519,1.046,1.0245,1.011,1.011,0.9873,0.9658,0.9491,0.9486,0.9394,0.9206,0.9389,0.9518,0.9577,0.975,0.9863,0.9927,1.0033,0.973,0.0,0.0,0.0,0.0,0.0,0.0,0.0,0.0,0.0,0.0,-0.0298,0.0,0.0,0.0,0.0,0.0,0.0,0.0,0.49,0.5184,0.5303,0.0,0.5466,0.0,0.536,0.536,0.5347,0.0,0.5953,0.6816,0.7773,0.8657,0.9637,1.0821,1.0934,1.081,1.0386,0.9737,0.8955,0.8053,0.7722,0.7105,0.6409,0.6409,0.6192,0.5733,0.0,0.5733,0.5733,0.5733,0.5733,0.5749,0.5918,0.5983,0.6013,0.6252,0.6342,0.6352,0.6218,0.6195,0.6044,0.5849,0.5691,0.5627,0.5671,0.5693,0.5636,0.5636,0.5536,0.5436,0.5436,0.5436,0.5522,0.5862,0.5996,0.6221,0.7033,0.7273,0.7681,0.8975,0.9478,1.0081,1.1447,1.1591,1.1472,1.1278,1.1262,1.13,1.116,1.1144,1.1052,1.0816,1.0789,1.0746,1.0643,1.0519,1.0401,1.0299,1.0164,0.9976,0.9739,0.9728,0.9663,0.9523,0.9658,0.9728,0.9728,0.9857,0.9976,1.0089,1.0068,0.9785,0.0,0.0,0.0,0.0,0.0,0.0,0.0,0.0,0.0,0.0,0.0,-0.0175,-0.0702,0.0,-0.0119,-0.0,0.0,0.4677,0.4773,0.5021,0.5249,0.5474,0.5446,0.5451,0.5504,0.5407,0.5301,0.5195,0.5891,0.6743,0.7632,0.851,0.9431,1.0474,1.0642,1.0218,0.9452,0.9465,0.8587,0.6796,0.6843,0.648,0.5708,0.5708,0.5719,0.5733,0.0,0.0,0.5733,0.5733,0.5741,0.5779,0.5999,0.6094,0.6135,0.6355,0.6437,0.6337,0.6139,0.6239,0.6337,0.6042,0.5839,0.5737,0.5939,0.5839,0.5636,0.5636,0.5438,0.524,0.534,0.534,0.5441,0.5942,0.6042,0.6139,0.6337,0.6437,0.6997,0.891,0.9131,0.9709,1.1462,1.1768,1.1677,1.1472,1.1445,1.1445,1.1445,1.13,1.1268,1.1052,1.1031,1.095,1.0746,1.0702,1.0595,1.0396,1.0358,1.0245,1.0024,1.0013,1.0013,1.0013,1.0013,1.0013,1.0013,1.0013,1.0126,1.0342,1.0048,0.9917,0.0,0.0,0.0,0.0,0.0,0.0,0.0,0.0,0.0,0.0,0.0,-0.0055,-0.0112,-0.0453,0.0,-0.0061,0.0,0.0,0.0,0.0,0.526,0.0,0.0,0.0,0.0,0.0,0.0,0.0,0.0,0.6424,0.6809,0.7867,0.8941,1.0005,0.9276,0.8696,0.8437,0.7792,0.7215,0.6639,0.6002,0.5653,0.5497,0.5497,0.5638,0.5733,0.5733,0.0,0.5733,0.5733,0.5787,0.5888,0.6032,0.6149,0.6252,0.6388,0.6437,0.6437,0.6337,0.6337,0.6337,0.6042,0.6139,0.6237,0.6337,0.6139,0.5942,0.5942,0.5739,0.5536,0.5842,0.5842,0.5942,0.6237,0.6337,0.6337,0.6437,0.6437,0.7024,0.917,0.9312,0.9845,1.1916,1.2124,1.1973,1.193,1.1925,1.1925,1.1925,1.1591,1.1246,1.1289,1.1284,1.1273,1.1145,1.1042,1.0907,1.0864,1.0681,1.0557,1.0514,1.0514,1.0514,1.0514,1.0514,1.0514,1.0514,1.0514,1.053,1.0579,1.069,1.0383,0.0,0.0,0.0,0.0,0.0,-0.0313,-0.1578,0.0,0.0,0.0,0.0,-0.0055,-0.0167,0.0,0.0,0.0,0.0,0.0,0.0,0.0,0.0,0.0,0.0,0.0,0.0,0.0,0.0,0.0,0.0,0.5915,0.6461,0.7496,0.8284,0.8787,0.856,0.8102,0.7591,0.7249,0.6737,0.6153,0.5728,0.5589,0.5646,0.5646,0.5678,0.5733,0.5733,0.0,0.5738,0.5798,0.5852,0.592,0.6108,0.6217,0.6282,0.6393,0.6437,0.6437,0.6437,0.6437,0.6337,0.6239,0.6339,0.6337,0.6239,0.6139,0.5942,0.5839,0.5737,0.5636,0.5942,0.6042,0.6042,0.6337,0.6437,0.6437,0.6437,0.6437,0.6833,0.8418,0.9139,0.9833,1.1277,1.1932,1.2194,1.2162,1.214,1.214,1.214,1.1855,1.1666,1.1548,1.1532,1.1532,1.1532,1.1311,1.1176,1.1176,1.095,1.0762,1.0643,1.0638,1.0638,1.0638,1.0638,1.0638,1.0638,1.0638,1.0534,1.0491,1.0596,1.0373,-0.0367,-0.0718,-0.0819,-0.013,0.0,-0.0655,-0.3049,-0.3616,0.0,0.0,-0.1737,-0.0841,-0.0447,0.0,0.0,0.0,0.0,0.0,0.0,0.0,0.0,0.0,0.0,0.0,0.0,0.0,0.0,0.0,0.0,0.0,0.6431,0.6933,0.7319,0.7552,0.7702,0.7337,0.6698,0.6757,0.638,0.5657,0.5708,0.5719,0.5695,0.5722,0.5733,0.5733,0.5733,0.0,0.0,0.5866,0.5934,0.5999,0.6195,0.6285,0.6314,0.6404,0.6437,0.6437,0.6437,0.6437,0.6437,0.6437,0.6437,0.6337,0.6139,0.6042,0.5942,0.5837,0.5737,0.5737,0.6039,0.6042,0.6139,0.6337,0.6437,0.6437,0.6437,0.6437,0.6734,0.7826,0.8913,0.9853,1.0765,1.1808,1.242,1.2231,1.2297,1.2297,1.2297,1.2297,1.2113,1.1876,1.1806,1.1774,1.1774,1.1607,1.1499,1.1499,1.1273,1.1079,1.0945,1.0891,1.0864,1.0864,1.0864,1.0837,1.0789,1.0619,1.0549,1.0383,1.0349,1.012,-0.1589,-0.2981,-0.343,-0.0686,0.0,-0.0651,-0.3035,0.0,0.0,-0.3776,-0.3949,-0.3324,-0.0838,0.0,0.0,0.0,0.0,-0.0552,0.0,0.0,0.0,0.0,0.0,0.0,0.0,0.0,0.0,0.0,0.0,0.0,0.6737,0.5781,0.5762,0.6822,0.5994,0.5516,0.5549,0.559,0.5595,0.5407,0.5627,0.5676,0.5486,0.5684,0.5733,0.5733,0.5733,0.0,0.0,0.5899,0.6034,0.6238,0.626,0.6331,0.6423,0.6431,0.6437,0.6437,0.6437,0.6437,0.6437,0.6437,0.6437,0.6437,0.6337,0.6239,0.6042,0.6237,0.6139,0.6042,0.6337,0.6337,0.6337,0.6437,0.6437,0.6437,0.6437,0.6437,0.6734,0.7826,0.8913,0.9895,1.0951,1.2032,1.2721,1.27,1.27,1.27,1.27,1.27,1.2608,1.2377,1.2151,1.2016,1.2016,1.1995,1.2075,1.2075,1.1763,1.172,1.1908,1.1715,1.1602,1.1602,1.1602,1.1499,1.1198,1.0838,1.0585,1.0611,1.0293,0.9947,-0.2008,-0.3024,-0.3856,-0.2716,-0.1864,-0.1751,-0.3382,0.0,-0.3977,-0.411,-0.4216,-0.3822,-0.2122,-0.1285,-0.0741,0.0,0.0,0.0,0.0,0.0,0.0,0.0,0.0,0.0,0.0,0.0,0.0,0.0,0.0,0.0,0.5704,0.5224,0.5216,0.5707,0.5416,0.5211,0.5257,0.5379,0.5417,0.5371,0.5542,0.5513,0.5467,0.5678,0.5771,0.5836,0.5836,0.0,0.0,0.6092,0.6181,0.6276,0.6342,0.6396,0.6437,0.6437,0.6437,0.6437,0.6437,0.6437,0.6437,0.6437,0.6437,0.6337,0.6239,0.6239,0.6239,0.6139,0.6239,0.6237,0.6337,0.6437,0.6437,0.6437,0.6437,0.6437,0.6437,0.6437,0.6537,0.6933,0.8418,0.9706,1.0194,1.1673,1.2764,1.2764,1.2764,1.2764,1.2764,1.2764,1.2727,1.2635,1.2409,1.2269,1.2269,1.2134,1.2108,1.2258,1.2043,1.1951,1.2135,1.1957,1.1908,1.1908,1.1908,1.177,1.132,1.113,1.068,1.0143,1.0049,0.9719,-0.2657,-0.3138,-0.3926,-0.3922,-0.3346,-0.2979,0.0,0.0,-0.4197,-0.4223,-0.4203,-0.3925,-0.3128,-0.1842,-0.0797,-0.0482,-0.0586,-0.0656,0.0,0.0,0.0,0.0,0.0,0.0,0.0,0.0,0.0,0.0,0.0,0.0,0.0,0.5018,0.5018,0.5018,0.5094,0.5137,0.5137,0.5254,0.5317,0.5317,0.5474,0.5464,0.5467,0.5678,0.5776,0.5855,0.0,0.0,0.0,0.6219,0.6287,0.6325,0.6404,0.6437,0.6437,0.6437,0.6437,0.6437,0.6437,0.6437,0.6437,0.6437,0.6437,0.6337,0.6139,0.6239,0.6337,0.6139,0.6239,0.6445,0.648,0.6488,0.6488,0.6488,0.6518,0.6535,0.6499,0.6518,0.6545,0.6545,0.8258,0.9746,0.9697,1.1471,1.284,1.2775,1.2764,1.2764,1.2764,1.2764,1.2764,1.2764,1.2614,1.2517,1.2517,1.2361,1.2334,1.2506,1.2291,1.2188,1.2258,1.2194,1.2156,1.2156,1.2063,1.1841,1.1584,1.1216,1.0847,1.0297,1.017,0.9857,-0.3675,-0.3831,-0.3893,-0.3834,-0.3997,-0.4134,0.0,0.0,-0.4197,-0.4223,-0.4203,-0.4092,-0.3683,-0.212,-0.0791,-0.0467,-0.0412,0.0,0.0,0.0,0.0,0.0,0.0,0.0,0.0,0.0,0.0,0.0,0.0,0.0,0.0,0.5018,0.5018,0.5018,0.5018,0.5018,0.5018,0.5132,0.5186,0.5189,0.5434,0.5464,0.5467,0.5678,0.5733,0.0,0.0,0.0,0.0,0.6219,0.6333,0.6434,0.6437,0.6437,0.6437,0.6437,0.6437,0.6437,0.6437,0.6437,0.6437,0.6437,0.6437,0.6437,0.6437,0.6437,0.6437,0.6437,0.6437,0.6464,0.6586,0.6619,0.6619,0.6619,0.6711,0.6766,0.6643,0.6711,0.6798,0.6798,0.857,1.0079,0.9803,1.1587,1.3023,1.2797,1.2764,1.2764,1.2764,1.2764,1.2764,1.2764,1.2759,1.2759,1.2759,1.2759,1.2759,1.2759,1.2538,1.2517,1.2748,1.2533,1.2414,1.2414,1.1842,1.1728,1.2048,1.1124,1.0852,1.141,1.106,1.0697,-0.3483,-0.3664,-0.3815,-0.3673,-0.3788,-0.4036,-0.4483,0.0,-0.4343,-0.4867,-0.4548,-0.4082,-0.3666,-0.3457,-0.2775,-0.1079,-0.1229,-0.1419,0.0,0.0,0.0,0.0,0.0,0.0,0.0,0.0,0.0,0.0,0.0,0.0,0.0,0.5018,0.5018,0.5018,0.5018,0.5018,0.5018,0.5053,0.511,0.5186,0.5349,0.5469,0.5467,0.5678,0.0,0.0,0.0,0.0,0.0,0.6336,0.6404,0.6437,0.6437,0.6437,0.6437,0.6437,0.6437,0.6437,0.6437,0.6437,0.6437,0.6437,0.6437,0.6437,0.6437,0.6437,0.6437,0.6437,0.6497,0.657,0.6608,0.6681,0.6744,0.6744,0.6774,0.679,0.6752,0.6777,0.6801,0.6801,0.7954,0.9186,0.986,1.1191,1.2404,1.3159,1.3254,1.3254,1.3254,1.3104,1.2996,1.2996,1.2856,1.2764,1.2764,1.2764,1.2764,1.2764,1.2694,1.2684,1.2759,1.2694,1.2651,1.2651,1.2555,1.232,1.2055,1.1672,1.148,1.1288,1.1158,1.084,0.0,-0.3602,-0.3615,-0.3586,-0.3826,0.0,0.0,0.0,-0.475,-0.5008,-0.4684,-0.4237,-0.385,-0.3956,-0.3698,-0.2488,-0.2134,0.0,0.0,0.0,0.0,0.0,0.0,0.0,0.0,0.0,0.0,0.0,0.0,0.0,0.0,0.5059,0.5061,0.5018,0.5018,0.5037,0.508,0.5037,0.5072,0.5186,0.5311,0.5434,0.5467,0.5678,0.0,0.0,0.0,0.0,0.0,0.6391,0.6437,0.6437,0.6437,0.6437,0.6437,0.6437,0.6437,0.6437,0.6437,0.6437,0.6437,0.6437,0.6437,0.6445,0.6491,0.6472,0.6445,0.6491,0.6559,0.6641,0.6733,0.6815,0.6872,0.6872,0.6904,0.6923,0.688,0.6904,0.6934,0.6934,0.8217,0.9473,1.0043,1.1504,1.2739,1.3388,1.348,1.348,1.348,1.334,1.3243,1.3243,1.3034,1.2888,1.2888,1.2813,1.2764,1.2764,1.2764,1.2764,1.2764,1.2764,1.2764,1.2764,1.2565,1.2467,1.2273,1.2273,1.2175,1.1785,1.1585,1.1194,0.0,-0.3615,-0.3371,-0.3567,-0.407,-0.4516,0.0,0.0,0.0,0.0,-0.4738,-0.4549,-0.4143,-0.3737,-0.367,-0.4267,-0.2949,0.0,0.0,0.0,0.0,0.0,0.0,0.0,0.0,0.0,0.0,0.0,0.0,0.0,0.0,0.5127,0.5137,0.5059,0.5037,0.5075,0.5173,0.5069,0.5072,0.5186,0.5311,0.5434,0.5467,0.5678,0.0,0.0,0.0,0.0,0.0,0.6391,0.6437,0.6437,0.6437,0.6437,0.6437,0.6437,0.6437,0.6437,0.6437,0.6437,0.6437,0.6437,0.6437,0.6458,0.6584,0.654,0.6475,0.6597,0.6638,0.6698,0.6926,0.6991,0.6997,0.6997,0.7078,0.7127,0.7021,0.7081,0.7154,0.7154,0.9027,1.0514,1.0349,1.2245,1.3666,1.3561,1.3529,1.3529,1.3529,1.3513,1.3502,1.3502,1.3281,1.3125,1.3109,1.2894,1.2764,1.2764,1.2764,1.2764,1.2764,1.2764,1.2764,1.2764,1.2273,1.2278,1.2786,1.2786,1.2797,1.2813,1.2206,1.1707,-0.346,0.0,-0.3605,-0.3855,-0.4265,-0.4762,0.0,0.0,0.0,0.0,0.0,-0.4638,-0.4881,-0.4358,-0.3752,-0.3404,-0.2838,0.0,0.0,0.0,0.0,0.0,0.0,0.0,0.0,0.0,0.0,0.0,0.0,0.0,0.0,0.514,0.517,0.5417,0.5243,0.5118,0.5059,0.5029,0.5072,0.5186,0.5311,0.5434,0.5467,0.5678,0.0,0.0,0.0,0.0,0.6276,0.6391,0.6437,0.6437,0.6437,0.6437,0.6437,0.6437,0.6437,0.6437,0.6437,0.6437,0.6437,0.6437,0.6437,0.6458,0.6584,0.66,0.6603,0.6725,0.6825,0.6912,0.697,0.7051,0.7114,0.7114,0.7135,0.7146,0.7122,0.7135,0.7154,0.7154,0.8367,0.9567,1.051,1.1801,1.2984,1.3923,1.4024,1.4024,1.4024,1.3857,1.3739,1.3739,1.3529,1.3313,1.312,1.2894,1.2764,1.2764,1.2764,1.2764,1.2764,1.2764,1.2764,1.2764,1.2667,1.2747,1.3023,1.2532,1.2425,1.2588,1.1917,1.1344,-0.3517,-0.3405,-0.3339,-0.3615,-0.4168,-0.4832,-0.5463,0.0,0.0,0.0,0.0,0.0,-0.4863,0.0,0.0,-0.3067,-0.2648,0.0,0.0,0.0,0.0,0.0,0.0,0.0,0.0,0.0,0.0,0.0,0.0,0.0,0.0,0.5189,0.5219,0.5303,0.5227,0.5184,0.5178,0.5124,0.5127,0.5186,0.5311,0.5434,0.5467,0.5678,0.5795,0.0,0.0,0.0,0.6274,0.6333,0.6391,0.6437,0.6437,0.6437,0.6437,0.6437,0.6437,0.6437,0.6437,0.6437,0.6445,0.6502,0.6521,0.6554,0.6733,0.6787,0.6801,0.6866,0.6934,0.6997,0.7048,0.7108,0.7154,0.7154,0.7154,0.7154,0.7154,0.7154,0.7154,0.7154,0.8589,0.9908,1.0562,1.2096,1.3418,1.4083,1.4196,1.4196,1.4196,1.4078,1.3992,1.3992,1.3776,1.3583,1.3443,1.3222,1.3044,1.2926,1.292,1.292,1.292,1.292,1.2974,1.3087,1.3093,1.3152,1.3276,1.2669,1.2424,1.254,1.1601,1.1039,-0.3649,-0.328,-0.305,-0.3407,-0.4084,-0.4747,0.0,0.0,0.0,0.0,0.0,0.0,0.0,0.0,0.0,0.0,0.0,0.0,0.0,0.0,0.0,0.0,0.0,0.0,0.0,0.0,0.0,0.0,0.0,0.0,0.0,0.5208,0.5214,0.5048,0.5121,0.5211,0.5314,0.523,0.5186,0.5186,0.5311,0.5434,0.5467,0.5678,0.5795,0.0,0.0,0.0,0.6271,0.6287,0.635,0.6437,0.6437,0.6437,0.6437,0.6437,0.6437,0.6437,0.6437,0.6437,0.6456,0.6581,0.6619,0.6665,0.691,0.6986,0.6989,0.7008,0.701,0.7032,0.713,0.7154,0.7154,0.7154,0.7154,0.7154,0.7154,0.7154,0.7154,0.7154,0.9133,1.068,1.0704,1.2697,1.4245,1.4245,1.4245,1.4234,1.4202,1.4196,1.4196,1.4196,1.4003,1.3857,1.382,1.368,1.348,1.3227,1.3179,1.3163,1.3163,1.3163,1.3265,1.3475,1.348,1.3497,1.3426,1.2802,1.2501,1.2432,1.1358,1.0824,-0.3434,-0.3228,-0.3365,-0.4206,-0.4521,-0.4745,0.0,0.0,0.0,0.0,0.0,0.0,0.0,0.0,0.0,0.0,0.0,0.0,0.0,0.0,0.0,0.0,0.0,0.0,0.0,0.0,0.0,0.0,0.0,0.0,0.0,0.5061,0.4991,0.5156,0.5083,0.5053,0.5069,0.5148,0.5186,0.5186,0.5311,0.5434,0.5467,0.5678,0.5795,0.0,0.0,0.6138,0.6276,0.6372,0.642,0.6437,0.6437,0.6437,0.6437,0.6437,0.6437,0.6437,0.6437,0.6437,0.6456,0.6581,0.6619,0.6665,0.691,0.6986,0.7005,0.71,0.713,0.7133,0.7149,0.7154,0.7154,0.7154,0.7154,0.7154,0.7154,0.7154,0.7154,0.7154,0.9133,1.072,1.0974,1.2909,1.4482,1.4482,1.4482,1.4412,1.4218,1.4196,1.4196,1.4196,1.4159,1.4051,1.3836,1.3981,1.3976,1.3723,1.3529,1.3421,1.3421,1.3421,1.3437,1.348,1.348,1.3365,1.3031,1.2495,1.2056,1.1693,1.0885,1.0498,-0.3761,-0.37,-0.3945,-0.444,-0.4317,0.0,0.0,0.0,0.0,0.0,0.0,0.0,0.0,0.0,0.0,0.0,0.0,0.0,0.0,0.0,0.0,0.0,0.0,0.0,0.0,0.0,0.0,0.0,0.0,0.0,0.0,0.0,0.4915,0.5089,0.5045,0.5048,0.5108,0.5224,0.5252,0.5189,0.5377,0.5496,0.5467,0.5678,0.5763,0.5814,0.0,0.5999,0.6173,0.6225,0.632,0.6437,0.6437,0.6437,0.6437,0.6437,0.6437,0.6437,0.6437,0.6437,0.6456,0.6581,0.6665,0.6752,0.6931,0.7027,0.7089,0.7141,0.7154,0.7154,0.7154,0.7154,0.7154,0.7154,0.7154,0.7154,0.7154,0.7154,0.7173,0.7239,0.9255,1.0867,1.1045,1.3125,1.4681,1.4557,1.4536,1.4455,1.4223,1.4196,1.4196,1.4196,1.4304,1.4283,1.404,1.4239,1.4218,1.3841,1.3717,1.3663,1.3663,1.3663,1.3618,1.3435,1.3435,1.3163,1.2724,1.2079,1.1801,1.1564,1.0937,1.0574,-0.4086,-0.4021,-0.4208,0.0,0.0,0.0,0.0,0.0,0.0,0.0,0.0,0.0,0.0,0.0,0.0,0.0,0.0,0.0,0.0,0.0,0.0,0.0,0.0,0.0,0.0,0.0,0.0,0.0,0.0,0.0,0.0,0.0,0.4863,0.4931,0.4931,0.4974,0.5059,0.5211,0.5281,0.5273,0.5461,0.548,0.551,0.5692,0.5733,0.5735,0.5763,0.5893,0.6089,0.6116,0.6249,0.6437,0.6337,0.6337,0.6337,0.6337,0.6453,0.6475,0.6445,0.6453,0.6494,0.6589,0.6703,0.6825,0.6948,0.7065,0.7154,0.7154,0.7154,0.7154,0.7154,0.7154,0.7154,0.7154,0.7154,0.7154,0.7154,0.7154,0.719,0.7312,0.9246,1.1113,1.1224,1.3346,1.4891,1.4649,1.4616,1.4536,1.4304,1.4229,1.4213,1.4266,1.4428,1.4466,1.4288,1.4433,1.4379,1.4013,1.3986,1.3986,1.3986,1.404,1.3804,1.3391,1.3391,1.3039,1.2223,1.1787,1.1568,1.135,1.0911,1.0692,-0.3993,-0.3691,-0.3568,-0.4395,0.0,0.0,0.0,0.0,0.0,0.0,0.0,0.0,0.0,0.0,0.0,0.0,0.0,0.0,0.0,0.0,0.0,0.0,0.0,0.0,0.0,0.0,0.0,0.0,0.0,0.0,0.0,0.0,0.0,0.4756,0.4753,0.4756,0.4764,0.4925,0.5205,0.5438,0.5456,0.5523,0.5722,0.573,0.5733,0.5738,0.5844,0.5964,0.6094,0.6208,0.6328,0.6337,0.6139,0.6042,0.6042,0.6337,0.6507,0.6589,0.6475,0.651,0.6608,0.6616,0.6703,0.6825,0.6948,0.7065,0.7154,0.7154,0.7154,0.7154,0.7154,0.7154,0.7154,0.7154,0.7154,0.7154,0.7154,0.7154,0.719,0.7312,0.9246,1.115,1.1499,1.3567,1.5138,1.4896,1.4859,1.4772,1.4541,1.4326,1.4277,1.4487,1.4525,1.453,1.4514,1.4525,1.4519,1.4487,1.4482,1.4482,1.4482,1.4692,1.4489,1.3734,1.3618,1.2961,1.1678,1.1568,1.135,1.0802,1.0692,1.0692,-0.3761,-0.356,-0.3506,0.0,0.0,0.0,0.0,0.0,0.0,0.0,0.0,0.0,0.0,0.0,0.0,0.0,0.0,0.0,0.0,0.0,0.0,0.0,0.0,0.0,0.0,0.0,0.0,0.0,0.0,0.0,0.0,0.0,0.0,0.4723,0.4726,0.4727,0.4879,0.4972,0.5159,0.5439,0.5515,0.5489,0.5534,0.5518,0.5552,0.5735,0.5597,0.5723,0.581,0.595,0.5979,0.6139,0.6042,0.6139,0.6239,0.6139,0.6266,0.6499,0.645,0.6516,0.6619,0.6619,0.6755,0.6923,0.6972,0.7065,0.7154,0.7154,0.7154,0.7154,0.7154,0.7154,0.7154,0.7154,0.7154,0.7176,0.7249,0.7269,0.7326,0.7524,0.9648,1.1458,1.1589,1.3784,1.5332,1.4945,1.5015,1.4972,1.4584,1.446,1.4492,1.4729,1.4751,1.4815,1.4966,1.4842,1.4751,1.4751,1.4616,1.46,1.4745,1.4697,1.4244,1.3286,1.3024,1.2362,1.1197,1.108,1.0911,1.0692,1.0692,1.0692,-0.3597,-0.3444,-0.3382,0.0,0.0,0.0,0.0,0.0,0.0,0.0,0.0,0.0,0.0,0.0,0.0,0.0,0.0,0.0,0.0,0.0,0.0,0.0,0.0,0.0,0.0,0.0,0.0,0.0,0.0,0.0,0.0,0.0,0.0,0.0,0.4684,0.4732,0.4901,0.4939,0.5078,0.5314,0.5396,0.5477,0.5467,0.5372,0.5427,0.5552,0.5371,0.5408,0.5616,0.5616,0.5649,0.5741,0.5842,0.5937,0.6137,0.5939,0.6062,0.629,0.6253,0.634,0.6564,0.6632,0.6785,0.6986,0.6986,0.7065,0.7154,0.7154,0.7154,0.7154,0.7154,0.7154,0.7165,0.7203,0.7211,0.7244,0.7366,0.7394,0.7453,0.7663,0.9469,1.1169,1.1583,1.3545,1.498,1.4943,1.5144,1.5133,1.4805,1.4692,1.4735,1.4972,1.4999,1.5068,1.5235,1.5095,1.4999,1.4999,1.4848,1.4832,1.4993,1.4918,1.4458,1.3509,1.2993,1.2292,1.1297,1.0949,1.0749,1.0692,1.0753,1.0777,-0.3504,-0.33,0.0,0.0,0.0,0.0,0.0,0.0,0.0,0.0,0.0,0.0,0.0,0.0,0.0,0.0,0.0,0.0,0.0,0.0,0.0,0.0,0.0,0.0,0.0,0.0,0.0,0.0,0.0,0.0,0.0,0.0,0.0,0.0,0.4529,0.4723,0.4723,0.477,0.495,0.5184,0.5184,0.5314,0.5464,0.5287,0.5264,0.5371,0.5099,0.5132,0.5329,0.5332,0.5259,0.524,0.5536,0.5634,0.5636,0.5634,0.5807,0.6195,0.6083,0.6187,0.6458,0.6554,0.6787,0.6986,0.6986,0.7065,0.7154,0.7154,0.7154,0.7154,0.7154,0.7154,0.7184,0.7304,0.7334,0.7369,0.7491,0.7519,0.7557,0.7679,0.8769,1.0115,1.1463,1.2817,1.4074,1.5051,1.5252,1.5252,1.5252,1.5042,1.4982,1.5225,1.5252,1.5252,1.5252,1.5252,1.5252,1.5252,1.5252,1.5252,1.5252,1.5472,1.5247,1.4438,1.3723,1.2929,1.1854,1.1301,1.0879,1.07,1.0887,1.0972,-0.3101,-0.3056,0.0,0.0,0.0,0.0,0.0,0.0,0.0,0.0,0.0,0.0,0.0,0.0,0.0,0.0,0.0,0.0,0.0,0.0,0.0,0.0,0.0,0.0,0.0,0.0,0.0,0.0,0.0,0.0,0.0,0.0,0.0,0.0,0.4368,0.4442,0.4523,0.4504,0.4564,0.4706,0.4628,0.4907,0.5464,0.5119,0.5092,0.5371,0.4926,0.4858,0.5052,0.5194,0.5187,0.524,0.524,0.5438,0.5536,0.5438,0.5557,0.5783,0.5952,0.6139,0.6269,0.6626,0.6855,0.6999,0.7081,0.7127,0.7154,0.7154,0.7154,0.7154,0.7154,0.7154,0.7165,0.7198,0.7274,0.7369,0.7491,0.7587,0.7682,0.7799,0.9623,1.1191,1.1603,1.354,1.5037,1.5168,1.5392,1.5435,1.5273,1.5332,1.5354,1.5257,1.5397,1.5494,1.5494,1.5494,1.5494,1.5494,1.5494,1.5494,1.5494,1.5402,1.4928,1.395,1.3422,1.2707,1.157,1.1323,1.1118,1.1066,1.1122,1.1147,-0.2743,0.0,0.0,0.0,0.0,0.0,0.0,0.0,0.0,0.0,0.0,0.0,0.0,0.0,0.0,0.0,0.0,0.0,0.0,0.0,0.0,0.0,0.0,0.0,0.0,0.0,0.0,0.0,0.0,0.0,0.0,0.0,0.0,0.0,0.4295,0.4401,0.4469,0.4377,0.4421,0.453,0.437,0.4629,0.5157,0.4777,0.4767,0.5044,0.4683,0.462,0.4769,0.4922,0.5005,0.5037,0.5037,0.5238,0.5436,0.5138,0.5238,0.5438,0.5739,0.5913,0.612,0.6602,0.6844,0.6997,0.7067,0.7119,0.7154,0.7154,0.7154,0.7154,0.7154,0.7154,0.7168,0.7214,0.7282,0.7383,0.7554,0.7649,0.7736,0.7847,0.9562,1.1129,1.1611,1.3421,1.495,1.529,1.551,1.5548,1.5408,1.551,1.5542,1.5402,1.5515,1.5601,1.5601,1.5601,1.5601,1.5601,1.5601,1.5601,1.5601,1.5461,1.498,1.4038,1.3556,1.2867,1.1854,1.1503,1.1293,1.1224,1.1297,1.1334,0.0,0.0,0.0,0.0,0.0,0.0,0.0,0.0,0.0,0.0,0.0,0.0,0.0,0.0,0.0,0.0,0.0,0.0,0.0,0.0,0.0,0.0,0.0,0.0,0.0,0.0,0.0,0.0,0.0,0.0,0.0,0.0,0.0,0.388,0.4262,0.4436,0.4436,0.4425,0.4395,0.0,0.43,0.4334,0.4518,0.4385,0.4324,0.4437,0.4447,0.4487,0.4579,0.4671,0.4757,0.4834,0.4834,0.4937,0.514,0.4935,0.4937,0.524,0.5436,0.5599,0.5782,0.6308,0.6671,0.697,0.698,0.7065,0.7154,0.7154,0.7154,0.7154,0.7154,0.7154,0.7182,0.7293,0.7328,0.7399,0.7633,0.7693,0.7736,0.7969,0.9079,1.0407,1.1611,1.2937,1.4267,1.5477,1.5601,1.5601,1.5601,1.5601,1.5601,1.5601,1.5601,1.5601,1.5601,1.5601,1.5601,1.5601,1.5601,1.5601,1.5601,1.5601,1.5235,1.451,1.3923,1.3241,1.2473,1.1761,1.1439,1.1277,1.1447,1.1524,0.0,0.0,0.0,0.0,0.0,0.0,0.0,0.0,0.0,0.0,0.0,0.0,0.0,0.0,0.0,0.0,0.0,0.0,0.0,0.0,0.0,0.0,0.0,0.0,0.0,0.0,0.0,0.0,0.0,0.0,0.0,0.0,0.0,0.3875,0.3911,0.3996,0.4194,0.4061,0.4031,0.0,0.3856,0.38,0.3842,0.4094,0.4268,0.4268,0.4359,0.4487,0.4579,0.4671,0.4757,0.4834,0.4834,0.4834,0.4834,0.4834,0.4834,0.4937,0.5238,0.5354,0.5385,0.5872,0.6195,0.6533,0.6627,0.6952,0.7154,0.7154,0.7154,0.7154,0.7154,0.7154,0.7163,0.7187,0.7266,0.7377,0.7527,0.7633,0.8093,0.9176,1.0407,1.1732,1.3062,1.4386,1.524,1.5596,1.5601,1.5601,1.5601,1.5601,1.5601,1.5601,1.5601,1.5601,1.5601,1.5601,1.5601,1.5601,1.5601,1.5601,1.5601,1.5601,1.5002,1.3923,1.3808,1.3071,1.196,1.184,1.1695,1.1658,1.1699,1.1715,0.0,0.0,0.0,0.0,0.0,0.0,0.0,0.0,0.0,0.0,0.0,0.0,0.0,0.0,0.0,0.0,0.0,0.0,0.0,0.0,0.0,0.0,0.0,0.0,0.0,0.0,0.0,0.0,0.0,0.0,0.0,0.3899,0.3851,0.3735,0.377,0.386,0.3865,0.3716,0.3682,0.3776,0.3598,0.3544,0.3634,0.3943,0.4126,0.4181,0.4312,0.4447,0.4577,0.4624,0.4718,0.4834,0.4834,0.4834,0.4834,0.4834,0.4834,0.4834,0.514,0.524,0.5249,0.5599,0.5997,0.6317,0.6427,0.6758,0.7086,0.7138,0.7154,0.7154,0.7154,0.7154,0.7154,0.7154,0.7247,0.7353,0.7418,0.7573,0.8073,0.945,1.0838,1.2093,1.3426,1.4753,1.5601,1.5601,1.5601,1.5601,1.5601,1.5601,1.5601,1.5601,1.5601,1.5601,1.5601,1.5601,1.5601,1.5601,1.5601,1.5601,1.5601,1.5601,1.5002,1.3688,1.3688,1.3089,1.1776,1.1776,1.1776,1.1776,1.1776,1.1776,0.0,0.0,0.0,0.0,0.0,0.0,0.0,0.0,0.0,0.0,0.0,0.0,0.0,0.0,0.0,0.0,0.0,0.0,0.0,0.0,0.0,0.0,0.0,0.0,0.0,0.0,0.0,0.0,0.0,0.0,0.3787,0.3872,0.3832,0.3505,0.3653,0.3695,0.3554,0.3443,0.3412,0.3586,0.3432,0.3471,0.3636,0.391,0.4077,0.4155,0.4257,0.4404,0.4573,0.4573,0.4675,0.4834,0.4834,0.4834,0.4834,0.4834,0.4834,0.4834,0.5037,0.514,0.514,0.5436,0.5812,0.6125,0.6213,0.6656,0.7005,0.71,0.7138,0.7154,0.7154,0.7154,0.7154,0.7154,0.7247,0.7336,0.7336,0.751,0.8147,0.9703,1.1256,1.2697,1.3784,1.4873,1.5601,1.5601,1.5601,1.5601,1.5601,1.5601,1.5601,1.5601,1.5601,1.5601,1.5601,1.5601,1.5601,1.5601,1.5601,1.5601,1.5601,1.5601,1.5002,1.3688,1.3688,1.3093,1.2014,1.1897,1.1776,1.1776,1.1776,1.1776,0.0,0.0,0.0,0.0,0.0,0.0,0.0,0.0,0.0,0.0,0.0,0.0,0.0,0.0,0.0,0.0,0.0,0.0,0.0,0.0,0.0,0.0,0.0,0.0,0.0,0.0,0.0,0.0,0.0,0.0,0.3607,0.3503,0.3397,0.3439,0.3359,0.3301,0.3335,0.324,0.3279,0.3457,0.3438,0.3532,0.3636,0.391,0.4042,0.4063,0.4228,0.4404,0.4573,0.4573,0.4675,0.4834,0.4834,0.4834,0.4834,0.4834,0.4834,0.4834,0.4834,0.4834,0.4834,0.4935,0.5302,0.5901,0.5916,0.6381,0.6989,0.7005,0.7078,0.7154,0.7154,0.7154,0.7154,0.7154,0.7247,0.7336,0.7336,0.7445,0.8269,1.0848,1.34,1.5116,1.5359,1.5477,1.5601,1.5601,1.5601,1.5601,1.5601,1.5601,1.5601,1.5601,1.5601,1.5601,1.5601,1.5601,1.5601,1.5601,1.5601,1.5601,1.5601,1.5601,1.5002,1.3688,1.3688,1.3329,1.2603,1.2014,1.1776,1.1776,1.1776,1.1776,0.0,0.0,0.0,0.0,0.0,0.0,0.0,0.0,0.0,0.0,0.0,0.0,0.0,0.0,0.0,0.0,0.0,0.0,0.0,0.0,0.0,0.0,0.0,0.0,0.0,0.0,0.0,0.0,0.0,0.3585,0.3585,0.3467,0.336,0.3249,0.3163,0.31,0.3001,0.2983,0.3077,0.3223,0.3438,0.352,0.3567,0.3889,0.4036,0.4044,0.4222,0.4404,0.4573,0.4573,0.4675,0.4834,0.4834,0.4834,0.4834,0.4834,0.4834,0.4834,0.4834,0.4834,0.4834,0.4834,0.5164,0.5717,0.5777,0.6322,0.6896,0.6967,0.7067,0.7154,0.7154,0.7154,0.7154,0.7154,0.7247,0.7336,0.7336,0.7432,0.8365,1.1079,1.3663,1.5445,1.5575,1.5601,1.5601,1.5601,1.5601,1.5601,1.5601,1.5601,1.5601,1.5601,1.5601,1.5601,1.5601,1.5601,1.5601,1.5601,1.5601,1.5601,1.5601,1.5601,1.5116,1.4277,1.3923,1.3209,1.2251,1.1991,1.1918,1.1918,1.1918,1.1918,0.0,0.0,0.0,0.0,0.0,0.0,0.0,0.0,0.0,0.0,0.0,0.0,0.0,0.0,0.0,0.0,0.0,0.0,0.0,0.0,0.0,0.0,0.0,0.0,0.0,0.0,0.0,0.0,0.0,0.3585,0.3585,0.3496,0.333,0.3132,0.3037,0.2905,0.2793,0.2815,0.2903,0.3058,0.3334,0.3479,0.3511,0.3848,0.4014,0.4044,0.4222,0.4389,0.454,0.4563,0.4663,0.4806,0.4826,0.4834,0.4834,0.4834,0.4834,0.4834,0.4834,0.4834,0.4834,0.4834,0.5133,0.5655,0.5763,0.6269,0.6787,0.6942,0.7046,0.7119,0.7146,0.7154,0.7154,0.7154,0.7225,0.742,0.7709,0.8165,0.9218,1.1674,1.3869,1.5397,1.5569,1.5601,1.5601,1.5601,1.5601,1.5601,1.5601,1.5601,1.5601,1.5601,1.5601,1.5601,1.5601,1.5601,1.5601,1.5601,1.5601,1.5601,1.5601,1.5655,1.5443,1.472,1.4299,1.3551,1.2255,1.2433,1.2517,1.2521,1.2568,1.2465,0.0,0.0,0.0,0.0,0.0,0.0,0.0,0.0,0.0,0.0,0.0,0.0,0.0,0.0,0.0,0.0,0.0,0.0,0.0,0.0,0.0,0.0,0.0,0.0,0.0,0.0,0.0,0.0,0.0,0.3585,0.3585,0.3304,0.3137,0.3074,0.286,0.2697,0.2699,0.2785,0.2872,0.3026,0.3307,0.3416,0.3509,0.3783,0.3955,0.4044,0.4222,0.4353,0.4449,0.4536,0.4628,0.4724,0.4804,0.4834,0.4834,0.4834,0.4834,0.4834,0.4834,0.4834,0.4834,0.4834,0.5133,0.5655,0.5763,0.621,0.6679,0.6918,0.6989,0.7018,0.7127,0.7154,0.7154,0.7154,0.716,0.7561,0.8948,1.0398,1.1804,1.311,1.4585,1.5585,1.5596,1.5601,1.5601,1.5601,1.5601,1.5601,1.5601,1.5601,1.5601,1.5601,1.5601,1.5601,1.5601,1.5601,1.5601,1.5601,1.5601,1.5601,1.5601,1.5811,1.5687,1.4963,1.516,1.4691,1.3569,1.377,1.3868,1.3868,1.4189,1.3904,0.0,0.0,0.0,0.0,0.0,0.0,0.0,0.0,0.0,0.0,0.0,0.0,0.0,0.0,0.0,0.0,0.0,0.0,0.0,0.0,0.0,0.0,0.0,0.0,0.0,0.0,0.0,0.0,0.0,0.0,0.3585,0.3299,0.3074,0.3074,0.2856,0.2691,0.2691,0.2781,0.2868,0.3018,0.3173,0.3354,0.3507,0.3716,0.3893,0.4042,0.4165,0.4302,0.4442,0.4534,0.4591,0.4634,0.4779,0.4802,0.4761,0.4814,0.4834,0.4834,0.4834,0.4834,0.4834,0.4834,0.5133,0.5644,0.5682,0.6149,0.6654,0.682,0.6923,0.7013,0.7124,0.7154,0.7154,0.7154,0.7879,0.8888,1.0352,1.093,1.1612,1.3007,1.4387,1.5424,1.5575,1.5601,1.5601,1.5601,1.5601,1.5601,1.5601,1.5601,1.5601,1.5601,1.5601,1.5601,1.5601,1.5601,1.5601,1.5601,1.5601,1.5666,1.5817,1.5903,1.5772,1.5185,1.5644,1.535,1.4199,1.4288,1.4388,1.4392,1.4595,1.4247,0.0,0.0,0.0,0.0,0.0,0.0,0.0,0.0,0.0,0.0,0.0,0.0,0.0,0.0,0.0,0.0,0.0,0.0,0.0,0.0,0.0,0.0,0.0,0.0,0.0,0.0,0.0,0.0,0.0,0.0,0.3527,0.3244,0.3074,0.2965,0.28,0.2691,0.2691,0.275,0.284,0.3018,0.3107,0.3293,0.3505,0.365,0.3834,0.4038,0.4099,0.4226,0.4395,0.4487,0.4526,0.4545,0.4722,0.4757,0.4718,0.4804,0.4834,0.4834,0.4834,0.4834,0.4834,0.4834,0.5135,0.5443,0.5576,0.602,0.65,0.6806,0.6893,0.6959,0.7114,0.7154,0.7265,0.7709,0.8437,0.9553,1.1423,1.1802,1.2196,1.3678,1.4665,1.5418,1.5575,1.5601,1.5601,1.5601,1.5601,1.5601,1.5601,1.5601,1.5601,1.5601,1.5601,1.5601,1.5601,1.5601,1.5634,1.5715,1.5715,1.5785,1.5941,1.6102,1.6102,1.568,1.6212,1.616,1.5261,1.5346,1.5381,1.5385,1.5455,1.4976,0.0,0.0,0.0,0.0,0.0,0.0,0.0,0.0,0.0,0.0,0.0,0.0,0.0,0.0,0.0,0.0,0.0,0.0,0.0,0.0,0.0,0.0,0.0,0.0,0.0,0.0,0.0,0.0,0.0,0.3413,0.3413,0.3188,0.2965,0.2691,0.2691,0.2691,0.2691,0.2691,0.2779,0.3015,0.3044,0.3232,0.3503,0.3585,0.3773,0.4036,0.4036,0.4136,0.4306,0.4398,0.4432,0.4451,0.4636,0.4706,0.4714,0.4802,0.4834,0.4834,0.4834,0.4834,0.4834,0.4834,0.4937,0.5258,0.5658,0.5923,0.6113,0.677,0.6893,0.6858,0.7092,0.7265,0.7485,0.8592,0.892,0.9735,1.2256,1.3069,1.3766,1.53,1.5591,1.5601,1.5601,1.5601,1.5601,1.5601,1.5601,1.5601,1.5601,1.5601,1.5601,1.5601,1.5601,1.5601,1.5601,1.5607,1.5704,1.5935,1.5951,1.5962,1.5968,1.6414,1.656,1.6339,1.6775,1.7001,1.7001,1.678,1.6673,1.6678,1.6899,1.6229,0.0985,0.0,0.0,0.0,0.0,0.0,0.0,0.0,0.0,0.0,0.0,0.0,0.0,0.0,0.0,0.0,0.0,0.0,0.0,0.0,0.0,0.0,0.0,0.0,0.0,0.0,0.0,0.0,0.3188,0.3188,0.3188,0.3023,0.2858,0.2691,0.2691,0.2691,0.2691,0.2691,0.2779,0.3015,0.304,0.3171,0.3501,0.3524,0.3718,0.4036,0.4036,0.4136,0.4306,0.4398,0.4395,0.4361,0.461,0.4667,0.4628,0.4779,0.5135,0.5539,0.5035,0.5138,0.5539,0.5035,0.4937,0.5244,0.5571,0.5864,0.6095,0.6671,0.6828,0.6858,0.7092,0.7817,0.8481,0.8809,1.0233,1.1744,1.2768,1.374,1.4588,1.5184,1.5483,1.5601,1.5601,1.5601,1.5601,1.5601,1.5601,1.5601,1.5601,1.5601,1.5601,1.5601,1.5601,1.5601,1.5601,1.5752,1.5876,1.5946,1.6113,1.6291,1.6457,1.6592,1.671,1.6813,1.6937,1.7001,1.7001,1.6942,1.691,1.691,1.5939,1.5057,0.0,0.0,0.0,0.0,0.0,0.0,-0.021,-0.0331,-0.0407,0.0,0.0,0.0,0.0,0.0,0.0,0.0,0.0,0.0,0.0,0.0,0.0,0.0,0.0,0.0,0.0,0.0,0.0,0.3023,0.3023,0.3023,0.3023,0.2914,0.2802,0.2691,0.2691,0.2691,0.2691,0.2691,0.2779,0.3015,0.3015,0.3191,0.3444,0.3483,0.3654,0.3926,0.4001,0.4116,0.4253,0.4342,0.4346,0.4322,0.4559,0.481,0.5163,0.5264,0.5639,0.5942,0.5438,0.5438,0.5438,0.4935,0.4937,0.5138,0.5436,0.5768,0.6047,0.6642,0.7192,0.7735,0.7889,0.8806,0.9798,1.0233,1.1433,1.2617,1.3521,1.4354,1.4988,1.5332,1.5505,1.5601,1.5601,1.5601,1.5601,1.5601,1.5601,1.5601,1.5601,1.5601,1.5601,1.5601,1.5601,1.5601,1.5601,1.5811,1.5994,1.6097,1.6328,1.6522,1.6657,1.6754,1.6824,1.6861,1.6958,1.7001,1.7001,1.7001,1.6872,1.6618,1.5714,1.4796,0.0,0.0,0.0,0.0,0.0,0.0,0.0346,0.0224,0.0072,0.0,0.0,0.0,0.0,0.0,0.0,0.0,0.0,0.0,0.0,0.0,0.0,0.0,0.0,0.0,0.0,0.2402,0.2747,0.286,0.286,0.286,0.2916,0.2747,0.2691,0.2691,0.2691,0.2691,0.2691,0.2691,0.2779,0.3015,0.3015,0.3168,0.3381,0.3462,0.3601,0.3789,0.3961,0.4087,0.4179,0.4265,0.43,0.4316,0.4593,0.5138,0.5826,0.5958,0.6042,0.6142,0.5942,0.5438,0.4935,0.4935,0.4935,0.5035,0.5734,0.6012,0.6336,0.699,0.8167,0.914,0.914,1.0017,1.1109,1.22,1.2526,1.2915,1.4256,1.4719,1.502,1.5472,1.558,1.5601,1.5601,1.5601,1.5601,1.5601,1.5601,1.5601,1.5601,1.5601,1.5601,1.5601,1.5601,1.5601,1.5601,1.5838,1.6081,1.6301,1.656,1.67,1.67,1.6894,1.691,1.6705,1.6899,1.7001,1.7001,1.7001,1.6613,1.5839,1.5839,1.5057,0.0,0.0,0.0,0.0,0.0,0.0,0.0694,0.0604,0.0557,0.0,0.0,0.0,0.0,0.0,0.0,0.0,0.0,0.0,0.0,0.0,0.0,0.0,0.0,0.0,0.0,0.2593,0.2691,0.2747,0.2747,0.2802,0.2916,0.2747,0.2691,0.2691,0.2691,0.2691,0.2691,0.2691,0.2779,0.3015,0.3015,0.3136,0.3475,0.3491,0.3636,0.3879,0.3989,0.4087,0.4179,0.4265,0.43,0.4405,0.5244,0.5703,0.5826,0.5958,0.6439,0.6736,0.5436,0.5338,0.5741,0.5741,0.5741,0.6039,0.7422,0.8026,0.8409,0.9519,1.0074,1.0343,1.0343,1.1214,1.2087,1.2304,1.3192,1.3925,1.4371,1.4719,1.4966,1.5262,1.5472,1.5601,1.5601,1.5601,1.5601,1.5601,1.5601,1.5601,1.5601,1.5601,1.5601,1.5601,1.5601,1.5601,1.5601,1.5994,1.6264,1.6312,1.6705,1.6937,1.6937,1.698,1.6985,1.6937,1.698,1.7001,1.7001,1.7001,1.6359,1.5062,1.5062,1.4408,0.0,0.0,0.0,0.1825,0.0,0.0,0.0,0.1297,0.1112,0.0,0.0,0.0,0.0,0.0,0.0,0.0,0.0,0.0,0.0,0.0,0.0,0.0,0.0,0.0,0.0,0.2568,0.2642,0.2687,0.2691,0.2747,0.2805,0.2747,0.2691,0.2691,0.2691,0.2691,0.2691,0.2691,0.2779,0.3015,0.3015,0.3186,0.3434,0.3479,0.3597,0.3773,0.3957,0.4063,0.4116,0.4244,0.4326,0.4472,0.545,0.6021,0.6477,0.6572,0.6839,0.7036,0.6237,0.6237,0.6639,0.6639,0.6639,0.6836,0.8021,0.8884,0.9546,1.0225,1.0966,1.1542,1.1542,1.2422,1.3305,1.3305,1.3748,1.4223,1.4342,1.4638,1.4918,1.5047,1.5354,1.5601,1.5601,1.5601,1.5601,1.5601,1.5601,1.5601,1.5601,1.5601,1.5601,1.5601,1.5601,1.5601,1.5601,1.6038,1.6312,1.6312,1.6748,1.7001,1.7001,1.7001,1.7001,1.7001,1.7001,1.7001,1.7001,1.7001,1.6488,1.5453,1.5062,1.4277,0.0,0.0,0.0,0.0,0.0,0.2186,0.0,0.0,0.0,0.0,0.0,0.0,0.0,0.0,0.0,0.0,0.0,0.0,0.0,0.0,0.0,0.0,0.0,0.0,0.0,0.2491,0.2647,0.2683,0.2691,0.2691,0.2691,0.2691,0.2691,0.2691,0.2691,0.2699,0.2717,0.2717,0.2805,0.3043,0.3043,0.3188,0.3391,0.3467,0.3565,0.3691,0.3932,0.4046,0.4075,0.4234,0.4453,0.4745,0.5479,0.625,0.6857,0.7087,0.7238,0.7238,0.7238,0.7238,0.7238,0.7338,0.7633,0.7935,0.8748,0.9778,1.0698,1.089,1.1832,1.2748,1.2748,1.3521,1.4196,1.4196,1.4196,1.4196,1.4196,1.4557,1.4885,1.4885,1.5268,1.5601,1.5601,1.5601,1.5601,1.5601,1.5601,1.5601,1.5601,1.5601,1.5601,1.5601,1.5601,1.5601,1.5601,1.6038,1.6312,1.6312,1.6748,1.7001,1.7001,1.7001,1.7001,1.7001,1.7001,1.7001,1.7001,1.7001,1.6618,1.5969,1.5453,1.4665,0.0,0.0,0.0,0.0,0.2095,0.0,0.0,0.0,0.0,0.0,0.0,0.0,0.0,0.0,0.0,0.0,0.0,0.0,0.0,0.0,0.0,0.0,0.0,0.0,0.0,0.0,0.2647,0.2683,0.2691,0.2691,0.2691,0.2691,0.2691,0.2691,0.2691,0.273,0.2811,0.2811,0.2899,0.3075,0.3075,0.3218,0.3485,0.3495,0.3634,0.3875,0.3987,0.4081,0.4165,0.4261,0.4854,0.5685,0.5792,0.5867,0.6179,0.6889,0.7238,0.7238,0.7238,0.7238,0.7338,0.8035,0.9023,1.0143,1.0902,1.1725,1.2585,1.3226,1.3672,1.397,1.397,1.4083,1.4196,1.4196,1.4196,1.4196,1.4196,1.4557,1.4885,1.4885,1.5268,1.5601,1.5601,1.5601,1.5601,1.5601,1.5601,1.5601,1.5601,1.5601,1.5601,1.5601,1.5601,1.5601,1.5601,1.6038,1.6312,1.6312,1.6748,1.7001,1.7001,1.7001,1.7001,1.7001,1.7001,1.7001,1.7001,1.7001,1.6618,1.5974,1.5969,1.5187,0.0,0.0,0.0,0.0,0.0,0.0,0.0,0.0,0.2614,0.0,0.0,0.0,0.0,0.0,0.0,0.0,0.0,0.0,0.0,0.0,0.0,0.0,0.0,0.0,0.0,0.0,0.0,0.0,0.0,0.2691,0.2691,0.2691,0.2715,0.2768,0.2768,0.2811,0.2899,0.2901,0.2964,0.3091,0.3091,0.3234,0.3499,0.3499,0.3646,0.3906,0.3995,0.4255,0.4781,0.444,0.4827,0.5609,0.5769,0.6195,0.6668,0.7018,0.7537,0.7932,0.7932,0.8233,0.873,0.9324,0.9916,1.0524,1.1495,1.2264,1.2874,1.349,1.39,1.4196,1.4196,1.4196,1.4196,1.4196,1.4196,1.4196,1.4196,1.4449,1.4719,1.4859,1.516,1.544,1.5575,1.5601,1.5601,1.5601,1.5601,1.5601,1.5601,1.5601,1.5601,1.5601,1.5601,1.5601,1.5601,1.5908,1.6161,1.6307,1.6748,1.7001,1.7001,1.7001,1.7001,1.7001,1.7001,1.7001,1.7001,1.7001,1.6872,1.6618,1.6229,1.5709,0.3605,0.0,0.0,0.0,0.0,0.0,0.0,0.0,0.0,0.0,0.0,0.0,0.0,0.0,0.0,0.0,0.0,0.0,0.0,0.0,0.0,0.0,0.0,0.0,0.0,0.0,0.0,0.0,0.0,0.0,0.2689,0.2691,0.2721,0.2787,0.2815,0.2868,0.3013,0.304,0.3036,0.3128,0.3154,0.3283,0.3501,0.355,0.3705,0.3942,0.4199,0.4718,0.5257,0.4832,0.5113,0.5863,0.5797,0.6546,0.7537,0.7537,0.7932,0.8432,0.863,0.913,0.9628,1.0019,1.0216,1.0408,1.1492,1.2094,1.2653,1.327,1.3825,1.4196,1.4196,1.4196,1.4196,1.4196,1.4196,1.4196,1.4196,1.4428,1.4681,1.4853,1.5133,1.5397,1.5569,1.5601,1.5601,1.5601,1.5601,1.5601,1.5601,1.5601,1.5601,1.5601,1.5601,1.5601,1.5601,1.5811,1.6081,1.6393,1.678,1.7001,1.7001,1.7001,1.7001,1.7001,1.7001,1.7001,1.7001,1.7001,1.7001,1.7001,1.6488,1.6229,0.0,0.0,0.0,0.3602,0.0,0.0,0.0,0.0,0.3506,0.0,0.0,0.0,0.0,0.0,0.0,0.0,0.0,0.0,0.0,0.0,0.0,0.0,0.0,0.0,0.0,0.0,0.0,0.0,0.0,0.0,0.2685,0.2691,0.2693,0.2695,0.2781,0.2868,0.3013,0.3042,0.3132,0.3224,0.3311,0.3405,0.3505,0.3677,0.3857,0.4036,0.4806,0.5262,0.5374,0.5481,0.5958,0.6738,0.6109,0.6917,0.8333,0.8333,0.8333,0.8531,0.9327,0.9628,0.9628,0.9628,0.9628,0.9821,1.09,1.1587,1.2132,1.3167,1.3825,1.4196,1.4196,1.4196,1.4196,1.4196,1.4196,1.4196,1.4196,1.4552,1.4875,1.488,1.5262,1.5591,1.5601,1.5601,1.5601,1.5601,1.5601,1.5601,1.5601,1.5601,1.5601,1.5601,1.5601,1.5601,1.5601,1.5811,1.6151,1.6624,1.6872,1.7001,1.7001,1.7001,1.7001,1.7001,1.7001,1.7001,1.7001,1.7001,1.7001,1.7001,1.7007,1.6618,0.0,0.0,0.5395,0.4809,0.0,0.0,0.0,0.0,0.0,0.0,0.0,0.0,0.0,0.0,0.0,0.0,0.0,0.0,0.0,0.0,0.0,0.0,0.0,0.0,0.0,0.0,0.0,0.0,0.0,0.0,0.0,0.2691,0.2717,0.2779,0.2864,0.2954,0.3044,0.3134,0.3226,0.3318,0.3348,0.3442,0.3587,0.3707,0.4101,0.4703,0.5067,0.5571,0.621,0.625,0.6525,0.6838,0.7267,0.7838,0.8387,0.8393,0.873,0.9229,0.9529,0.9628,0.9628,1.0019,0.992,0.9846,1.107,1.1605,1.2058,1.2929,1.362,1.4196,1.4196,1.4196,1.4196,1.4196,1.4196,1.4239,1.4385,1.4541,1.4745,1.5063,1.5257,1.5418,1.5575,1.5601,1.5601,1.5601,1.5601,1.5601,1.5601,1.5601,1.5601,1.5601,1.5601,1.5601,1.5601,1.5962,1.6328,1.664,1.6877,1.7001,1.7001,1.7001,1.7001,1.7001,1.7001,1.7001,1.7001,1.7001,1.7001,1.7001,1.7001,1.6877,0.5916,0.6157,0.0,0.5642,0.57,0.0,0.4599,0.0,0.0,0.0,0.0,0.0,0.0,0.0,0.0,0.0,0.0,0.0,0.0,0.2773,0.0,0.0,0.0,0.0,0.0,0.0,0.0,0.0,0.0,0.0,0.0,0.0,0.2717,0.2777,0.2893,0.3045,0.3042,0.3164,0.3273,0.3434,0.3677,0.3846,0.3933,0.4415,0.4895,0.5457,0.5878,0.6425,0.7005,0.7056,0.7346,0.7767,0.8215,0.8474,0.8781,0.8791,0.913,0.9628,0.9628,0.9628,0.9628,1.0019,0.992,0.9859,1.1143,1.1657,1.2072,1.3016,1.3677,1.4196,1.4196,1.4196,1.4196,1.4196,1.4196,1.4256,1.4487,1.46,1.4778,1.5176,1.5316,1.5424,1.5575,1.5601,1.5601,1.5601,1.5601,1.5601,1.5601,1.5601,1.5634,1.5715,1.565,1.5601,1.5601,1.6038,1.6377,1.6527,1.6834,1.7001,1.7001,1.7001,1.7044,1.7136,1.705,1.705,1.7136,1.705,1.7001,1.7001,1.7001,1.7001]}]]